[[{"header":{"parameterUnit":"m.s-1","parameterCategory":1,"la1":31.0,"la2":29.5877,"lo1":-88.7671,"lo2":-86.6584,"dy":0.0162,"dx":0.0185,"nx":115,"ny":88,"refTime":"2026-05-11T00:00:00:Z","depth":0,"parameterNumber":2,"parameterNumberName":"U-component_of_WINDS"},"data":[0.0,0.0,0.0,0.0,0.0,0.0,0.0,0.0,0.0,0.0,0.0,0.0,0.0,0.0,0.0,0.0,0.0,0.0,0.0,0.0,0.0,0.0,0.0,0.0,0.0,0.0,0.0,0.0,0.0,0.0,0.0,0.0,0.0,0.0,0.0,0.0,0.0,0.0,0.0,0.0,0.0,0.0,0.0,0.0,0.0,0.0,0.0,0.0,0.0,0.0,0.0,0.0,0.0,0.0,0.0,0.0,0.0,0.0,0.0,0.0,0.0,0.0,0.0,0.0,0.0,0.0,0.0,0.0,0.0,0.0,0.0,0.0,0.0,0.0,0.0,0.0,0.0,0.0,0.0,0.0,0.0,0.0,0.0,0.0,0.0,0.0,0.0,0.0,0.0,0.0,0.0,0.0,0.0,0.0,0.0,0.0,0.0,0.0,0.0,0.0,0.0,0.0,0.0,0.0,0.0,0.0,0.0,0.0,0.0,0.0,0.0,0.0,0.0,0.0,0.0,0.0,0.0,0.0,0.0,0.0,0.0,0.0,0.0,0.0,0.0,0.0,0.0,0.0,0.0,0.0,0.0,0.0,0.0,0.0,0.0,0.0,0.0,0.0,0.0,0.0,0.0,0.0,0.0,0.0,0.0,0.0,0.0,0.0,0.0,0.0,0.0,0.0,0.0,0.0,0.0,0.0,0.0,0.0,0.0,0.0,0.0,0.0,0.0,0.0,0.0,0.0,0.0,0.0,0.0,0.0,0.0,0.0,0.0,0.0,0.0,0.0,0.0,0.0,0.0,0.0,0.0,0.0,0.0,0.0,0.0,0.0,0.0,0.0,0.0,0.0,0.0,0.0,0.0,0.0,0.0,0.0,0.0,0.0,0.0,0.0,0.0,0.0,0.0,0.0,0.0,0.0,0.0,0.0,0.0,0.0,0.0,0.0,0.0,0.0,0.0,0.0,0.0,0.0,0.0,0.0,0.0,0.0,0.0,0.0,0.0,0.0,0.0,0.0,0.0,0.0,0.0,0.0,0.0,0.0,0.0,0.0,0.0,0.0,0.0,0.0,0.0,0.0,0.0,0.0,0.0,0.0,0.0,0.0,0.0,0.0,0.0,0.0,0.0,0.0,0.0,0.0,0.0,0.0,0.0,0.0,0.0,0.0,0.0,0.0,0.0,0.0,0.0,0.0,0.0,0.0,0.0,0.0,0.0,0.0,0.0,0.0,0.0,0.0,0.0,0.0,0.0,0.0,0.0,0.0,0.0,0.0,0.0,0.0,0.0,0.0,0.0,0.0,0.0,0.0,0.0,0.0,0.0,0.0,0.0,0.0,0.0,0.0,0.0,0.0,0.0,0.0,0.0,0.0,0.0,0.0,0.0,0.0,0.0,0.0,0.0,0.0,0.0,0.0,0.0,0.0,0.0,0.0,0.0,0.0,0.0,0.0,0.0,0.0,0.0,0.0,0.0,0.0,0.0,0.0,0.0,0.0,0.0,0.0,0.0,0.0,0.0,0.0,0.0,0.0,0.0,0.0,0.0,0.0,0.0,0.0,0.0,0.0,0.0,0.0,0.0,0.0,0.0,0.0,0.0,0.0,0.0,0.0,0.0,0.0,0.0,0.0,0.0,0.0,0.0,0.0,0.0,0.0,0.0,0.0,0.0,0.0,0.0,0.0,0.0,0.0,0.0,0.0,0.0,0.0,0.0,0.0,0.0,0.0,0.0,0.0,0.0,0.0,0.0,0.0,0.0,0.0,0.0,0.0,0.0,0.0,0.0,0.0,0.0,0.0,0.0,0.0,0.0,0.0,0.0,0.0,0.0,0.0,0.0,0.0,0.0,0.0,0.0,0.0,0.0,0.0,0.0,0.0,0.0,0.0,0.0,0.0,0.0,0.0,0.0,0.0,0.0,0.0,0.0,0.0,0.0,0.0,0.0,0.0,0.0,0.0,0.0,0.0,0.0,0.0,0.0,0.0,0.0,0.0,0.0,0.0,0.0,0.0,0.0,0.0,0.0,0.0,0.0,0.0,0.0,0.0,0.0,0.0,0.0,0.0,0.0,0.0,0.0,0.0,0.0,0.0,0.0,0.0,0.0,0.0,0.0,0.0,0.0,0.0,0.0,0.0,0.0,0.0,0.0,0.0,0.0,0.0,0.0,0.0,0.0,0.0,0.0,0.0,0.0,0.0,0.0,0.0,0.0,0.0,0.0,0.0,0.0,0.0,0.0,0.0,0.0,0.0,0.0,0.0,0.0,0.0,0.0,0.0,0.0,0.0,0.0,0.0,0.0,0.0,0.0,0.0,0.0,0.0,0.0,0.0,0.0,0.0,0.0,0.0,0.0,0.0,0.0,0.0,0.0,0.0,0.0,0.0,0.0,0.0,0.0,0.0,0.0,0.0,0.0,0.0,0.0,0.0,0.0,0.0,0.0,0.0,0.0,0.0,0.0,0.0,0.0,0.0,0.0,0.0,0.0,0.0,0.0,0.0,0.0,0.0,0.0,0.0,0.0,0.0,0.0,0.0,0.0,0.0,0.0,0.0,0.0,0.0,0.0,0.0,0.0,0.0,0.0,0.0,0.0,0.0,0.0,0.0,0.0,0.0,0.0,0.0,0.0,0.0,0.0,0.0,0.0,0.0,0.0,0.0,0.0,0.0,0.0,0.0,0.0,0.0,0.0,0.0,0.0,0.0,0.0,0.0,0.0,0.0,0.0,0.0,0.0,0.0,0.0,0.0,0.0,0.0,0.0,0.0,0.0,0.0,0.0,0.0,0.0,0.0,0.0,0.0,0.0,0.0,0.0,0.0,0.0,0.0,0.0,0.0,0.0,0.0,0.0,0.0,0.0,0.0,0.0,0.0,0.0,0.0,0.0,0.0,0.0,0.0,0.0,0.0,0.0,0.0,0.0,0.0,0.0,0.0,0.0,0.0,0.0,0.0,0.0,0.0,0.0,0.0,0.0,0.0,0.0,0.0,0.0,0.0,0.0,0.0,0.0,0.0,0.0,0.0,0.0,0.0,0.0,0.0,0.0,0.0,0.0,0.0,0.0,0.0,0.0,0.0,0.0,0.0,0.0,0.0,0.0,0.0,0.0,0.0,0.0,0.0,0.0,0.0,0.0,0.0,0.0,0.0,0.0,0.0,0.0,0.0,0.0,0.0,0.0,0.0,0.0,0.0,0.0,0.0,0.0,0.0,0.0,0.0,0.0,0.0,0.0,0.0,0.0,0.0,0.0,0.0,0.0,0.0,0.0,0.0,0.0,0.0,0.0,0.0,0.0,0.0,0.0,0.0,0.0,0.0,0.0,0.0,0.0,0.0,0.0,0.0,0.0,0.0,0.0,0.0,0.0,0.0,0.0,0.0,0.0,0.0,0.0,0.0,0.0,0.0,0.0,0.0,0.0,0.0,0.0,0.0,0.0,0.0,0.0,0.0,0.0,0.0,0.0,0.0,0.0,0.0,0.0,0.0,0.0,0.0,0.0,0.0,0.0,0.0,0.0,0.0,0.0,0.0,0.0,0.0,0.0,0.0,0.0,0.0,0.0,0.0,0.0,0.0,0.0,0.0,0.0,0.0,0.0,0.0,0.0,0.0,0.0,0.0,0.0,0.0,0.0,0.0,0.0,0.0,0.0,0.0,0.0,0.0,0.0,0.0,0.0,0.0,0.0,0.0,0.0,0.0,0.0,0.0,0.0,0.0,0.0,0.0,0.0,0.0,0.0,0.0,0.0,0.0,0.0,0.0,0.0,0.0,0.0,0.0,0.0,0.0,0.0,0.0,0.0,0.0,0.0,0.0,0.0,0.0,0.0,0.0,0.0,0.0,0.0,0.0,0.0,0.0,0.0,0.0,0.0,0.0,0.0,0.0,0.0,0.0,0.0,0.0,0.0,0.0,0.0,0.0,0.0,0.0,0.0,0.0,0.0,0.0,0.0,0.0,0.0,0.0,0.0,0.0,0.0,0.0,0.0,0.0,0.0,0.0,0.0,0.0,0.0,0.0,0.0,0.0,0.0,0.0,0.0,0.0,0.0,0.0,0.0,0.0,0.0,0.0,0.0,0.0,0.0,0.0,0.0,0.0,0.0,0.0,0.0,0.0,0.0,0.0,0.0,0.0,0.0,0.0,0.0,0.0,0.0,0.0,0.0,0.0,0.0,0.0,0.0,0.0,0.0,0.0,0.0,0.0,0.0,0.0,0.0,0.0,0.0,0.0,0.0,0.0,0.0,0.0,0.0,0.0,0.0,0.0,0.0,0.0,0.0,0.0,0.0,0.0,-0.8405,0.0,0.0,0.0,0.0,0.0,0.0,0.0,0.0,0.0,0.0,0.0,0.0,0.0,0.0,0.0,0.0,0.0,0.0,0.0,0.0,0.0,0.0,0.0,0.0,0.0,0.0,0.0,0.0,0.0,0.0,0.0,0.0,0.0,0.0,0.0,0.0,0.0,0.0,0.0,0.0,0.0,0.0,0.0,0.0,0.0,0.0,0.0,0.0,0.0,0.0,0.0,0.0,0.0,0.0,0.0,0.0,0.0,0.0,0.0,0.0,0.0,0.0,0.0,0.0,0.0,0.0,0.0,0.0,0.0,0.0,0.0,0.0,0.0,0.0,0.0,0.0,0.0,0.0,0.0,0.0,0.0,0.0,0.0,0.0,0.0,0.0,0.0,0.0,0.0,0.0,0.0,0.0,0.0,0.0,0.0,0.0,0.0,0.0,0.0,0.0,0.0,0.0,0.0,0.0,0.0,0.0,0.0,0.0,0.0,0.0,-0.973,-0.9672,-0.9755,-0.9571,-0.9118,0.0,0.0,0.0,0.0,0.0,0.0,0.0,0.0,0.0,0.0,0.0,0.0,0.0,0.0,0.0,0.0,0.0,0.0,0.0,0.0,0.0,0.0,0.0,0.0,0.0,0.0,0.0,0.0,0.0,0.0,0.0,0.0,0.0,0.0,0.0,0.0,0.0,0.0,0.0,0.0,0.0,0.0,0.0,0.0,0.0,0.0,0.0,0.0,0.0,0.0,0.0,0.0,0.0,0.0,0.0,0.0,0.0,0.0,0.0,0.0,0.0,0.0,0.0,0.0,0.0,0.0,0.0,0.0,0.0,0.0,0.0,0.0,0.0,0.0,0.0,0.0,0.0,0.0,0.0,0.0,0.0,0.0,0.0,0.0,0.0,0.0,0.0,0.0,0.0,0.0,0.0,0.0,0.0,0.0,0.0,0.0,0.0,0.0,0.0,0.0,0.0,0.0,0.0,0.0,0.0,0.0,0.0,0.0,0.0,0.0,0.0,0.0,-1.0494,-1.0467,-1.0387,0.0,0.0,0.0,0.0,0.0,0.0,0.0,0.0,0.0,0.0,0.0,0.0,0.0,0.0,0.0,0.0,0.0,0.0,0.0,0.0,0.0,0.0,0.0,0.0,0.0,0.0,0.0,0.0,0.0,0.0,0.0,0.0,0.0,0.0,0.0,0.0,0.0,0.0,0.0,0.0,0.0,0.0,0.0,0.0,0.0,0.0,0.0,0.0,0.0,0.0,0.0,0.0,0.0,0.0,0.0,0.0,0.0,0.0,0.0,0.0,0.0,0.0,0.0,0.0,0.0,0.0,0.0,0.0,0.0,0.0,0.0,0.0,0.0,0.0,0.0,0.0,0.0,0.0,0.0,0.0,0.0,0.0,0.0,0.0,0.0,0.0,0.0,0.0,0.0,0.0,0.0,0.0,0.0,0.0,0.0,0.0,0.0,0.0,0.0,0.0,0.0,0.0,0.0,0.0,0.0,0.0,0.0,0.0,0.0,0.0,-1.0805,-1.2291,-1.2288,0.0,-1.2176,0.0,0.0,0.0,0.0,0.0,0.0,0.0,0.0,0.0,0.0,0.0,0.0,0.0,0.0,0.0,0.0,0.0,0.0,0.0,0.0,0.0,0.0,0.0,0.0,0.0,0.0,0.0,0.0,0.0,0.0,0.0,0.0,0.0,0.0,0.0,0.0,0.0,0.0,0.0,0.0,0.0,0.0,0.0,0.0,0.0,0.0,0.0,0.0,0.0,0.0,0.0,0.0,0.0,0.0,0.0,0.0,0.0,0.0,0.0,0.0,0.0,0.0,0.0,0.0,0.0,0.0,0.0,0.0,0.0,0.0,0.0,0.0,0.0,0.0,0.0,0.0,0.0,0.0,0.0,0.0,0.0,0.0,0.0,0.0,0.0,0.0,0.0,0.0,0.0,0.0,0.0,0.0,0.0,0.0,0.0,0.0,0.0,0.0,0.0,0.0,0.0,0.0,0.0,0.0,0.0,0.0,0.0,0.0,0.0,0.0,-1.1441,-1.2632,-1.2602,-1.2343,0.0,0.0,0.0,0.0,0.0,0.0,0.0,0.0,0.0,0.0,0.0,0.0,0.0,0.0,0.0,0.0,0.0,0.0,0.0,0.0,0.0,0.0,0.0,0.0,0.0,0.0,0.0,0.0,0.0,0.0,0.0,0.0,0.0,0.0,0.0,0.0,0.0,0.0,0.0,0.0,0.0,0.0,0.0,0.0,0.0,0.0,0.0,0.0,0.0,0.0,0.0,0.0,0.0,0.0,0.0,0.0,0.0,0.0,0.0,0.0,0.0,0.0,0.0,0.0,0.0,0.0,0.0,0.0,0.0,0.0,0.0,0.0,0.0,0.0,0.0,0.0,0.0,0.0,0.0,0.0,0.0,0.0,0.0,0.0,0.0,0.0,0.0,0.0,0.0,0.0,0.0,0.0,0.0,0.0,0.0,0.0,0.0,0.0,0.0,0.0,0.0,0.0,0.0,0.0,0.0,0.0,0.0,0.0,0.0,0.0,-1.1702,0.0,-1.332,-1.3357,-1.2765,-1.1516,0.0,0.0,0.0,0.0,0.0,0.0,0.0,0.0,0.0,0.0,0.0,0.0,0.0,0.0,0.0,0.0,0.0,0.0,0.0,0.0,0.0,0.0,0.0,0.0,0.0,0.0,0.0,0.0,0.0,0.0,0.0,0.0,0.0,0.0,0.0,0.0,0.0,0.0,0.0,0.0,0.0,0.0,0.0,0.0,0.0,0.0,0.0,0.0,0.0,0.0,0.0,0.0,0.0,0.0,0.0,0.0,0.0,0.0,0.0,0.0,0.0,0.0,0.0,0.0,0.0,0.0,0.0,0.0,0.0,0.0,0.0,0.0,0.0,0.0,0.0,0.0,0.0,0.0,0.0,0.0,0.0,0.0,0.0,0.0,0.0,0.0,0.0,0.0,0.0,0.0,0.0,0.0,0.0,0.0,0.0,0.0,0.0,0.0,0.0,0.0,0.0,0.0,0.0,0.0,0.0,0.0,0.0,0.0,0.0,-1.3399,-1.3412,-1.5012,-1.5136,-1.3992,0.0,0.0,0.0,0.0,0.0,0.0,0.0,0.0,0.0,0.0,0.0,0.0,0.0,0.0,0.0,0.0,0.0,0.0,0.0,0.0,0.0,0.0,0.0,0.0,0.0,0.0,0.0,0.0,0.0,0.0,0.0,0.0,0.0,0.0,0.0,0.0,0.0,0.0,0.0,0.0,0.0,0.0,0.0,0.0,0.0,0.0,0.0,0.0,0.0,0.0,0.0,0.0,0.0,0.0,0.0,0.0,0.0,0.0,0.0,0.0,0.0,0.0,0.0,0.0,0.0,0.0,0.0,0.0,0.0,0.0,0.0,0.0,0.0,0.0,0.0,0.0,0.0,0.0,0.0,0.0,0.0,0.0,0.0,0.0,0.0,0.0,0.0,0.0,0.0,0.0,0.0,0.0,0.0,0.0,0.0,0.0,0.0,0.0,0.0,0.0,0.0,0.0,0.0,0.0,0.0,0.0,0.0,0.0,0.0,-1.1865,-1.2412,-1.3794,-1.5914,-1.4514,-1.3197,0.0,0.0,0.0,0.0,0.0,0.0,0.0,0.0,0.0,0.0,0.0,0.0,0.0,0.0,0.0,0.0,0.0,0.0,0.0,0.0,0.0,0.0,0.0,0.0,0.0,0.0,0.0,0.0,0.0,0.0,0.0,0.0,0.0,0.0,0.0,0.0,0.0,0.0,0.0,0.0,0.0,0.0,0.0,0.0,0.0,0.0,0.0,0.0,0.0,0.0,0.0,0.0,0.0,0.0,0.0,0.0,0.0,0.0,0.0,0.0,0.0,0.0,0.0,0.0,0.0,0.0,0.0,0.0,0.0,0.0,0.0,0.0,0.0,0.0,0.0,0.0,0.0,0.0,0.0,0.0,0.0,0.0,0.0,0.0,0.0,0.0,0.0,0.0,0.0,0.0,0.0,0.0,0.0,0.0,0.0,0.0,0.0,0.0,0.0,0.0,0.0,0.0,0.0,0.0,0.0,0.0,0.0,0.0,0.0,-1.1757,0.0,-1.4907,0.0,-1.4478,-1.2899,0.0,0.0,0.0,0.0,0.0,0.0,0.0,0.0,0.0,0.0,0.0,0.0,0.0,0.0,0.0,0.0,0.0,0.0,0.0,0.0,0.0,0.0,0.0,0.0,0.0,0.0,0.0,0.0,0.0,0.0,0.0,0.0,0.0,0.0,0.0,0.0,0.0,0.0,0.0,0.0,0.0,0.0,0.0,0.0,0.0,0.0,0.0,0.0,0.0,0.0,0.0,0.0,0.0,0.0,0.0,0.0,0.0,0.0,0.0,0.0,0.0,0.0,0.0,0.0,0.0,0.0,0.0,0.0,0.0,0.0,0.0,0.0,0.0,0.0,0.0,0.0,0.0,0.0,0.0,0.0,0.0,0.0,0.0,0.0,0.0,0.0,0.0,0.0,0.0,0.0,0.0,0.0,0.0,0.0,0.0,0.0,0.0,0.0,0.0,0.0,0.0,0.0,0.0,0.0,0.0,0.0,0.0,0.0,-1.1905,-1.5002,-1.6678,-1.6756,-1.5333,-1.5194,-1.3262,0.0,0.0,0.0,0.0,0.0,0.0,0.0,0.0,0.0,0.0,0.0,0.0,0.0,0.0,0.0,0.0,0.0,0.0,0.0,0.0,0.0,0.0,0.0,0.0,0.0,0.0,0.0,0.0,0.0,0.0,0.0,0.0,0.0,0.0,0.0,0.0,0.0,0.0,0.0,0.0,0.0,0.0,0.0,0.0,0.0,0.0,0.0,0.0,0.0,0.0,0.0,0.0,0.0,0.0,0.0,0.0,0.0,0.0,0.0,0.0,0.0,0.0,0.0,0.0,0.0,0.0,0.0,0.0,0.0,0.0,0.0,0.0,0.0,0.0,0.0,0.0,0.0,0.0,0.0,0.0,0.0,0.0,0.0,0.0,0.0,0.0,0.0,0.0,0.0,0.0,0.0,0.0,0.0,0.0,0.0,0.0,0.0,0.0,0.0,0.0,0.0,0.0,0.0,0.0,0.0,0.0,0.0,0.0,0.0,-1.446,-1.5544,-1.6705,-1.7721,-1.5077,-1.3469,0.0,0.0,0.0,0.0,0.0,0.0,0.0,0.0,0.0,0.0,0.0,0.0,0.0,0.0,0.0,0.0,0.0,0.0,0.0,0.0,0.0,0.0,0.0,0.0,0.0,0.0,0.0,0.0,0.0,0.0,0.0,0.0,0.0,0.0,0.0,0.0,0.0,0.0,0.0,0.0,0.0,0.0,0.0,0.0,0.0,0.0,0.0,0.0,0.0,0.0,0.0,0.0,0.0,0.0,0.0,0.0,0.0,0.0,0.0,0.0,0.0,0.0,0.0,0.0,0.0,0.0,0.0,0.0,0.0,0.0,0.0,0.0,0.0,0.0,0.0,0.0,0.0,0.0,0.0,0.0,0.0,0.0,0.0,0.0,0.0,0.0,0.0,0.0,0.0,0.0,0.0,0.0,0.0,0.0,0.0,0.0,0.0,0.0,0.0,0.0,0.0,0.0,0.0,0.0,0.0,0.0,0.0,0.0,0.0,-1.6996,-1.7766,-1.849,-1.909,-1.6212,-1.4531,-1.4203,0.0,0.0,0.0,0.0,0.0,0.0,0.0,0.0,0.0,0.0,0.0,0.0,0.0,0.0,0.0,0.0,0.0,0.0,0.0,0.0,0.0,0.0,0.0,0.0,0.0,0.0,0.0,0.0,0.0,0.0,0.0,0.0,0.0,0.0,0.0,0.0,0.0,0.0,0.0,0.0,0.0,0.0,0.0,0.0,0.0,0.0,0.0,0.0,0.0,0.0,0.0,0.0,0.0,0.0,0.0,0.0,0.0,0.0,0.0,0.0,0.0,0.0,0.0,0.0,0.0,0.0,0.0,0.0,0.0,0.0,0.0,0.0,0.0,0.0,0.0,0.0,0.0,0.0,0.0,0.0,0.0,0.0,0.0,0.0,0.0,0.0,0.0,0.0,0.0,0.0,0.0,0.0,0.0,0.0,0.0,0.0,0.0,0.0,0.0,0.0,0.0,0.0,0.0,0.0,0.0,0.0,0.0,0.0,-2.1663,-2.2726,-2.2019,-1.9517,-1.8394,-1.6312,0.0,0.0,0.0,0.0,0.0,0.0,0.0,0.0,0.0,0.0,0.0,0.0,0.0,0.0,0.0,0.0,0.0,0.0,0.0,0.0,0.0,0.0,0.0,0.0,0.0,0.0,0.0,0.0,0.0,0.0,0.0,0.0,0.0,0.0,0.0,0.0,0.0,0.0,0.0,0.0,0.0,0.0,0.0,0.0,0.0,0.0,0.0,0.0,0.0,0.0,0.0,0.0,0.0,0.0,0.0,0.0,0.0,0.0,0.0,0.0,0.0,0.0,0.0,0.0,0.0,0.0,0.0,0.0,0.0,0.0,0.0,0.0,0.0,0.0,0.0,0.0,0.0,0.0,0.0,0.0,0.0,0.0,0.0,0.0,0.0,0.0,0.0,0.0,0.0,0.0,0.0,0.0,0.0,0.0,0.0,0.0,0.0,0.0,0.0,0.0,0.0,0.0,0.0,0.0,0.0,0.0,0.0,0.0,0.0,-2.1704,-2.4974,-2.5487,-2.2843,-2.0183,-1.7736,0.0,0.0,0.0,0.0,0.0,0.0,0.0,0.0,0.0,0.0,0.0,0.0,0.0,0.0,0.0,0.0,0.0,0.0,0.0,0.0,0.0,0.0,0.0,0.0,0.0,0.0,0.0,0.0,0.0,0.0,0.0,0.0,0.0,0.0,0.0,0.0,0.0,0.0,0.0,0.0,0.0,0.0,0.0,0.0,0.0,0.0,0.0,0.0,0.0,0.0,0.0,0.0,0.0,0.0,0.0,0.0,0.0,0.0,0.0,0.0,0.0,0.0,0.0,0.0,0.0,0.0,0.0,0.0,0.0,0.0,0.0,0.0,0.0,0.0,0.0,0.0,0.0,0.0,0.0,0.0,0.0,0.0,0.0,0.0,0.0,0.0,0.0,0.0,0.0,0.0,0.0,0.0,0.0,0.0,0.0,0.0,0.0,0.0,0.0,0.0,0.0,0.0,0.0,0.0,0.0,0.0,0.0,0.0,-2.2627,-2.3702,-2.6533,-2.7105,-2.5198,-2.2629,-1.9899,0.0,0.0,0.0,0.0,0.0,0.0,0.0,0.0,0.0,0.0,0.0,0.0,0.0,0.0,0.0,0.0,0.0,0.0,0.0,0.0,0.0,0.0,0.0,0.0,0.0,0.0,0.0,0.0,0.0,0.0,0.0,0.0,0.0,0.0,0.0,0.0,0.0,0.0,0.0,0.0,0.0,0.0,0.0,0.0,0.0,0.0,0.0,0.0,0.0,0.0,0.0,0.0,0.0,0.0,0.0,0.0,0.0,0.0,0.0,0.0,0.0,0.0,0.0,0.0,0.0,0.0,0.0,0.0,0.0,0.0,0.0,0.0,0.0,0.0,0.0,0.0,0.0,0.0,0.0,0.0,0.0,0.0,0.0,0.0,0.0,0.0,0.0,0.0,0.0,0.0,0.0,0.0,0.0,0.0,0.0,0.0,0.0,0.0,0.0,0.0,0.0,0.0,0.0,0.0,0.0,0.0,0.0,0.0,-2.4062,-2.6404,-2.7486,-2.7601,-2.6736,-2.4996,-2.2061,0.0,0.0,0.0,0.0,0.0,0.0,0.0,0.0,0.0,0.0,0.0,0.0,0.0,0.0,0.0,0.0,0.0,0.0,0.0,0.0,0.0,0.0,0.0,0.0,0.0,0.0,0.0,0.0,0.0,0.0,0.0,0.0,0.0,0.0,0.0,0.0,0.0,0.0,0.0,0.0,0.0,0.0,0.0,0.0,0.0,0.0,0.0,0.0,0.0,0.0,0.0,0.0,0.0,0.0,0.0,0.0,0.0,0.0,0.0,0.0,0.0,0.0,0.0,0.0,0.0,0.0,0.0,0.0,0.0,0.0,0.0,0.0,0.0,0.0,0.0,0.0,0.0,0.0,0.0,0.0,0.0,0.0,0.0,0.0,0.0,0.0,0.0,0.0,0.0,0.0,0.0,0.0,0.0,0.0,0.0,0.0,0.0,0.0,0.0,0.0,0.0,0.0,0.0,0.0,0.0,0.0,0.0,0.0,-2.4394,-2.5577,-2.7717,-2.8453,-2.7645,-2.4687,-2.1425,0.0,0.0,0.0,0.0,0.0,0.0,0.0,0.0,0.0,0.0,0.0,0.0,0.0,0.0,0.0,0.0,0.0,0.0,0.0,0.0,0.0,0.0,0.0,0.0,0.0,0.0,0.0,0.0,0.0,0.0,0.0,0.0,0.0,0.0,0.0,0.0,0.0,0.0,0.0,0.0,0.0,0.0,0.0,0.0,0.0,0.0,0.0,0.0,-0.993,0.0,0.0,0.0,0.0,0.0,0.0,0.0,0.0,0.0,0.0,0.0,0.0,0.0,0.0,0.0,0.0,0.0,0.0,0.0,0.0,0.0,0.0,0.0,0.0,0.0,0.0,0.0,0.0,0.0,0.0,0.0,0.0,0.0,0.0,0.0,0.0,0.0,0.0,0.0,0.0,0.0,0.0,0.0,0.0,0.0,0.0,0.0,0.0,0.0,0.0,0.0,0.0,0.0,0.0,0.0,0.0,0.0,0.0,0.0,-2.4683,-2.5904,-2.7236,-2.7717,-2.7203,-2.4401,-2.1643,0.0,0.0,0.0,0.0,0.0,0.0,0.0,0.0,0.0,0.0,0.0,0.0,0.0,0.0,0.0,0.0,0.0,0.0,0.0,0.0,0.0,0.0,0.0,0.0,0.0,0.0,0.0,0.0,0.0,0.0,0.0,0.0,0.0,0.0,0.0,0.0,0.0,0.0,0.0,0.0,0.0,0.0,0.0,0.0,0.0,0.0,0.0,0.0,0.0,0.0,0.0,0.0,0.0,0.0,0.0,0.0,0.0,0.0,0.0,0.0,0.0,0.0,0.0,0.0,0.0,0.0,0.0,0.0,0.0,0.0,0.0,0.0,0.0,0.0,0.0,0.0,0.0,0.0,0.0,0.0,0.0,0.0,0.0,0.0,0.0,0.0,0.0,0.0,0.0,0.0,0.0,0.0,0.0,0.0,0.0,0.0,0.0,0.0,0.0,0.0,0.0,0.0,0.0,0.0,0.0,0.0,0.0,-2.2359,-2.4779,-2.6524,-2.6621,-2.6538,-2.637,-2.4123,-2.2023,-2.0163,0.0,0.0,0.0,0.0,0.0,0.0,0.0,0.0,0.0,0.0,0.0,0.0,0.0,0.0,0.0,0.0,0.0,0.0,0.0,0.0,0.0,0.0,0.0,0.0,0.0,0.0,0.0,0.0,0.0,0.0,0.0,0.0,0.0,0.0,0.0,0.0,0.0,0.0,-1.0466,-1.1309,0.0,0.0,0.0,0.0,0.0,0.0,0.0,0.0,-1.186,0.0,0.0,0.0,0.0,0.0,0.0,0.0,0.0,0.0,0.0,0.0,0.0,0.0,0.0,0.0,0.0,0.0,0.0,0.0,0.0,0.0,0.0,0.0,0.0,0.0,0.0,0.0,0.0,0.0,0.0,0.0,0.0,0.0,0.0,0.0,0.0,0.0,0.0,0.0,0.0,0.0,0.0,0.0,0.0,0.0,0.0,0.0,0.0,0.0,0.0,0.0,0.0,0.0,0.0,0.0,0.0,-2.1023,-2.2374,-2.4159,-2.6524,-2.6621,-2.625,-2.55,-2.381,-2.1775,-1.9372,0.0,0.0,0.0,0.0,0.0,0.0,0.0,0.0,0.0,0.0,0.0,0.0,0.0,0.0,0.0,0.0,0.0,0.0,0.0,0.0,0.0,0.0,0.0,0.0,0.0,0.0,0.0,0.0,0.0,0.0,0.0,0.0,0.0,0.0,0.0,0.0,0.0,0.0,0.0,-1.3613,-1.4355,0.0,0.0,0.0,0.0,0.0,0.0,0.0,0.0,-1.2555,0.0,0.0,0.0,0.0,0.0,0.0,0.0,0.0,0.0,0.0,0.0,0.0,0.0,0.0,0.0,0.0,0.0,0.0,0.0,0.0,0.0,0.0,0.0,0.0,0.0,0.0,0.0,0.0,0.0,0.0,0.0,0.0,0.0,0.0,0.0,0.0,0.0,0.0,0.0,0.0,0.0,0.0,0.0,0.0,0.0,0.0,0.0,0.0,0.0,0.0,0.0,0.0,0.0,0.0,0.0,-2.0696,-2.2184,-2.3852,-2.5895,-2.6022,-2.5619,-2.4724,-2.2735,-2.0871,0.0,0.0,0.0,0.0,0.0,0.0,0.0,0.0,0.0,0.0,0.0,0.0,0.0,0.0,0.0,0.0,0.0,0.0,0.0,0.0,0.0,0.0,0.0,0.0,0.0,0.0,0.0,0.0,0.0,0.0,0.0,0.0,0.0,0.0,0.0,0.0,0.0,0.0,0.0,0.0,-1.4471,-1.5425,-1.5892,0.0,0.0,0.0,0.0,0.0,0.0,-1.3125,-1.2578,0.0,0.0,0.0,0.0,0.0,0.0,0.0,0.0,0.0,0.0,0.0,0.0,0.0,0.0,0.0,0.0,0.0,0.0,0.0,0.0,0.0,0.0,0.0,0.0,0.0,0.0,0.0,0.0,0.0,0.0,0.0,0.0,0.0,0.0,0.0,0.0,0.0,0.0,0.0,0.0,0.0,0.0,0.0,0.0,0.0,0.0,0.0,0.0,0.0,0.0,0.0,0.0,0.0,0.0,0.0,-2.0196,-2.1849,-2.3537,-2.5297,-2.5299,-2.4825,-2.3947,-2.1706,-1.9931,0.0,0.0,0.0,0.0,0.0,0.0,0.0,0.0,0.0,0.0,0.0,0.0,0.0,0.0,0.0,0.0,0.0,0.0,0.0,0.0,0.0,0.0,0.0,0.0,0.0,0.0,0.0,0.0,0.0,0.0,0.0,0.0,0.0,0.0,0.0,0.0,0.0,0.0,0.0,0.0,0.0,-1.6368,-1.7331,-1.6191,0.0,0.0,0.0,0.0,-1.3589,-1.3813,0.0,0.0,0.0,0.0,0.0,0.0,0.0,0.0,0.0,0.0,0.0,0.0,0.0,0.0,0.0,0.0,0.0,0.0,0.0,0.0,0.0,0.0,0.0,0.0,0.0,0.0,0.0,0.0,0.0,0.0,0.0,0.0,0.0,0.0,0.0,0.0,0.0,0.0,0.0,0.0,0.0,0.0,0.0,0.0,0.0,0.0,0.0,0.0,0.0,0.0,0.0,0.0,0.0,0.0,0.0,0.0,-2.0158,-2.1249,-2.2937,-2.5231,-2.4724,-2.3947,-2.3134,-2.1417,-1.9367,0.0,0.0,0.0,0.0,0.0,0.0,0.0,0.0,0.0,0.0,0.0,0.0,0.0,0.0,0.0,0.0,0.0,0.0,0.0,0.0,0.0,0.0,0.0,0.0,0.0,0.0,0.0,0.0,0.0,0.0,0.0,0.0,0.0,0.0,0.0,0.0,0.0,0.0,0.0,0.0,0.0,-1.7914,-1.6651,-1.5661,-1.5316,0.0,0.0,-1.3081,-1.4762,-1.6246,0.0,0.0,0.0,0.0,0.0,0.0,0.0,0.0,0.0,0.0,0.0,0.0,0.0,0.0,0.0,0.0,0.0,0.0,0.0,0.0,0.0,0.0,0.0,0.0,0.0,0.0,0.0,0.0,0.0,0.0,0.0,0.0,0.0,0.0,0.0,0.0,0.0,0.0,0.0,0.0,0.0,0.0,0.0,0.0,0.0,0.0,0.0,0.0,0.0,0.0,0.0,0.0,0.0,0.0,0.0,-1.6309,-1.9548,-2.1478,-2.3211,-2.4719,-2.4963,-2.4396,-2.309,-2.0967,-1.8823,0.0,0.0,0.0,0.0,0.0,0.0,0.0,0.0,0.0,0.0,0.0,0.0,0.0,0.0,0.0,0.0,0.0,0.0,0.0,0.0,0.0,0.0,0.0,0.0,0.0,0.0,0.0,0.0,0.0,0.0,0.0,0.0,0.0,0.0,0.0,0.0,0.0,0.0,0.0,0.0,0.0,0.0,-1.7733,-1.7021,0.0,0.0,0.0,-1.5872,-1.6555,0.0,0.0,0.0,0.0,0.0,0.0,0.0,0.0,0.0,0.0,0.0,0.0,0.0,0.0,0.0,0.0,0.0,0.0,0.0,0.0,0.0,0.0,0.0,0.0,0.0,0.0,0.0,0.0,0.0,0.0,0.0,0.0,0.0,0.0,0.0,0.0,0.0,0.0,0.0,0.0,0.0,0.0,0.0,0.0,0.0,0.0,0.0,0.0,0.0,0.0,0.0,0.0,0.0,0.0,0.0,0.0,0.0,-1.9081,-2.1734,-2.3398,-2.3999,-2.4704,-2.4355,-2.2812,-2.0312,0.0,0.0,0.0,0.0,0.0,0.0,0.0,0.0,0.0,0.0,0.0,0.0,0.0,0.0,0.0,0.0,0.0,0.0,0.0,0.0,0.0,0.0,0.0,0.0,0.0,0.0,0.0,-0.6991,0.0,0.0,0.0,0.0,0.0,0.0,0.0,0.0,0.0,0.0,0.0,0.0,0.0,0.0,-1.7876,-1.8298,-1.8032,-1.8072,0.0,0.0,-1.7835,-1.8025,-1.7172,-1.5909,0.0,0.0,0.0,0.0,0.0,0.0,0.0,0.0,0.0,0.0,0.0,0.0,0.0,0.0,0.0,0.0,0.0,0.0,0.0,0.0,0.0,0.0,0.0,0.0,0.0,0.0,0.0,0.0,0.0,0.0,0.0,0.0,0.0,0.0,0.0,0.0,0.0,0.0,0.0,0.0,0.0,0.0,0.0,0.0,0.0,0.0,0.0,0.0,0.0,0.0,0.0,0.0,0.0,0.0,0.0,-1.9074,-2.1742,-2.3125,-2.3179,-2.3298,-2.293,-2.1992,-1.9453,-1.7285,0.0,0.0,0.0,0.0,0.0,0.0,0.0,0.0,0.0,0.0,0.0,0.0,0.0,0.0,0.0,0.0,0.0,0.0,0.0,0.0,0.0,0.0,0.0,0.0,0.0,0.0,0.0,0.0,0.0,0.0,0.0,0.0,0.0,0.0,0.0,0.0,0.0,0.0,0.0,0.0,0.0,-1.8055,-1.7329,-1.7814,-1.8553,0.0,0.0,-1.7951,-1.8631,-1.9426,-1.8596,-1.4663,0.0,0.0,0.0,0.0,0.0,0.0,0.0,0.0,0.0,0.0,0.0,0.0,0.0,0.0,0.0,0.0,0.0,0.0,0.0,0.0,0.0,0.0,0.0,0.0,0.0,0.0,0.0,0.0,0.0,0.0,0.0,0.0,0.0,0.0,0.0,0.0,0.0,0.0,0.0,0.0,0.0,0.0,0.0,0.0,0.0,0.0,0.0,0.0,0.0,0.0,0.0,0.0,0.0,-1.5562,-1.7601,-2.0753,-2.2341,-2.2379,-2.291,-2.2773,-2.1934,-1.9842,-1.7944,0.0,0.0,0.0,0.0,0.0,0.0,0.0,0.0,0.0,0.0,0.0,0.0,0.0,0.0,0.0,0.0,0.0,0.0,0.0,0.0,0.0,0.0,0.0,0.0,0.0,0.0,0.0,0.0,-1.0078,-1.0605,-1.0605,0.0,0.0,0.0,0.0,0.0,0.0,0.0,0.0,0.0,0.0,-1.764,-1.7814,-1.8105,0.0,0.0,-1.8375,-1.7933,-1.933,-1.9975,-1.9286,-1.6312,-1.4581,0.0,0.0,0.0,0.0,0.0,0.0,0.0,0.0,0.0,0.0,0.0,0.0,0.0,0.0,0.0,0.0,0.0,0.0,0.0,0.0,0.0,0.0,0.0,0.0,0.0,0.0,0.0,0.0,0.0,0.0,0.0,0.0,0.0,0.0,0.0,0.0,0.0,0.0,0.0,0.0,0.0,0.0,0.0,0.0,0.0,0.0,0.0,0.0,0.0,0.0,0.0,0.0,-1.5077,-1.7049,-1.998,-2.1462,-2.1458,-2.2298,-2.2337,-2.1439,-1.9749,-1.8119,0.0,0.0,0.0,0.0,0.0,0.0,0.0,0.0,0.0,0.0,0.0,0.0,0.0,0.0,0.0,0.0,0.0,0.0,0.0,0.0,0.0,0.0,0.0,0.0,0.0,0.0,0.0,0.0,-1.084,-1.1211,-1.1191,0.0,0.0,0.0,0.0,0.0,0.0,0.0,0.0,0.0,0.0,-1.7732,-1.8242,-1.8572,-1.8952,-1.9521,-1.8646,-1.8382,-1.9784,-2.0158,-1.9545,-1.7322,0.0,0.0,0.0,0.0,0.0,0.0,0.0,0.0,0.0,0.0,0.0,0.0,0.0,0.0,0.0,0.0,0.0,0.0,0.0,0.0,0.0,0.0,0.0,0.0,0.0,0.0,0.0,0.0,0.0,0.0,-1.0193,0.0,0.0,0.0,0.0,0.0,0.0,0.0,0.0,0.0,0.0,0.0,0.0,0.0,0.0,0.0,0.0,0.0,0.0,0.0,0.0,0.0,0.0,-1.5323,-1.7831,-1.961,-2.0496,-2.0455,-2.1276,-2.1298,-2.0416,-1.8795,-1.7506,-1.6585,0.0,0.0,0.0,0.0,0.0,0.0,0.0,0.0,0.0,0.0,0.0,0.0,0.0,0.0,0.0,0.0,0.0,0.0,0.0,0.0,0.0,0.0,0.0,0.0,0.0,0.0,-1.0449,-1.0332,-1.0371,0.0,0.0,0.0,0.0,0.0,0.0,0.0,0.0,0.0,0.0,-1.8086,-1.8531,-1.8435,-1.9188,-1.9706,-1.9623,-1.9401,-1.9421,-1.9923,-2.012,-1.9519,0.0,0.0,0.0,0.0,0.0,0.0,0.0,0.0,0.0,0.0,0.0,0.0,0.0,0.0,0.0,0.0,0.0,0.0,0.0,0.0,0.0,0.0,0.0,0.0,0.0,0.0,0.0,-1.2711,-1.2243,0.0,0.0,0.0,0.0,0.0,0.0,0.0,0.0,0.0,0.0,0.0,-1.6089,-1.6089,0.0,0.0,0.0,0.0,0.0,0.0,0.0,0.0,0.0,0.0,0.0,0.0,-1.4495,-1.6979,-1.876,-1.9633,-1.9599,-1.9891,-1.9602,-1.8731,-1.7591,-1.6288,-1.484,0.0,0.0,0.0,0.0,0.0,0.0,0.0,0.0,0.0,0.0,0.0,0.0,0.0,0.0,0.0,0.0,0.0,0.0,0.0,0.0,0.0,0.0,0.0,0.0,0.0,-1.1641,0.0,0.0,0.0,0.0,0.0,0.0,0.0,0.0,0.0,0.0,0.0,-1.6063,-1.8956,-1.8916,-1.8753,-1.9261,-1.9591,-1.9773,0.0,0.0,0.0,0.0,0.0,0.0,0.0,0.0,0.0,0.0,0.0,0.0,0.0,0.0,-1.3876,-1.2171,-1.1892,-1.2079,-1.2647,0.0,0.0,0.0,0.0,0.0,0.0,0.0,0.0,0.0,0.0,0.0,0.0,0.0,0.0,-1.4289,0.0,-1.3542,0.0,0.0,0.0,0.0,0.0,0.0,0.0,0.0,-1.6147,-1.6843,-1.7619,-1.7619,-1.7343,0.0,-1.6333,-1.4639,0.0,0.0,0.0,0.0,0.0,0.0,0.0,0.0,-1.4006,-1.6485,-1.768,-1.8397,-1.8649,-1.8688,-1.8399,-1.7845,-1.697,-1.568,-1.3959,-1.2863,-1.1881,0.0,0.0,0.0,0.0,0.0,0.0,0.0,0.0,0.0,0.0,0.0,0.0,0.0,0.0,0.0,0.0,0.0,0.0,0.0,0.0,0.0,0.0,0.0,-1.1457,0.0,0.0,0.0,0.0,0.0,0.0,0.0,0.0,0.0,-1.5138,-1.5664,-1.7055,-1.9954,-1.9696,-1.939,-1.9844,0.0,0.0,0.0,0.0,0.0,0.0,0.0,-1.7542,-1.9223,-1.9069,-1.828,-1.6943,-1.5898,-1.5282,-1.5321,0.0,0.0,-1.3767,-1.3262,-1.312,-1.3504,-1.3176,-1.2947,-1.3443,-1.4271,-1.4634,0.0,0.0,0.0,0.0,0.0,0.0,0.0,0.0,-1.6056,-1.6047,0.0,-1.5146,0.0,0.0,0.0,0.0,0.0,-1.525,0.0,0.0,-1.7716,-1.81,-1.7431,-1.7442,-1.7393,-1.7385,-1.7542,-1.6717,-1.4979,-1.2779,0.0,0.0,0.0,0.0,0.0,0.0,-1.3979,-1.6389,-1.6522,-1.688,-1.7619,-1.7654,-1.7615,-1.7558,-1.6843,-1.5645,-1.4041,-1.3833,-1.2702,-1.0323,-1.0094,0.0,0.0,0.0,0.0,0.0,0.0,0.0,0.0,0.0,0.0,0.0,0.0,0.0,0.0,0.0,0.0,0.0,0.0,0.0,0.0,-1.0267,0.0,0.0,0.0,0.0,0.0,0.0,0.0,0.0,0.0,0.0,-1.5567,-1.6791,-1.8457,-2.0171,0.0,0.0,0.0,0.0,-2.0237,-2.004,-2.0165,-2.0288,-2.0296,-2.0269,-1.9762,-1.8355,0.0,0.0,-1.7343,-1.5993,-1.5251,-1.539,-1.5404,-1.5342,-1.519,-1.4334,-1.3993,-1.4904,-1.4319,-1.4028,-1.4816,-1.4983,-1.497,-1.662,0.0,0.0,0.0,0.0,-1.5799,-1.6428,-1.7409,-1.7428,-1.7238,-1.6902,-1.6672,0.0,0.0,0.0,0.0,0.0,0.0,-1.6616,-1.778,-1.8294,-1.8706,-1.9088,-1.907,-1.9094,-1.9062,-1.8528,-1.7686,-1.6616,-1.5394,-1.3981,-1.2384,0.0,0.0,0.0,0.0,-1.4336,-1.6229,-1.6254,-1.6321,-1.6544,-1.6563,-1.6288,-1.5729,-1.5478,-1.5113,-1.4612,-1.3503,-1.2559,-1.1828,-1.0717,0.0,0.0,0.0,0.0,0.0,0.0,0.0,0.0,0.0,0.0,0.0,0.0,0.0,0.0,0.0,0.0,0.0,0.0,0.0,-1.0161,-1.0775,-1.1268,0.0,0.0,0.0,0.0,0.0,0.0,0.0,0.0,0.0,-1.729,-1.8113,-1.9204,0.0,0.0,-2.0363,-2.0273,-2.0324,-2.0335,-2.0234,-2.0261,0.0,0.0,-2.0466,-2.0375,-1.9922,-1.9669,-1.9211,-1.841,-1.6621,-1.5294,-1.5379,-1.5404,-1.5389,-1.5337,-1.5033,-1.4855,-1.5108,-1.494,-1.4811,-1.5096,-1.513,-1.5339,-1.8115,-1.7736,-1.6874,-1.6694,-1.6949,-1.6752,-1.7273,-1.8236,-1.8236,-1.8083,-1.7812,-1.7805,-1.7043,-1.5745,-1.5223,0.0,0.0,0.0,-1.7382,-1.8702,-1.8702,-1.8982,-1.9467,-1.9467,-1.9526,-1.9581,-1.8814,-1.8014,-1.7211,-1.6463,-1.5247,-1.3598,0.0,0.0,-1.4254,-1.3826,-1.4294,-1.5668,-1.5651,-1.562,-1.5616,-1.5616,-1.5219,-1.4426,-1.4388,-1.4241,-1.3905,-1.2966,-1.2322,-1.2023,-1.1467,-1.0829,0.0,0.0,0.0,0.0,0.0,0.0,0.0,0.0,0.0,0.0,0.0,-0.6465,0.0,0.0,0.0,0.0,-0.8811,-1.1072,-1.0758,-1.1481,0.0,0.0,0.0,0.0,0.0,0.0,0.0,-1.4527,-1.7245,-1.875,-1.8125,-1.9015,-1.9959,-2.0475,-2.0486,-2.0465,-2.0381,0.0,-2.0422,-2.0345,-2.0335,-2.0357,-2.0398,-2.0512,-2.0605,-2.0581,-2.0076,-1.9639,-1.9396,-1.7699,-1.617,-1.5527,-1.5369,-1.5365,-1.541,-1.5325,-1.5268,-1.525,-1.5241,-1.534,-1.5673,-1.5714,-1.5848,-1.9223,-1.8404,-1.6958,-1.6774,-1.7461,-1.7443,-1.7858,-1.8566,-1.8566,-1.8585,-1.8595,-1.8595,-1.8187,-1.7435,-1.6703,0.0,-1.7737,-1.7771,-1.8183,-1.8966,-1.8966,-1.8984,-1.8958,-1.8966,-1.9023,-1.9149,-1.8622,-1.7862,-1.6947,-1.6399,-1.5706,-1.4873,-1.4057,-1.4084,-1.4805,-1.4088,-1.4061,-1.4867,-1.4877,-1.4873,-1.4873,-1.4798,-1.4378,-1.361,-1.3516,-1.3127,-1.2423,-1.2332,-1.1987,-1.1346,-1.205,-1.1774,-1.0154,0.0,0.0,0.0,0.0,0.0,0.0,0.0,0.0,0.0,0.0,0.0,0.0,0.0,0.0,0.0,-0.981,0.0,-1.1665,-1.2261,0.0,0.0,0.0,-1.2823,-1.2899,-1.4465,-1.5122,-1.4059,0.0,0.0,-1.8418,-1.9609,-2.0605,-2.0605,-2.0605,-2.0565,-2.0511,-2.0509,-2.0481,-2.0423,-2.042,-2.0422,-2.0432,-2.052,-2.0566,-2.0503,-2.044,-2.0332,-2.022,-1.8945,-1.7304,-1.5585,-1.5287,-1.5309,-1.5368,-1.5391,-1.537,-1.5302,-1.5455,-1.5766,-1.6361,-1.6601,-1.6532,-1.8659,-1.7958,-1.7567,-1.7642,-1.7981,-1.7793,-1.7938,-1.829,-1.8307,-1.841,-1.8595,-1.8595,-1.8374,-1.8022,-1.8032,-1.8041,-1.8093,-1.8311,-1.8484,-1.8697,-1.8706,-1.8688,-1.8697,-1.8679,-1.8431,-1.7982,-1.8545,-1.7788,-1.5912,-1.6415,-1.5993,-1.4655,-1.438,-1.4496,-1.4872,-1.4496,-1.4439,-1.4733,-1.4659,-1.46,-1.4581,-1.4,-1.3585,-1.3373,-1.2775,-1.2368,-1.2183,-1.1631,-1.1248,-1.1085,-1.0836,-1.054,-1.0094,-0.8459,0.0,0.0,0.0,0.0,0.0,0.0,0.0,0.0,0.0,-0.7963,-0.6424,0.0,-0.8813,0.0,-1.0473,-1.2628,-1.2451,-1.2604,0.0,0.0,-1.3695,-1.3963,-1.4626,-1.5865,-1.6764,-1.6951,-1.9101,-2.0449,-2.0019,-2.0352,-2.0605,-2.0605,-2.0605,-2.0565,-2.0511,-2.056,-2.0542,-2.0486,-2.0514,-2.0561,-2.0544,-2.048,-2.044,-2.043,-2.0416,-2.0388,-2.0384,-1.9011,-1.7334,-1.5649,-1.5228,-1.524,-1.5328,-1.5363,-1.5369,-1.54,-1.6305,-1.7036,-1.6657,-1.7051,-1.7569,-1.8471,-1.7789,-1.7789,-1.7883,-1.8014,-1.7867,-1.79,-1.8025,-1.8025,-1.8121,-1.8239,-1.8256,-1.8156,-1.8035,-1.8166,-1.8246,-1.8208,-1.8361,-1.842,-1.842,-1.8403,-1.842,-1.8403,-1.8089,-1.7806,-1.7591,-1.7758,-1.6998,-1.5485,-1.5875,-1.5476,-1.4256,-1.4238,-1.4314,-1.4447,-1.4492,-1.4539,-1.4622,-1.4539,-1.4311,-1.3887,-1.3448,-1.2863,-1.2159,-1.1667,-1.1262,-1.0945,-1.0567,-1.0344,-1.0368,-1.0082,-0.9957,-0.9989,-0.9034,-0.7759,0.0,0.0,0.0,0.0,0.0,0.0,0.0,0.0,0.0,0.0,0.0,-1.0596,-1.0185,-1.2384,-1.3643,-1.3266,-1.3577,-1.4019,-1.448,-1.4538,-1.4731,-1.5207,-1.6561,-1.7592,-1.7919,-1.9487,-2.0564,-2.0605,-2.0541,-2.0534,-2.0559,-2.0535,-2.0521,-2.0545,-2.0566,-2.0585,-2.0562,-2.0585,-2.0565,-2.0516,-2.0428,-2.0377,-2.0388,-2.0388,-2.038,-2.0379,-1.9633,-1.8178,-1.5815,-1.5195,-1.5215,-1.524,-1.5271,-1.5482,-1.6314,-1.7079,-1.7515,-1.7229,-1.7805,-1.8554,-1.8471,-1.78,-1.7789,-1.7789,-1.7789,-1.7789,-1.7789,-1.7789,-1.7789,-1.7789,-1.7789,-1.7789,-1.7789,-1.7789,-1.7789,-1.7927,-1.8135,-1.8146,-1.8146,-1.8146,-1.8042,-1.8007,-1.7983,-1.726,-1.7036,-1.725,-1.6642,-1.5944,-1.5181,-1.5131,-1.4686,-1.3924,-1.3888,-1.3888,-1.3903,-1.4251,-1.4416,-1.4429,-1.4349,-1.3888,-1.3093,-1.2881,-1.2099,-1.0745,-1.0461,-1.0076,-0.951,-0.9483,-0.9507,-0.9552,-0.9646,-0.9747,-0.9832,-0.9714,-0.8961,0.0,-0.7334,0.0,0.0,0.0,0.0,0.0,0.0,0.0,0.0,-1.0964,-1.214,-1.3167,-1.4431,-1.4882,-1.4099,-1.4741,-1.5195,-1.5195,-1.5195,-1.5228,-1.541,-1.6861,-1.7876,-1.7901,-1.9421,-2.0511,-2.0537,-2.0467,-2.0441,-2.0477,-2.045,-2.0444,-2.0541,-2.0564,-2.0565,-2.0585,-2.0605,-2.0561,-2.0412,-2.0341,-2.031,-2.0358,-2.0308,-2.0303,-2.0362,-2.0302,-1.9158,-1.6096,-1.5195,-1.5195,-1.5195,-1.5201,-1.5685,-1.6881,-1.742,-1.7772,-1.8055,-1.8669,-1.9474,-1.8454,-1.7789,-1.7789,-1.7789,-1.7789,-1.7789,-1.7789,-1.7789,-1.7789,-1.7789,-1.7789,-1.7789,-1.7789,-1.7789,-1.7789,-1.7822,-1.7861,-1.7889,-1.7878,-1.7855,-1.7254,-1.6976,-1.6942,-1.6227,-1.5611,-1.5165,-1.5749,-1.5338,-1.3948,-1.473,-1.4686,-1.3906,-1.3888,-1.3888,-1.3896,0.0,0.0,0.0,-1.3442,-1.3038,-1.2816,-1.1628,-1.0843,-1.053,-0.9882,0.0,-0.934,-0.934,-0.9331,-0.9359,-0.9571,0.0,0.0,0.0,0.0,0.0,0.0,0.0,0.0,0.0,0.0,0.0,-1.0465,-1.0358,-0.9907,-1.1249,-1.2414,-1.3034,-1.4358,-1.5088,-1.4816,-1.5041,-1.5195,-1.5195,-1.5192,-1.5462,-1.6182,-1.7202,-1.7833,-1.7918,-1.9396,-2.0411,-2.0371,-2.0376,-2.0398,-2.0419,-2.0413,-2.0414,-2.0434,-2.044,-2.047,-2.0491,-2.0543,-2.0528,-2.0357,-2.03,-2.0253,-2.0124,-2.0067,-2.0122,-2.0277,-2.0304,-1.9135,-1.5865,-1.5195,-1.5195,-1.5195,-1.5195,-1.5311,-1.5635,-1.6805,-1.7996,-1.8741,-1.9488,-2.0136,-1.8138,0.0,-1.7624,-1.7549,0.0,-1.7549,-1.7549,-1.7572,-1.7743,-1.7789,-1.7789,-1.7789,-1.7789,-1.7789,-1.7789,-1.7789,-1.7789,-1.7789,-1.7789,-1.7783,-1.7422,-1.7061,-1.6671,-1.5944,-1.5263,-1.4657,-1.4701,-1.4331,-1.3644,-1.4047,-1.4055,-1.3642,-1.3634,-1.3659,-1.3652,-1.3659,-1.3741,-1.3888,-1.3531,-1.3118,-1.2633,-1.1528,-1.0749,-1.0353,0.0,0.0,0.0,0.0,0.0,0.0,0.0,0.0,0.0,0.0,0.0,-0.8435,-0.8198,-0.8293,-0.8703,-0.8801,-0.9189,-1.0005,-1.0927,-1.1415,-1.1317,-1.259,-1.3494,-1.3723,-1.4424,-1.4892,-1.495,-1.504,-1.5098,-1.5117,-1.5152,-1.5561,-1.6419,-1.7264,-1.7774,-1.797,-1.9309,-2.0322,-2.0308,-2.0327,-2.0357,-2.0347,-2.0338,-2.0347,-2.0362,-2.0372,-2.0422,-2.0441,-2.0477,-2.0471,-2.0343,-2.0288,-2.0233,-2.0045,-1.9993,-2.0007,-2.0036,-2.0041,-1.8996,-1.5991,-1.5195,-1.5195,-1.5195,-1.5195,-1.5196,-1.5303,-1.5938,-1.7013,-1.8187,-1.9145,-1.9863,-1.7777,-1.7681,-1.7432,-1.7272,-1.7211,-1.7272,-1.7292,-1.7332,0.0,0.0,0.0,-1.7789,-1.7789,-1.7789,-1.7789,-1.7777,-1.7715,-1.7789,-1.7777,-1.7715,-1.7642,-1.7219,-1.6485,-1.5757,-1.5114,-1.4521,-1.3761,-1.3462,-1.3564,-1.3454,-1.3396,-1.3396,-1.3396,-1.3396,-1.3396,-1.3396,-1.3466,-1.3622,-1.3619,-1.3162,-1.2258,-1.1542,-1.0768,-0.9996,-0.9293,-0.8952,-0.9069,-0.9057,-0.9075,-0.9075,-0.9182,-0.9206,-0.9143,-0.8996,-0.8963,-0.9133,-0.9196,-0.9213,-0.9223,-0.926,-0.9403,-0.968,-1.1157,-1.2385,-1.3107,-1.398,-1.4488,-1.4488,-1.4488,-1.4576,-1.4799,-1.4933,-1.4966,-1.4988,-1.5107,-1.5558,-1.6564,-1.7318,-1.7879,-1.8242,-1.9462,-2.0302,-2.0304,-2.0292,-2.0296,-2.0302,-2.031,-2.0296,-2.0299,-2.0351,-2.0383,-2.0376,-2.0376,-2.0355,-2.0295,-2.0216,-2.0158,-1.9978,-1.9943,-1.9877,-1.9796,-1.9731,-1.8582,-1.6122,-1.5401,-1.5212,-1.5195,-1.5195,-1.5226,-1.5281,-1.5298,-1.5707,-1.7049,-1.8027,-1.8942,-1.7647,-1.7356,-1.732,-1.7126,-1.6904,-1.7187,-1.7292,-1.7332,-1.7641,-1.7789,-1.7789,-1.7789,-1.7789,-1.7789,-1.7789,-1.7658,-1.7392,-1.767,-1.7647,-1.7358,-1.7009,-1.6468,-1.5731,-1.502,-1.4268,-1.3616,-1.3447,-1.3413,-1.3413,-1.3413,-1.3396,-1.3396,-1.3396,-1.3396,-1.3396,-1.3396,-1.3116,-1.2559,-1.2517,-1.2126,-1.1314,-1.0577,-0.9847,-0.9123,-0.8976,-0.8908,-0.8925,-0.8936,-0.8925,-0.8925,-0.8941,-0.8957,-0.8953,-0.8908,-0.8908,-0.893,-0.8957,-0.8957,-0.8963,-0.9057,-0.9757,-1.117,-1.215,-1.3112,-1.4177,-1.442,-1.4488,-1.4488,-1.4488,-1.4511,-1.4573,-1.478,-1.4911,-1.4919,-1.4992,-1.5643,-1.7145,-1.7533,-1.8236,-1.9642,-2.0108,-2.0254,-2.0292,-2.0265,-2.0227,-2.0285,-2.0253,-2.0269,-2.0269,-2.0292,-2.0308,-2.0313,-2.0311,-2.03,-2.0241,-2.0036,-1.9885,-1.9824,-1.9681,-1.9601,-1.9619,-1.9533,-1.8671,-1.6911,-1.5785,-1.5272,-1.5195,-1.5195,-1.5229,-1.5274,-1.5292,-1.5452,-1.5729,-1.6288,-1.7465,-1.7427,-1.726,-1.6898,-1.6657,-1.6541,-1.6696,-1.6876,-1.7043,-1.7191,-1.7252,-1.7288,-1.7427,-1.7526,-1.7537,-1.7715,-1.7607,-1.732,-1.7451,-1.7349,-1.7031,-1.702,-1.6409,-1.5375,-1.5163,-1.4496,-1.3447,-1.3396,-1.3396,-1.3396,-1.3396,-1.3396,-1.3396,-1.3396,-1.3396,-1.3362,-1.2999,-1.2651,-1.2314,-1.2289,-1.1915,-1.1103,-1.0379,-0.9838,-0.9489,-0.9123,-0.8919,-0.8919,-0.8919,-0.8919,-0.8919,-0.8919,-0.8919,-0.8897,-0.8801,-0.8784,-0.8886,-0.884,-0.8818,-0.8897,-0.8963,-0.9714,-1.1334,-1.182,-1.2663,-1.4066,-1.4375,-1.4488,-1.4488,-1.4488,-1.4488,-1.4512,-1.4671,-1.4794,-1.4813,-1.4879,-1.5462,-1.6523,-1.6812,-1.7764,-1.9731,-1.9423,-1.9219,-2.0169,-1.9818,-1.9694,-2.0002,-2.0079,-2.0026,-1.9988,-2.0017,-2.0088,-2.0273,-2.0288,-2.0216,-2.0031,-1.9909,-1.9603,-1.915,-1.8996,-1.9098,-1.9355,-1.9458,-1.8533,-1.6513,-1.55,-1.5253,-1.5195,-1.5195,-1.5231,-1.5272,-1.5299,-1.524,-1.5214,-1.5371,-1.6177,-1.7138,-1.7027,-1.6512,-1.6301,-1.6287,-1.6219,-1.6367,-1.6659,-1.6607,-1.6567,-1.6633,-1.7002,-1.7171,-1.7211,-1.7455,-1.738,-1.7126,-1.715,-1.7014,-1.6735,-1.6873,-1.6266,-1.5108,-1.514,-1.451,-1.3421,-1.3295,-1.3337,-1.3388,-1.3396,-1.3371,-1.332,-1.3252,-1.32,-1.3192,-1.2506,-1.2046,-1.1903,-1.1751,-1.1412,-1.0859,-1.0255,-0.9876,-0.967,-0.9108,-0.8823,-0.8846,-0.8863,-0.8846,-0.8863,-0.8863,-0.8835,-0.8784,-0.8672,-0.8654,-0.8766,-0.8765,-0.8789,-0.8897,-0.8919,-0.9612,-1.1183,-1.1335,-1.2029,-1.3562,-1.4069,-1.4332,-1.4458,-1.4488,-1.4488,-1.4505,-1.4581,-1.4656,-1.4666,-1.4776,-1.5193,-1.5909,-1.6078,-1.6951,-1.9033,-1.8383,-1.8064,-1.8718,-1.8756,-1.875,-1.9167,-1.9455,-1.9481,-1.9311,-1.926,-1.9399,-1.9716,-1.998,-1.9793,-1.9365,-1.9063,-1.8789,-1.8186,-1.8075,-1.8241,-1.8635,-1.9027,-1.8381,-1.6148,-1.5365,-1.5212,-1.5195,-1.5212,-1.5248,-1.5282,-1.5225,-1.5147,-1.5018,-1.491,-1.5357,-1.6657,-1.6407,-1.6299,-1.6301,-1.6246,-1.5983,-1.6039,-1.6272,-1.6039,-1.5899,-1.5997,-1.6554,-1.6841,-1.6853,-1.6892,-1.6722,-1.6474,-1.6712,-1.6657,-1.6314,-1.6049,-1.5517,-1.47,-1.417,-1.3596,-1.3105,-1.3049,-1.3165,-1.3354,-1.3379,-1.326,-1.3024,-1.2781,-1.2687,-1.2597,-1.2004,-1.1342,-1.0656,-1.0071,-0.9863,-1.0076,-0.9915,-0.9517,-0.8833,-0.8587,-0.8536,-0.8689,-0.8723,-0.8723,-0.8723,-0.8706,-0.8628,-0.8498,-0.8554,-0.8551,-0.8476,-0.8719,-0.8891,-0.8897,-0.8919,-0.9535,-1.092,-1.1121,-1.179,-1.3267,-1.3495,-1.3806,-1.4288,-1.447,-1.4464,-1.4488,-1.4499,-1.4492,-1.4522,-1.4619,-1.5031,-1.5681,-1.6035,-1.654,-1.7497,-1.7373,-1.6952,-1.6045,-1.6711,-1.7557,-1.7806,-1.8327,-1.8461,-1.7955,-1.7828,-1.7901,-1.8324,-1.9068,-1.8942,-1.7782,-1.7171,-1.7225,-1.7206,-1.7151,-1.7207,-1.7389,-1.7428,-1.7141,-1.629,-1.5635,-1.5212,-1.5204,-1.5237,-1.5289,-1.524,-1.5111,-1.491,-1.4752,-1.4648,-1.5248,-1.6436,-1.6272,-1.608,-1.6011,-1.5969,-1.5856,-1.5885,-1.5983,-1.5855,-1.5814,-1.5827,-1.608,-1.6313,-1.653,-1.6696,-1.662,-1.6328,-1.6434,-1.6095,-1.5459,-1.5448,-1.492,-1.3897,-1.4025,-1.3619,-1.2827,-1.2878,-1.294,-1.2917,-1.2917,-1.2871,-1.2769,-1.2633,-1.261,-1.253,-1.1498,-1.0776,-1.0495,-0.9413,-0.8909,-0.9029,-0.9007,-0.8821,-0.8549,-0.8454,-0.8419,-0.8511,-0.8523,-0.8523,-0.8523,-0.853,-0.8492,-0.8393,-0.8364,-0.8371,-0.8409,-0.852,-0.8654,-0.8771,-0.8672,-0.9321,-1.0974,-1.1011,-1.1666,-1.3202,-1.3396,-1.3544,-1.3796,-1.4022,-1.4149,-1.4149,-1.4149,-1.4188,-1.4289,-1.4265,-1.4472,-1.4995,-1.4896,-1.5043,-1.5596,-1.5634,-1.5285,-1.4522,-1.5401,-1.6447,-1.6848,-1.7349,-1.7392,-1.7138,-1.7101,-1.704,-1.7003,-1.7597,-1.759,-1.6586,-1.5826,-1.5821,-1.614,-1.6245,-1.6214,-1.5873,-1.5847,-1.5811,-1.5738,-1.5443,-1.52,-1.5195,-1.5245,-1.5278,-1.522,-1.5111,-1.4931,-1.4871,-1.4665,-1.503,-1.615,-1.6122,-1.5899,-1.5814,-1.5814,-1.5814,-1.5814,-1.5814,-1.5814,-1.5814,-1.5814,-1.5814,-1.5821,-1.5947,-1.6327,-1.6302,-1.5916,-1.5902,-1.5415,-1.4596,-1.4603,-1.4059,-1.3205,-1.341,-1.3227,-1.2619,-1.2623,-1.2662,-1.2591,-1.2514,-1.2485,-1.2485,-1.2416,-1.2276,-1.1986,-1.09,-1.023,-0.9978,-0.8861,-0.8249,-0.8265,-0.8265,-0.8276,-0.8299,-0.8269,-0.8269,-0.8322,-0.8328,-0.8306,-0.8312,-0.8306,-0.8309,-0.8265,-0.816,-0.816,-0.8249,-0.8296,-0.8399,-0.8598,-0.8486,-0.9136,-1.0677,-1.0836,-1.1527,-1.2974,-1.3396,-1.3396,-1.3446,-1.3613,-1.3754,-1.3771,-1.3849,-1.3952,-1.4085,-1.3983,-1.4049,-1.4294,-1.4051,-1.4049,-1.4289,-1.4472,-1.4128,-1.3825,-1.4692,-1.5677,-1.5775,-1.6131,-1.6267,-1.6133,-1.6012,-1.5866,-1.56,-1.5945,-1.6059,-1.568,-1.5154,-1.4879,-1.5086,-1.5386,-1.5243,-1.4792,-1.4851,-1.4942,-1.5336,-1.5168,-1.5146,-1.5201,-1.5243,-1.5294,-1.5229,-1.513,-1.5009,-1.4985,-1.4765,-1.4665,-1.5813,-1.5827,-1.5814,-1.5814,-1.5814,-1.5814,-1.5814,-1.5814,-1.5814,-1.5814,-1.5814,-1.5769,-1.5468,-1.4956,-1.5537,-1.5466,-1.4928,-1.4881,-1.4521,-1.3825,-1.3262,-1.2899,-1.2782,-1.2204,-1.2038,-1.2215,-1.2231,-1.2346,-1.2543,-1.2326,-1.22,-1.22,-1.1947,-1.1513,-1.0972,-1.0272,-0.9606,-0.9068,-0.8349,-0.7949,-0.7927,-0.7935,-0.8012,-0.8106,-0.7997,-0.7997,-0.809,-0.8124,-0.8102,-0.8118,-0.8124,-0.8065,-0.7957,-0.7935,-0.792,-0.7949,-0.8044,-0.822,-0.8374,-0.839,-0.9014,-1.0269,-1.0551,-1.1327,-1.3076,-1.3371,-1.3396,-1.3405,-1.3446,-1.3454,-1.3421,-1.3673,-1.3863,-1.3896,-1.3899,-1.3899,-1.3924,-1.3913,-1.3888,-1.3962,-1.3986,-1.3842,-1.368,-1.4533,-1.4657,-1.4487,-1.4744,-1.5002,-1.4503,-1.4225,-1.4214,-1.4277,-1.4473,-1.4634,-1.4579,-1.4603,-1.4567,-1.4695,-1.4823,-1.4679,-1.4727,-1.479,-1.4886,-1.4958,-1.4957,-1.5034,-1.5161,-1.5237,-1.5273,-1.5242,-1.5179,-1.5087,-1.5069,-1.4964,-1.4893,-1.5814,-1.5814,-1.5814,-1.5814,-1.5814,-1.5814,-1.5814,-1.5814,-1.5814,-1.5814,-1.5724,-1.5365,-1.5035,-1.4796,-1.4601,-1.4393,-1.4156,-1.4154,-1.381,-1.3166,-1.2894,-1.2579,-1.2134,-1.1895,-1.1848,-1.1933,-1.1944,-1.1992,-1.2076,-1.1967,-1.1944,-1.1853,-1.1412,-1.1032,-1.0673,-0.9779,-0.913,-0.8868,-0.8252,-0.7906,-0.7906,-0.7906,-0.792,-0.7977,-0.792,-0.792,-0.7962,-0.7984,-0.7969,-0.7984,-0.7962,-0.7956,-0.7914,-0.7906,-0.7906,-0.7906,-0.7933,-0.803,-0.8174,-0.8144,-0.8789,-1.0264,-1.0382,-1.1036,-1.2529,-1.3191,-1.3396,-1.3388,-1.3388,-1.3278,-1.3052,-1.3312,-1.362,-1.3678,-1.3644,-1.3667,-1.3791,-1.3726,-1.3659,-1.3768,-1.352,-1.3083,-1.3176,-1.3565,-1.3814,-1.3649,-1.3989,-1.4118,-1.4012,-1.3881,-1.3853,-1.3896,-1.4035,-1.4123,-1.4123,-1.4381,-1.4506,-1.4506,-1.4529,-1.4589,-1.465,-1.4622,-1.469,-1.4808,-1.4808,-1.4872,-1.5007,-1.5133,-1.519,-1.5231,-1.5156,-1.5124,-1.5131,-1.5082,-1.5121,-1.5814,-1.5814,-1.5814,-1.5814,-1.5814,-1.5814,-1.5814,-1.5784,-1.5559,-1.5485,-1.5364,-1.4767,-1.4391,-1.4109,-1.3675,-1.3346,-1.3199,-1.3349,-1.3133,-1.2519,-1.2475,-1.225,-1.1891,-1.1816,-1.1816,-1.1816,-1.1816,-1.1816,-1.1816,-1.1816,-1.1736,-1.1604,-1.1075,-1.0614,-1.0249,-0.9362,-0.8823,-0.8544,-0.8132,-0.7906,-0.7899,-0.7819,-0.779,-0.7797,-0.779,-0.7841,-0.7899,-0.7906,-0.7906,-0.7906,-0.7906,-0.7906,-0.7906,-0.7906,-0.7906,-0.7906,-0.7906,-0.7949,-0.8048,-0.8152,-0.8827,-1.0156,-1.0406,-1.0992,-1.2215,-1.2687,-1.2862,-1.2889,-1.2889,-1.2734,-1.2734,-1.2935,-1.3184,-1.3253,-1.321,-1.3219,-1.3433,-1.327,-1.3337,-1.3491,-1.2923,-1.2439,-1.239,-1.2785,-1.3062,-1.3141,-1.3369,-1.3456,-1.3489,-1.3569,-1.36,-1.3615,-1.368,-1.3754,-1.3783,-1.3959,-1.4129,-1.4162,-1.4356,-1.4456,-1.4493,-1.4468,-1.4504,-1.4616,-1.4693,-1.4751,-1.485,-1.4988,-1.5085,-1.5152,-1.5135,-1.5068,-1.5126,-1.5214,-1.5194,-1.5785,-1.5741,-1.5814,-1.5785,-1.5726,-1.5709,-1.5769,-1.5694,-1.508,-1.4841,-1.4826,-1.4109,-1.3496,-1.2969,-1.2829,-1.2437,-1.2104,-1.2492,-1.2452,-1.1925,-1.1891,-1.1854,-1.1757,-1.1747,-1.1725,-1.1703,-1.1772,-1.1762,-1.1729,-1.1707,-1.1582,-1.1299,-1.0915,-1.0303,-0.9447,-0.9054,-0.8528,-0.8042,-0.7849,-0.7848,-0.7878,-0.7672,-0.759,-0.7583,-0.7575,-0.7665,-0.7848,-0.7892,-0.7906,-0.7906,-0.7906,-0.7906,-0.7906,-0.7906,-0.7906,-0.7906,-0.7899,-0.7892,-0.7981,-0.8454,-0.9067,-0.9904,-1.0438,-1.1062,-1.1742,-1.194,-1.1971,-1.1992,-1.1992,-1.204,-1.2465,-1.261,-1.2668,-1.2614,-1.2706,-1.2718,-1.268,-1.2633,-1.2799,-1.3105,-1.2514,-1.1886,-1.1929,-1.23,-1.2658,-1.2766,-1.279,-1.2776,-1.2822,-1.2974,-1.3015,-1.3077,-1.3303,-1.3517,-1.3509,-1.3517,-1.3632,-1.3766,-1.4038,-1.4221,-1.4283,-1.427,-1.4301,-1.4404,-1.4554,-1.4598,-1.4635,-1.4766,-1.4845,-1.4905,-1.4945,-1.4995,-1.5071,-1.5111,-1.5125,-1.5165,-1.4983,-1.5551,-1.561,-1.5316,-1.5164,-1.535,-1.5649,-1.4616,-1.4378,-1.4526,-1.3613,-1.2984,-1.2653,-1.2105,-1.1657,-1.1471,-1.1672,-1.177,-1.1787,-1.1805,-1.1659,-1.1479,-1.1457,-1.1355,-1.121,-1.1175,-1.1175,-1.1187,-1.1199,-1.1106,-1.0947,-1.0472,-0.9855,-0.9196,-0.8631,-0.803,-0.7488,-0.7425,-0.7425,-0.7417,-0.7357,-0.7318,-0.7317,-0.7237,-0.726,-0.7417,-0.7724,-0.7899,-0.7892,-0.7906,-0.7906,-0.7899,-0.7906,-0.7906,-0.7885,-0.7761,-0.7776,-0.7945,-0.8366,-0.9013,-0.9785,-1.0449,-1.1091,-1.1685,-1.1816,-1.1816,-1.1816,-1.1816,-1.1897,-1.2055,-1.2276,-1.2426,-1.2566,-1.261,-1.2572,-1.2553,-1.2582,-1.2684,-1.2724,-1.2225,-1.1844,-1.1869,-1.2143,-1.2266,-1.2241,-1.2386,-1.2572,-1.2601,-1.263,-1.2731,-1.2743,-1.3052,-1.3226,-1.3115,-1.3019,-1.3038,-1.3303,-1.3621,-1.3846,-1.3927,-1.4103,-1.4129,-1.4085,-1.4257,-1.4453,-1.4488,-1.4481,-1.4513,-1.4627,-1.4682,-1.4779,-1.492,-1.4958,-1.4953,-1.4951,-1.4814,-1.5507,-1.5639,-1.5316,-1.4969,-1.517,-1.5485,-1.4107,-1.381,-1.4051,-1.2882,-1.2243,-1.2097,-1.1471,-1.1161,-1.1164,-1.115,-1.1265,-1.146,-1.1604,-1.146,-1.1184,-1.115,-1.1071,-1.0932,-1.0897,-1.0897,-1.0897,-1.0897,-1.0849,-1.0617,-0.9977,-0.9367,-0.888,-0.8159,-0.7538,-0.7229,-0.7217,-0.7209,-0.7193,-0.7122,-0.7074,-0.7093,-0.7018,-0.7012,-0.7098,-0.7447,-0.7635,-0.768,-0.7797,-0.7819,-0.7672,-0.7493,-0.7484,-0.7598,-0.753,-0.7508,-0.7678,-0.8109,-0.8713,-0.9522,-1.0259,-1.1005,-1.1604,-1.1816,-1.1816,-1.1816,-1.1816,-1.1816,-1.1844,-1.1982,-1.2174,-1.2286,-1.2286,-1.2296,-1.2296,-1.2296,-1.2296,-1.2235,-1.1992,-1.1859,-1.1859,-1.1912,-1.1982,-1.1886,-1.2082,-1.2306,-1.2326,-1.2386,-1.2416,-1.2514,-1.2778,-1.2806,-1.2658,-1.2537,-1.2445,-1.276,-1.3151,-1.3336,-1.3458,-1.3795,-1.3945,-1.359,-1.359,-1.4149,-1.427,-1.4067,-1.4004,-1.4189,-1.4313,-1.443,-1.4511,-1.4685,-1.4705,-1.5013,-1.5059,-1.5507,-1.5609,-1.5446,-1.4879,-1.4949,-1.523,-1.3545,-1.3058,-1.325,-1.2073,-1.1345,-1.1247,-1.1003,-1.0859,-1.0873,-1.0859,-1.0823,-1.0907,-1.1069,-1.108,-1.0883,-1.0799,-1.0739,-1.0753,-1.0751,-1.0775,-1.0729,-1.0729,-1.0678,-1.0196,-0.9532,-0.8897,-0.8425,-0.7622,-0.7259,-0.7125,-0.713,-0.713,-0.7122,-0.698,-0.6886,-0.6878,-0.6883,-0.6883,-0.6919,-0.7085,-0.7201,-0.7264,-0.7613,-0.7635,-0.7233,-0.6823,-0.6861,-0.7162,-0.7178,-0.7217,-0.7349,-0.7823,-0.8479,-0.9134,-0.9991,-1.0825,-1.1494,-1.1659,-1.1729,-1.1805,-1.1816,-1.1783,-1.174,-1.1703,-1.1725,-1.1747,-1.1844,-1.1865,-1.1779,-1.1816,-1.1897,-1.1854,-1.1805,-1.1783,-1.1751,-1.1783,-1.1692,-1.1692,-1.1714,-1.1725,-1.1768,-1.1861,-1.205,-1.2195,-1.23,-1.225,-1.2061,-1.1884,-1.1792,-1.1952,-1.238,-1.2644,-1.2967,-1.336,-1.3399,-1.3057,-1.2986,-1.3598,-1.387,-1.3586,-1.3491,-1.3596,-1.3753,-1.3924,-1.4118,-1.4296,-1.4532,-1.4003,-1.3798,-1.4533,-1.456,-1.4095,-1.3739,-1.389,-1.4072,-1.2496,-1.2138,-1.234,-1.1492,-1.1001,-1.0979,-1.0666,-1.0532,-1.0532,-1.0532,-1.0385,-1.0223,-1.0494,-1.0592,-1.0496,-1.0273,-1.0173,-1.0186,-1.0223,-1.016,-1.016,-1.0198,-0.9966,-0.9446,-0.9219,-0.8592,-0.7786,-0.7448,-0.7133,-0.6808,-0.6761,-0.6769,-0.6752,-0.671,-0.6681,-0.6664,-0.6672,-0.6693,-0.6672,-0.6732,-0.6922,-0.7186,-0.7303,-0.7356,-0.717,-0.682,-0.6646,-0.6769,-0.6906,-0.7039,-0.7255,-0.7651,-0.83,-0.905,-0.9675,-1.0433,-1.1073,-1.1293,-1.1471,-1.1692,-1.1805,-1.1582,-1.1259,-1.1167,-1.1167,-1.1201,-1.1505,-1.1659,-1.1523,-1.1648,-1.1816,-1.1783,-1.1404,-1.1358,-1.1493,-1.1415,-1.1175,-1.1152,-1.1187,-1.1187,-1.129,-1.1256,-1.1412,-1.1457,-1.152,-1.1531,-1.1457,-1.1267,-1.1164,-1.1184,-1.149,-1.1853,-1.2299,-1.2813,-1.26,-1.223,-1.2315,-1.2784,-1.296,-1.2902,-1.2949,-1.3013,-1.3109,-1.3276,-1.3621,-1.3891,-1.4271,-1.3356,-1.3161,-1.3596,-1.3565,-1.3176,-1.2813,-1.2924,-1.3025,-1.1839,-1.1516,-1.1807,-1.1133,-1.0691,-1.0655,-1.0335,-1.0198,-1.0198,-1.0198,-1.0097,-0.9957,-1.0097,-1.0185,-1.0148,-0.9957,-0.9893,-0.9893,-0.9893,-0.9905,-0.9918,-0.9893,-0.9604,-0.9175,-0.8874,-0.8275,-0.7478,-0.7144,-0.6928,-0.6632,-0.65,-0.6436,-0.6427,-0.6427,-0.6436,-0.6453,-0.6517,-0.659,-0.659,-0.6599,-0.6752,-0.6996,-0.6999,-0.6942,-0.6947,-0.6744,-0.659,-0.662,-0.6698,-0.6815,-0.695,-0.7223,-0.7656,-0.8342,-0.9025,-0.9706,-1.0285,-1.0752,-1.1224,-1.1362,-1.1184,-1.0857,-1.0655,-1.0717,-1.0873,-1.0968,-1.121,-1.1324,-1.1138,-1.129,-1.1404,-1.1265,-1.0916,-1.0582,-1.0996,-1.0895,-1.0751,-1.0667,-1.0908,-1.0932,-1.0968,-1.0837,-1.0751,-1.0833,-1.1001,-1.1118,-1.0961,-1.0736,-1.0679,-1.0678,-1.0893,-1.1216,-1.168,-1.2204,-1.2133,-1.1897,-1.1833,-1.1886,-1.2195,-1.2396,-1.241,-1.2466,-1.2518,-1.272,-1.3093,-1.3339,-1.3754,-1.2863,-1.2854,-1.273,-1.265,-1.2539,-1.2095,-1.2121,-1.2286,-1.1351,-1.1147,-1.1399,-1.0734,-1.031,-1.0285,-0.997,-0.9828,-0.9764,-0.9712,-0.9751,-0.9699,-0.9738,-0.9725,-0.9699,-0.979,-0.9777,-0.9802,-0.9854,-0.9816,-0.9777,-0.979,-0.9467,-0.8895,-0.8399,-0.7876,-0.7204,-0.6787,-0.6589,-0.65,-0.6345,-0.6218,-0.6183,-0.6174,-0.6174,-0.6213,-0.6331,-0.6465,-0.6509,-0.6543,-0.6638,-0.6811,-0.6689,-0.6646,-0.6616,-0.6582,-0.6491,-0.6483,-0.65,-0.6552,-0.6569,-0.6662,-0.6874,-0.7506,-0.8186,-0.8825,-0.9476,-1.0115,-1.056,-1.0775,-1.0248,-1.0059,-0.997,-1.0385,-1.0558,-1.052,-1.0605,-1.0729,-1.0715,-1.0799,-1.0861,-1.0691,-1.0135,-0.9867,-1.0021,-1.0248,-1.0422,-0.9868,-1.0135,-1.0272,-1.0272,-1.0185,-1.0185,-1.0297,-1.052,-1.0777,-1.0532,-1.0235,-1.0223,-1.0235,-1.0484,-1.0798,-1.1159,-1.1549,-1.1699,-1.1648,-1.1299,-1.1423,-1.1876,-1.1982,-1.1903,-1.1878,-1.1906,-1.2238,-1.259,-1.2706,-1.3016,-1.189,-1.1905,-1.1867,-1.1748,-1.1535,-1.1389,-1.1345,-1.1271,-1.074,-1.0576,-1.0592,-1.0199,-0.9867,-0.9621,-0.9528,-0.9356,-0.9116,-0.9091,-0.9023,-0.9048,-0.9035,-0.9035,-0.9116,-0.9343,-0.9501,-0.9501,-0.9514,-0.9514,-0.9502,-0.9393,-0.9045,-0.821,-0.7767,-0.7167,-0.655,-0.6409,-0.6292,-0.6262,-0.6218,-0.6085,-0.597,-0.5961,-0.5961,-0.5979,-0.6036,-0.6132,-0.6254,-0.628,-0.6306,-0.638,-0.6488,-0.6538,-0.653,-0.6263,-0.6093,-0.609,-0.6204,-0.628,-0.6327,-0.6481,-0.674,-0.7086,-0.7521,-0.8012,-0.8787,-0.9171,-0.9608,-0.9917,-0.9957,-0.9686,-0.949,-0.9816,-0.9842,-0.9597,-0.9622,-0.966,-0.9531,-1.0247,-1.0434,-0.9816,-0.9332,-0.9251,-0.975,-0.9398,-0.9347,-0.9131,-0.9266,-0.9466,-0.9519,-0.952,-0.9561,-0.9627,-0.9893,-1.0084,-0.9817,-0.9557,-0.9505,-0.9647,-0.9944,-1.0311,-1.0676,-1.0985,-1.117,-1.0961,-1.0569,-1.0891,-1.1386,-1.1344,-1.1227,-1.1262,-1.131,-1.156,-1.179,-1.1984,-1.2278,-1.1186,-1.1161,-1.091,-1.0718,-1.0598,-1.0599,-1.0444,-1.0199,-1.0021,-0.9816,-0.9636,-0.9438,-0.9289,-0.913,-0.9103,-0.8981,-0.8844,-0.8789,-0.8803,-0.8816,-0.8803,-0.8803,-0.8748,-0.8855,-0.8951,-0.9087,-0.9116,-0.9116,-0.9081,-0.8876,-0.8413,-0.7644,-0.7225,-0.6722,-0.6158,-0.6061,-0.607,-0.6025,-0.5934,-0.5808,-0.5726,-0.5717,-0.5799,-0.5872,-0.5891,-0.5964,-0.604,-0.607,-0.6049,-0.6097,-0.6198,-0.6378,-0.6495,-0.6147,-0.5828,-0.5613,-0.5879,-0.6034,-0.6126,-0.6192,-0.6325,-0.6556,-0.7014,-0.7512,-0.8216,-0.8729,-0.9454,-0.9703,-0.9595,-0.9264,-0.9062,-0.9183,-0.9091,-0.8981,-0.8994,-0.9006,-0.9023,-0.9765,-1.0147,-0.9279,-0.8692,-0.8568,-0.8581,-0.8665,-0.8581,-0.8498,-0.8712,-0.8908,-0.8893,-0.8894,-0.8828,-0.8931,-0.9205,-0.9277,-0.9037,-0.8846,-0.8709,-0.894,-0.9291,-0.9699,-1.0122,-1.0421,-1.0714,-1.0334,-0.997,-1.0334,-1.0722,-1.0628,-1.0605,-1.0555,-1.0629,-1.0789,-1.0989,-1.1267,-1.1633,-1.0527,-1.0557,-1.0081,-0.988,-0.9841,-0.9828,-0.9658,-0.9356,-0.9316,-0.9183,-0.8858,-0.8789,-0.8858,-0.8734,-0.8734,-0.8692,-0.8609,-0.8581,-0.8498,-0.8509,-0.8509,-0.8509,-0.8481,-0.8382,-0.8379,-0.8609,-0.8692,-0.8731,-0.8637,-0.8309,-0.7873,-0.7269,-0.6771,-0.6309,-0.593,-0.5837,-0.5828,-0.581,-0.5661,-0.5501,-0.5444,-0.5435,-0.5538,-0.5659,-0.5706,-0.5763,-0.5808,-0.5835,-0.5826,-0.5847,-0.5872,-0.6063,-0.6162,-0.6027,-0.5613,-0.5146,-0.5585,-0.5799,-0.5845,-0.5902,-0.5974,-0.5956,-0.6656,-0.7214,-0.7678,-0.8428,-0.913,-0.9303,-0.9116,-0.8692,-0.8745,-0.8871,-0.8789,-0.8637,-0.8662,-0.8692,-0.8737,-0.921,-0.9197,-0.9048,-0.8382,-0.808,-0.8109,-0.817,-0.8009,-0.7927,-0.8167,-0.829,-0.8287,-0.82,-0.8101,-0.8174,-0.844,-0.8612,-0.8425,-0.8344,-0.8184,-0.8414,-0.8748,-0.9116,-0.9529,-0.97,-0.9855,-0.9688,-0.957,-0.9855,-1.0122,-1.0235,-1.0147,-0.9957,-1.0046,-1.0336,-1.0497,-1.0595,-1.094,-0.9793,-1.0018,-0.9931,-0.975,-0.9514,-0.9487,-0.9251,-0.894,-0.8899,-0.8871,-0.8789,-0.8775,-0.8592,-0.8425,-0.8379,-0.8209,-0.8023,-0.8009,-0.7966,-0.7976,-0.7976,-0.799,-0.7976,-0.7947,-0.7899,-0.7971,-0.8191,-0.8379,-0.8273,-0.7925,-0.7418,-0.6955,-0.6324,-0.5797,-0.5645,-0.5578,-0.5558,-0.5567,-0.5483,-0.5368,-0.5243,-0.5204,-0.5214,-0.5319,-0.5329,-0.5396,-0.554,-0.5568,-0.5578,-0.5597,-0.5773,-0.5669,-0.5518,-0.5358,-0.5224,-0.5204,-0.5377,-0.5567,-0.5576,-0.5763,-0.5954,-0.6167,-0.65,-0.6987,-0.7374,-0.7695,-0.8335,-0.8624,-0.8439,-0.8091,-0.8516,-0.8592,-0.8425,-0.8184,-0.8166,-0.8227,-0.8037,-0.807,-0.8301,-0.8287,-0.7922,-0.7695,-0.7802,-0.786,-0.7773,-0.768,-0.7742,-0.7733,-0.7643,-0.7454,-0.7253,-0.741,-0.7655,-0.7789,-0.7841,-0.7831,-0.7792,-0.8046,-0.8344,-0.8568,-0.8874,-0.894,-0.894,-0.8871,-0.8899,-0.9064,-0.9347,-0.9662,-0.9609,-0.9332,-0.9608,-0.9906,-0.9919,-0.9945,-1.0186,-0.917,-0.9331,-0.9331,-0.9237,-0.9114,-0.9089,-0.8871,-0.8578,-0.8537,-0.8425,-0.8269,-0.8213,-0.8152,-0.8019,-0.799,-0.787,-0.7739,-0.7695,-0.7695,-0.7695,-0.7695,-0.7695,-0.7695,-0.7695,-0.7695,-0.7754,-0.7914,-0.799,-0.7905,-0.7275,-0.6937,-0.6556,-0.5867,-0.5392,-0.5312,-0.5291,-0.5291,-0.5291,-0.5282,-0.5233,-0.5117,-0.5098,-0.5098,-0.5098,-0.5098,-0.5156,-0.5243,-0.5291,-0.5291,-0.532,-0.5425,-0.5329,-0.5185,-0.5098,-0.5098,-0.5117,-0.5233,-0.5301,-0.5291,-0.5435,-0.5601,-0.598,-0.6291,-0.671,-0.7179,-0.7476,-0.7693,-0.7948,-0.8037,-0.7797,-0.8048,-0.8195,-0.8033,-0.7846,-0.7899,-0.7788,-0.7515,-0.7373,-0.7452,-0.7559,-0.7163,-0.7127,-0.7652,-0.7642,-0.7569,-0.7483,-0.7375,-0.7195,-0.7013,-0.682,-0.661,-0.6929,-0.717,-0.704,-0.7101,-0.7047,-0.724,-0.7569,-0.782,-0.8064,-0.8273,-0.8368,-0.8308,-0.8209,-0.828,-0.8439,-0.8623,-0.8956,-0.8819,-0.8723,-0.8778,-0.8887,-0.9118,-0.9319,-0.9595,-0.8734,-0.8789,-0.8789,-0.8775,-0.8717,-0.8706,-0.8495,-0.8223,-0.8191,-0.8019,-0.7725,-0.771,-0.7739,-0.7695,-0.7686,-0.7656,-0.7608,-0.7622,-0.7642,-0.7569,-0.7666,-0.7695,-0.7695,-0.7695,-0.7695,-0.7695,-0.7583,-0.7603,-0.744,-0.6865,-0.6448,-0.612,-0.5469,-0.5098,-0.5117,-0.5137,-0.5098,-0.5078,-0.504,-0.502,-0.503,-0.5078,-0.5098,-0.5098,-0.5098,-0.5098,-0.5127,-0.504,-0.5069,-0.5098,-0.5137,-0.5117,-0.5108,-0.5098,-0.5098,-0.5098,-0.5098,-0.5098,-0.5127,-0.5283,-0.558,-0.6015,-0.633,-0.6748,-0.7162,-0.7537,-0.769,-0.7695,-0.7695,-0.7695,-0.7768,-0.7725,-0.7725,-0.771,-0.7681,-0.7578,-0.7216,-0.6984,-0.6835,-0.6721,-0.6365,-0.6616,-0.7172,-0.7211,-0.7092,-0.6984,-0.6874,-0.6589,-0.6416,-0.6318,-0.6264,-0.6603,-0.6704,-0.6426,-0.6306,-0.6152,-0.645,-0.6895,-0.7148,-0.7384,-0.7622,-0.7817,-0.7768,-0.7802,-0.7846,-0.8009,-0.8138,-0.8227,-0.8241,-0.8156,-0.7908,-0.8052,-0.8578,-0.8912,-0.9158,-0.8537,-0.8789,-0.8789,-0.8623,-0.8379,-0.8351,-0.8123,-0.7812,-0.7812,-0.7754,-0.7695,-0.7666,-0.7652,-0.7598,-0.7622,-0.7456,-0.7344,-0.7427,-0.7442,-0.7314,-0.75,-0.7627,-0.7666,-0.7695,-0.7583,-0.7525,-0.7285,-0.7201,-0.7006,-0.6572,-0.6215,-0.5863,-0.5423,-0.5088,-0.5049,-0.4991,-0.5098,-0.503,-0.4844,-0.4736,-0.4765,-0.4952,-0.502,-0.504,-0.504,-0.502,-0.4971,-0.4844,-0.4815,-0.502,-0.5069,-0.5098,-0.5098,-0.5098,-0.5098,-0.5098,-0.5098,-0.5098,-0.5127,-0.5358,-0.5702,-0.6103,-0.6575,-0.7151,-0.741,-0.7584,-0.7695,-0.7695,-0.7695,-0.7695,-0.7695,-0.7695,-0.7695,-0.7695,-0.7681,-0.7456,-0.7103,-0.6721,-0.6564,-0.606,-0.5743,-0.6213,-0.6781,-0.6684,-0.6585,-0.6491,-0.6348,-0.6082,-0.5907,-0.5863,-0.5672,-0.5929,-0.6242,-0.6021,-0.5859,-0.5663,-0.5812,-0.6275,-0.6518,-0.6738,-0.6904,-0.716,-0.7539,-0.7559,-0.7554,-0.7637,-0.786,-0.7904,-0.7788,-0.7768,-0.7744,-0.7961,-0.8276,-0.8533,-0.8706,-0.8282,-0.817,-0.818,-0.8095,-0.7961,-0.7971,-0.7875,-0.7725,-0.7695,-0.7695,-0.7642,-0.7442,-0.724,-0.7107,-0.7008,-0.6933,-0.6835,-0.6963,-0.7083,-0.7089,-0.7246,-0.7349,-0.7344,-0.7344,-0.7299,-0.7041,-0.6845,-0.6597,-0.6437,-0.6242,-0.5979,-0.5743,-0.5236,-0.489,-0.4915,-0.4744,-0.4665,-0.4596,-0.4527,-0.4466,-0.4496,-0.4577,-0.4655,-0.4655,-0.4666,-0.4676,-0.4636,-0.4557,-0.4507,-0.4696,-0.4883,-0.5098,-0.502,-0.4853,-0.4635,-0.4626,-0.4626,-0.4696,-0.487,-0.524,-0.5591,-0.5852,-0.6242,-0.6609,-0.713,-0.751,-0.7666,-0.7695,-0.7695,-0.7681,-0.7681,-0.7695,-0.7695,-0.7695,-0.7695,-0.7299,-0.6969,-0.6639,-0.6259,-0.5689,-0.5194,-0.555,-0.5799,-0.5644,-0.5589,-0.5677,-0.5763,-0.5814,-0.5687,-0.5636,-0.537,-0.5099,-0.5429,-0.5625,-0.5538,-0.5404,-0.5451,-0.5797,-0.6052,-0.6206,-0.6221,-0.6466,-0.6829,-0.7008,-0.6918,-0.7112,-0.7495,-0.771,-0.7739,-0.771,-0.7695,-0.7885,-0.8033,-0.799,-0.8138,-0.7803,-0.7397,-0.751,-0.7486,-0.7397,-0.7412,-0.7383,-0.7383,-0.7377,-0.7368,-0.7324,-0.7083,-0.679,-0.657,-0.6533,-0.6518,-0.6358,-0.6442,-0.6594,-0.6766,-0.6886,-0.6955,-0.6955,-0.6925,-0.6774,-0.64,-0.6254,-0.6073,-0.584,-0.5606,-0.55,-0.5621,-0.5182,-0.4937,-0.4792,-0.4635,-0.4482,-0.4232,-0.4313,-0.4283,-0.4232,-0.4295,-0.4333,-0.4323,-0.4303,-0.4303,-0.4303,-0.4222,-0.4211,-0.4406,-0.4446,-0.4585,-0.4675,-0.4366,-0.4222,-0.4254,-0.4344,-0.4449,-0.4703,-0.5015,-0.5249,-0.549,-0.5836,-0.6415,-0.6742,-0.7211,-0.7205,-0.6942,-0.7249,-0.7383,-0.7622,-0.7583,-0.7554,-0.7598,-0.7681,-0.7225,-0.685,-0.6715,-0.6275,-0.5578,-0.5011,-0.4398,-0.4531,-0.4435,-0.4509,-0.4773,-0.5058,-0.5418,-0.5434,-0.5356,-0.5266,-0.4983,-0.5162,-0.5444,-0.5388,-0.5309,-0.5309,-0.5372,-0.5632,-0.5734,-0.5797,-0.5859,-0.6114,-0.6198,-0.6259,-0.6564,-0.6933,-0.7324,-0.7695,-0.7695,-0.7695,-0.7695,-0.7739,-0.7695,-0.771,-0.6953,-0.6601,-0.6969,-0.694,-0.6631,-0.6585,-0.6609,-0.67,-0.6639,-0.6639,-0.6648,-0.6548,-0.6495,-0.6419,-0.6336,-0.6206,-0.5944,-0.6336,-0.6275,-0.6229,-0.6336,-0.6518,-0.6548,-0.6507,-0.6361,-0.6032,-0.5753,-0.5521,-0.5308,-0.4923,-0.4967,-0.5119,-0.5003,-0.5102,-0.4985,-0.4691,-0.4308,-0.4083,-0.4078,-0.4097,-0.4055,-0.4109,-0.4232,-0.4252,-0.4273,-0.4293,-0.4264,-0.4037,-0.3994,-0.4181,-0.3976,-0.3945,-0.4109,-0.39,-0.3838,-0.4004,-0.4119,-0.4232,-0.4456,-0.4925,-0.5303,-0.5592,-0.5898,-0.6247,-0.638,-0.648,-0.6259,-0.5874,-0.6328,-0.6889,-0.7166,-0.7344,-0.7299,-0.7324,-0.7338,-0.7098,-0.6925,-0.7103,-0.6579,-0.5641,-0.4995,-0.4542,-0.4161,-0.4269,-0.4253,-0.4504,-0.4766,-0.5124,-0.505,-0.5012,-0.5168,-0.5129,-0.5226,-0.534,-0.534,-0.5309,-0.5309,-0.5309,-0.5451,-0.5467,-0.5435,-0.5522,-0.5656,-0.5625,-0.5765,-0.6068,-0.6336,-0.6663,-0.7032,-0.7495,-0.7695,-0.7695,-0.7695,-0.7695,-0.7695,-0.6714,-0.616,-0.6282,-0.6427,-0.6495,-0.6495,-0.6495,-0.6495,-0.6495,-0.6351,-0.6129,-0.6106,-0.5991,-0.5843,-0.5765,-0.5695,-0.5554,-0.5656,-0.5774,-0.5929,-0.6083,-0.6121,-0.6121,-0.6044,-0.5838,-0.542,-0.5111,-0.4914,-0.4733,-0.4495,-0.4515,-0.4658,-0.4715,-0.4826,-0.4761,-0.4517,-0.4069,-0.3808,-0.3734,-0.3731,-0.372,-0.372,-0.3807,-0.3814,-0.3825,-0.3825,-0.3793,-0.371,-0.3723,-0.3734,-0.3594,-0.3647,-0.372,-0.3573,-0.3605,-0.3748,-0.3853,-0.3999,-0.424,-0.4723,-0.51,-0.5363,-0.5603,-0.5812,-0.5867,-0.5797,-0.5672,-0.5522,-0.557,-0.6191,-0.6503,-0.6805,-0.6969,-0.6978,-0.6904,-0.6775,-0.685,-0.7014,-0.7083,-0.6221,-0.5571,-0.503,-0.4654,-0.4339,-0.4291,-0.4291,-0.4554,-0.4762,-0.4761,-0.4856,-0.5081,-0.5204,-0.5273,-0.5309,-0.5309,-0.5309,-0.5309,-0.5309,-0.5309,-0.5309,-0.5309,-0.5325,-0.5419,-0.5325,-0.5309,-0.5617,-0.5859,-0.6021,-0.642,-0.7017,-0.7436,-0.7695,-0.7695,-0.7666,-0.7695,-0.6348,-0.5848,-0.5841,-0.5956,-0.6137,-0.6145,-0.6145,-0.6145,-0.6129,-0.6006,-0.5719,-0.5703,-0.5585,-0.5356,-0.5325,-0.534,-0.534,-0.5388,-0.5507,-0.5625,-0.5703,-0.5719,-0.5719,-0.5644,-0.5445,-0.4903,-0.4773,-0.4703,-0.4482,-0.4342,-0.4303,-0.4264,-0.4199,-0.4301,-0.4361,-0.4034,-0.3585,-0.3339,-0.3266,-0.3255,-0.3245,-0.3351,-0.3393,-0.3425,-0.3506,-0.3569,-0.358,-0.3559,-0.3548,-0.3559,-0.3517,-0.3517,-0.3517,-0.3506,-0.3506,-0.3522,-0.3612,-0.3788,-0.4136,-0.452,-0.4955,-0.5268,-0.5331,-0.5372,-0.5309,-0.5309,-0.5356,-0.534,-0.5356,-0.5507,-0.5991,-0.6259,-0.651,-0.6533,-0.6503,-0.6427,-0.6579,-0.6745,-0.6978,-0.6844,-0.616,-0.5408,-0.5106,-0.473,-0.4457,-0.4393,-0.4473,-0.4672,-0.4718,-0.489,-0.5203,-0.5273,-0.5302,-0.5309,-0.5309,-0.5309,-0.5309,-0.5309,-0.5309,-0.5309,-0.5309,-0.5309,-0.5309,-0.5309,-0.5309,-0.5309,-0.5451,-0.5663,-0.6122,-0.6641,-0.7032,-0.7442,-0.7515,-0.75,-0.7652,-0.5746,-0.5722,-0.5719,-0.5574,-0.5426,-0.5356,-0.5388,-0.5467,-0.5435,-0.5419,-0.5388,-0.5372,-0.5356,-0.5309,-0.5309,-0.5309,-0.5309,-0.5309,-0.5309,-0.5309,-0.528,-0.5293,-0.5246,-0.5159,-0.4948,-0.4859,-0.4701,-0.4534,-0.4263,-0.4108,-0.4019,-0.3863,-0.3705,-0.3697,-0.3923,-0.3438,-0.3017,-0.2777,-0.2772,-0.2794,-0.2859,-0.3036,-0.31,-0.3153,-0.3266,-0.334,-0.334,-0.3347,-0.3336,-0.334,-0.3383,-0.3383,-0.3372,-0.3357,-0.3379,-0.3442,-0.3742,-0.4037,-0.4375,-0.4649,-0.4895,-0.5217,-0.5309,-0.5309,-0.5309,-0.5309,-0.5309,-0.5309,-0.5309,-0.5522,-0.571,-0.5773,-0.5975,-0.606,-0.6029,-0.606,-0.6206,-0.6442,-0.6678,-0.6633,-0.6221,-0.575,-0.5475,-0.5151,-0.4752,-0.457,-0.4522,-0.457,-0.4666,-0.489,-0.5214,-0.5087,-0.5087,-0.5309,-0.5309,-0.5309,-0.5309,-0.5309,-0.5309,-0.5309,-0.5309,-0.5309,-0.5309,-0.5309,-0.5309,-0.5309,-0.5309,-0.534,-0.5757,-0.6152,-0.673,-0.7103,-0.7216,-0.7359,-0.75,-0.5909,-0.5718,-0.5711,-0.5544,-0.5313,-0.5309,-0.5309,-0.5309,-0.5309,-0.5309,-0.5309,-0.5309,-0.5309,-0.5309,-0.5261,-0.5246,-0.5261,-0.5293,-0.523,-0.4858,-0.4842,-0.4634,-0.4554,-0.4493,-0.4327,-0.4126,-0.4135,-0.4086,-0.3499,-0.3694,-0.3608,-0.3398,-0.3194,-0.3154,-0.3293,-0.3133,-0.2987,-0.2749,-0.2697,-0.2697,-0.2708,-0.2783,-0.2843,-0.2832,-0.2944,-0.3009,-0.3025,-0.3036,-0.3036,-0.3057,-0.3089,-0.31,-0.3025,-0.2961,-0.2977,-0.3192,-0.3516,-0.3867,-0.4111,-0.4346,-0.4616,-0.5014,-0.523,-0.5214,-0.5309,-0.5309,-0.5309,-0.5309,-0.5309,-0.5451,-0.5435,-0.5451,-0.557,-0.5554,-0.5538,-0.5554,-0.5688,-0.6037,-0.6252,-0.5991,-0.5641,-0.5601,-0.5412,-0.5325,-0.5007,-0.4912,-0.4896,-0.4682,-0.4698,-0.489,-0.5135,-0.481,-0.4762,-0.5119,-0.5293,-0.5103,-0.5071,-0.5087,-0.5182,-0.5309,-0.5309,-0.5261,-0.5309,-0.5309,-0.5309,-0.5309,-0.5309,-0.5309,-0.5309,-0.5648,-0.6229,-0.6631,-0.676,-0.7014,-0.7344,-0.6157,-0.5896,-0.5865,-0.5648,-0.5333,-0.5309,-0.5309,-0.5309,-0.5309,-0.5309,-0.5277,-0.5135,-0.5055,-0.5023,-0.4928,-0.4848,-0.4842,-0.4832,-0.4778,-0.4409,-0.4387,-0.4264,-0.4107,-0.3967,-0.4018,-0.3797,-0.3842,-0.3823,-0.3382,-0.3535,-0.3373,-0.3014,-0.2691,-0.2674,-0.2728,-0.2695,-0.2596,-0.2398,-0.2359,-0.2328,-0.2361,-0.2448,-0.2535,-0.2578,-0.2643,-0.2719,-0.2697,-0.2686,-0.2676,-0.2708,-0.274,-0.2773,-0.2665,-0.2665,-0.2705,-0.3016,-0.3353,-0.3703,-0.3977,-0.4071,-0.4355,-0.4682,-0.4832,-0.5007,-0.5214,-0.5309,-0.5309,-0.5309,-0.5246,-0.5277,-0.5246,-0.5261,-0.5261,-0.5261,-0.5309,-0.534,-0.5419,-0.5765,-0.5828,-0.5538,-0.546,-0.5412,-0.5365,-0.5356,-0.5214,-0.5246,-0.5277,-0.4953,-0.465,-0.4826,-0.4969,-0.4746,-0.4554,-0.4826,-0.4896,-0.4688,-0.4704,-0.4832,-0.4912,-0.4992,-0.5166,-0.5103,-0.5198,-0.5309,-0.5293,-0.5293,-0.5309,-0.5309,-0.523,-0.534,-0.5703,-0.6037,-0.6244,-0.6579,-0.6948,-0.6426,-0.6211,-0.6171,-0.5766,-0.5287,-0.5164,-0.5214,-0.5261,-0.523,-0.5214,-0.5198,-0.473,-0.4618,-0.4522,-0.4215,-0.4118,-0.4134,-0.4123,-0.4037,-0.4005,-0.3967,-0.3891,-0.3842,-0.3793,-0.3663,-0.3795,-0.3809,-0.3556,-0.3431,-0.3367,-0.3113,-0.2715,-0.2395,-0.226,-0.2182,-0.2067,-0.2063,-0.2104,-0.2087,-0.2054,-0.2077,-0.2111,-0.2202,-0.227,-0.2378,-0.2487,-0.2513,-0.2524,-0.2546,-0.2578,-0.2611,-0.2632,-0.2665,-0.2767,-0.283,-0.2974,-0.3245,-0.356,-0.3808,-0.3844,-0.3805,-0.3956,-0.3956,-0.4441,-0.4864,-0.5007,-0.4858,-0.4772,-0.466,-0.4947,-0.5144,-0.5144,-0.516,-0.5207,-0.5277,-0.5293,-0.5309,-0.5404,-0.5419,-0.534,-0.534,-0.5325,-0.5293,-0.5284,-0.5071,-0.5055,-0.4938,-0.4628,-0.4419,-0.4602,-0.473,-0.4746,-0.4602,-0.4602,-0.4489,-0.4151,-0.4248,-0.4344,-0.4312,-0.4377,-0.4618,-0.4906,-0.5065,-0.516,-0.5246,-0.5293,-0.5309,-0.5214,-0.5071,-0.5192,-0.5153,-0.55,-0.5727,-0.6052,-0.6344,-0.6008,-0.5805,-0.5278,-0.4849,-0.4519,-0.4416,-0.4538,-0.4768,-0.4527,-0.4377,-0.4382,-0.4231,-0.4167,-0.4134,-0.4058,-0.3977,-0.3972,-0.394,-0.374,-0.3626,-0.3511,-0.3315,-0.3187,-0.3138,-0.3089,-0.3105,-0.3097,-0.3127,-0.297,-0.2955,-0.2703,-0.224,-0.2099,-0.1892,-0.1654,-0.1437,-0.1713,-0.1906,-0.1893,-0.1879,-0.1839,-0.1873,-0.1926,-0.1986,-0.2046,-0.2143,-0.216,-0.2141,-0.2141,-0.2122,-0.2081,-0.207,-0.2077,-0.2104,-0.2173,-0.2556,-0.2871,-0.3185,-0.3382,-0.3233,-0.3122,-0.3171,-0.3138,-0.3569,-0.407,-0.4312,-0.4134,-0.3983,-0.3881,-0.4059,-0.4542,-0.474,-0.4772,-0.4842,-0.4938,-0.5055,-0.5071,-0.5071,-0.5071,-0.5135,-0.5135,-0.5103,-0.5103,-0.4896,-0.4714,-0.4698,-0.457,-0.4258,-0.4108,-0.4253,-0.4226,-0.4242,-0.4226,-0.4081,-0.3772,-0.345,-0.3663,-0.3826,-0.3793,-0.3826,-0.4032,-0.4355,-0.4766,-0.5011,-0.5081,-0.5198,-0.5309,-0.5017,-0.4387,-0.4377,-0.4393,-0.4826,-0.5239,-0.5578,-0.5812,-0.5547,-0.5332,-0.4911,-0.4501,-0.4174,-0.3863,-0.3886,-0.4048,-0.4037,-0.3993,-0.3972,-0.3805,-0.3723,-0.3695,-0.3548,-0.345,-0.3434,-0.3389,-0.327,-0.3134,-0.3064,-0.2953,-0.2762,-0.2679,-0.2746,-0.2679,-0.2679,-0.2788,-0.2613,-0.2447,-0.2222,-0.2048,-0.1878,-0.1573,-0.1367,-0.1314,-0.144,-0.1598,-0.168,-0.1718,-0.1696,-0.1616,-0.157,-0.1699,-0.1712,-0.1753,-0.1841,-0.1837,-0.1872,-0.1884,-0.1872,-0.1921,-0.1985,-0.2066,-0.219,-0.2554,-0.2702,-0.2911,-0.3024,-0.2891,-0.2746,-0.263,-0.255,-0.2825,-0.3175,-0.345,-0.322,-0.3039,-0.2973,-0.3068,-0.3719,-0.4253,-0.4307,-0.4366,-0.4543,-0.4736,-0.4752,-0.4752,-0.4794,-0.4858,-0.4858,-0.4826,-0.4698,-0.4473,-0.4344,-0.4334,-0.4215,-0.3951,-0.3767,-0.3746,-0.3572,-0.3413,-0.3429,-0.3385,-0.3105,-0.2973,-0.3155,-0.3303,-0.3274,-0.3319,-0.3499,-0.3642,-0.3914,-0.4398,-0.489,-0.4938,-0.4928,-0.4081,-0.3478,-0.3569,-0.3798,-0.4248,-0.473,-0.5176,-0.5334,-0.5087,-0.4862,-0.4782,-0.4433,-0.4062,-0.3487,-0.3261,-0.3311,-0.3663,-0.388,-0.3765,-0.3446,-0.3261,-0.3233,-0.3039,-0.2878,-0.2895,-0.2895,-0.2928,-0.2679,-0.2643,-0.258,-0.258,-0.2613,-0.2411,-0.251,-0.246,-0.2211,-0.2344,-0.2145,-0.1895,-0.1895,-0.149,-0.1156,-0.0985,-0.0964,-0.1046,-0.1203,-0.1118,-0.1046,-0.1335,-0.1244,-0.109,-0.1449,-0.1544,-0.1589,-0.1791,-0.189,-0.194,-0.1915,-0.1953,-0.1992,-0.2174,-0.2116,-0.231,-0.2556,-0.2603,-0.2669,-0.2752,-0.2729,-0.2646,-0.2483,-0.2273,-0.2289,-0.2493,-0.2898,-0.2795,-0.2746,-0.2779,-0.2986,-0.3543,-0.388,-0.4004,-0.4088,-0.4233,-0.4334,-0.4355,-0.4366,-0.4409,-0.4355,-0.4081,-0.4064,-0.4027,-0.3805,-0.3902,-0.3923,-0.3749,-0.3516,-0.3429,-0.3327,-0.3147,-0.2858,-0.294,-0.3006,-0.2895,-0.2795,-0.2746,-0.2795,-0.2832,-0.2928,-0.3155,-0.3122,-0.3027,-0.3626,-0.4226,-0.4393,-0.4269,-0.3532,-0.3056,-0.3039,-0.3323,-0.3716,-0.4156,-0.4522,-0.4666,-0.4497,-0.444,-0.3806,-0.3471,-0.3332,-0.2991,-0.2849,-0.2861,-0.2944,-0.3047,-0.2994,-0.2907,-0.2858,-0.2841,-0.2729,-0.263,-0.2646,-0.2513,-0.2663,-0.248,-0.2328,-0.2178,-0.2147,-0.2061,-0.1926,-0.164,-0.1507,-0.159,-0.169,-0.1557,-0.1308,-0.1075,-0.0839,-0.0722,0.0,0.0,-0.0552,-0.0769,-0.0586,-0.0633,-0.1022,-0.106,-0.1005,-0.1081,-0.1108,-0.1153,-0.134,-0.1537,-0.1404,-0.1268,-0.1564,-0.183,-0.2169,-0.1723,-0.192,-0.2426,-0.2294,-0.2364,-0.248,-0.2497,-0.2403,-0.2236,-0.1994,-0.1816,-0.194,-0.2393,-0.2633,-0.2636,-0.272,-0.2948,-0.324,-0.348,-0.3682,-0.3786,-0.3884,-0.3913,-0.3937,-0.395,-0.3988,-0.3712,-0.3368,-0.3286,-0.3282,-0.3327,-0.3425,-0.3331,-0.3093,-0.2928,-0.2957,-0.2924,-0.2953,-0.2762,-0.2746,-0.2762,-0.2679,-0.2679,-0.2679,-0.2679,-0.2746,-0.2812,-0.2858,-0.2858,-0.2878,-0.3126,-0.3499,-0.3712,-0.3728,-0.3303,-0.2924,-0.2812,-0.2845,-0.3241,-0.3224,-0.3462,-0.3642,-0.3989,-0.397,-0.344,-0.3142,-0.3077,-0.294,-0.2822,-0.269,-0.2543,-0.2449,-0.2433,-0.258,-0.2679,-0.2613,-0.2497,-0.238,-0.2344,-0.2145,-0.2026,-0.1926,-0.1892,-0.174,-0.1625,-0.151,-0.1475,-0.1223,-0.1174,-0.1224,-0.1204,-0.1072,-0.089,-0.0656,-0.0538,0.0,0.0,0.0,0.0,-0.0353,0.0,0.0,0.0,0.0,0.0,-0.07,-0.0806,-0.0842,-0.1038,-0.1266,-0.1179,-0.1108,-0.1331,-0.149,-0.1664,-0.1468,-0.1295,-0.1442,-0.154,-0.1809,-0.2026,-0.2095,-0.1998,-0.1789,-0.1489,-0.1222,-0.1324,-0.1746,-0.2006,-0.2029,-0.1945,-0.2144,-0.2763,-0.31,-0.3221,-0.3324,-0.3333,-0.3353,-0.3307,-0.327,-0.3286,-0.3204,-0.2973,-0.294,-0.294,-0.2957,-0.3039,-0.3023,-0.2746,-0.265,-0.263,-0.251,-0.256,-0.2646,-0.263,-0.2663,-0.2679,-0.2679,-0.2679,-0.2679,-0.2679,-0.2729,-0.2762,-0.2729,-0.2762,-0.2944,-0.3076,-0.3171,-0.3089,-0.2907,-0.2828,-0.2746,-0.2712,-0.2762,-0.2679,-0.2679,-0.2961,-0.3619,-0.358,-0.337,-0.3175,-0.304,-0.2985,-0.2772,-0.2477,-0.2204,-0.2025,-0.1948,-0.2301,-0.2497,-0.2377,-0.2145,-0.2011,-0.1859,-0.169,-0.1471,-0.1388,-0.129,-0.1256,-0.1124,-0.0958,-0.0905,-0.0938,-0.0922,-0.0938,-0.0954,-0.0738,-0.0555,-0.0504,0.0,0.0,0.0,0.0,0.0,0.0,0.0,0.0,0.0,0.0,0.0,-0.0484,-0.0619,-0.0734,-0.0882,-0.1023,-0.1023,-0.0941,-0.0931,-0.1007,-0.1046,-0.0953,-0.0678,-0.0637,-0.0989,-0.1223,-0.1406,-0.1488,-0.1363,-0.1176,-0.0854,-0.0767,-0.0911,0.0,0.0,0.0,0.0,0.0,0.0,-0.2605,-0.2711,-0.2876,-0.2884,-0.2915,-0.2822,-0.2763,-0.2762,-0.2742,-0.261,-0.2563,-0.2613,-0.263,-0.2547,-0.2547,-0.2563,-0.2547,-0.2447,-0.2208,-0.2106,-0.2328,-0.2477,-0.2547,-0.2663,-0.2613,-0.2596,-0.2679,-0.2679,-0.2679,-0.2679,-0.2679,-0.2679,-0.2696,-0.2812,-0.2907,-0.2878,-0.2762,-0.2696,-0.263,-0.2679,-0.2679,-0.2679,-0.2679,-0.2679,-0.36,-0.359,-0.3394,-0.3018,-0.2631,-0.2443,-0.2084,-0.1628,-0.1524,-0.1454,-0.1456,-0.1474,-0.1555,-0.1559,-0.1505,-0.144,-0.1423,-0.1221,-0.1288,-0.1305,-0.0922,-0.0839,-0.0723,-0.0504,-0.0285,0.0,0.0,0.0,0.0,0.0,0.0,0.0,0.0,0.0,0.0,0.0,0.0,0.0,0.0,0.0,0.0,0.0,0.0,-0.0118,-0.0134,-0.0167,-0.0281,-0.0595,-0.0495,-0.0348,0.0,0.0,0.0,0.0,0.0,-0.0218,-0.0554,-0.0821,-0.1004,-0.1088,-0.1,-0.0815,-0.0576,-0.0488,0.0,0.0,0.0,0.0,0.0,0.0,0.0,0.0,-0.21,-0.2461,-0.2625,-0.268,-0.2685,-0.2703,-0.2712,-0.2427,-0.2106,-0.2175,-0.2308,-0.2142,-0.1776,-0.1807,-0.1857,-0.184,-0.1823,-0.1721,-0.1638,-0.1923,-0.2208,-0.253,-0.2679,-0.2494,-0.246,-0.258,-0.2646,-0.2563,-0.2563,-0.2679,-0.2663,-0.2427,-0.258,-0.2762,-0.2696,-0.2679,-0.2547,-0.2513,-0.263,-0.2679,-0.2646,-0.2543,-0.2411]},{"header":{"parameterUnit":"m.s-1","parameterCategory":1,"la1":31.0,"la2":29.5877,"lo1":-88.7671,"lo2":-86.6584,"dy":0.0162,"dx":0.0185,"nx":115,"ny":88,"refTime":"2026-05-11T00:00:00:Z","depth":0,"parameterNumber":3,"parameterNumberName":"V-component_of_WINDS"},"data":[0.0,0.0,0.0,0.0,0.0,0.0,0.0,0.0,0.0,0.0,0.0,0.0,0.0,0.0,0.0,0.0,0.0,0.0,0.0,0.0,0.0,0.0,0.0,0.0,0.0,0.0,0.0,0.0,0.0,0.0,0.0,0.0,0.0,0.0,0.0,0.0,0.0,0.0,0.0,0.0,0.0,0.0,0.0,0.0,0.0,0.0,0.0,0.0,0.0,0.0,0.0,0.0,0.0,0.0,0.0,0.0,0.0,0.0,0.0,0.0,0.0,0.0,0.0,0.0,0.0,0.0,0.0,0.0,0.0,0.0,0.0,0.0,0.0,0.0,0.0,0.0,0.0,0.0,0.0,0.0,0.0,0.0,0.0,0.0,0.0,0.0,0.0,0.0,0.0,0.0,0.0,0.0,0.0,0.0,0.0,0.0,0.0,0.0,0.0,0.0,0.0,0.0,0.0,0.0,0.0,0.0,0.0,0.0,0.0,0.0,0.0,0.0,0.0,0.0,0.0,0.0,0.0,0.0,0.0,0.0,0.0,0.0,0.0,0.0,0.0,0.0,0.0,0.0,0.0,0.0,0.0,0.0,0.0,0.0,0.0,0.0,0.0,0.0,0.0,0.0,0.0,0.0,0.0,0.0,0.0,0.0,0.0,0.0,0.0,0.0,0.0,0.0,0.0,0.0,0.0,0.0,0.0,0.0,0.0,0.0,0.0,0.0,0.0,0.0,0.0,0.0,0.0,0.0,0.0,0.0,0.0,0.0,0.0,0.0,0.0,0.0,0.0,0.0,0.0,0.0,0.0,0.0,0.0,0.0,0.0,0.0,0.0,0.0,0.0,0.0,0.0,0.0,0.0,0.0,0.0,0.0,0.0,0.0,0.0,0.0,0.0,0.0,0.0,0.0,0.0,0.0,0.0,0.0,0.0,0.0,0.0,0.0,0.0,0.0,0.0,0.0,0.0,0.0,0.0,0.0,0.0,0.0,0.0,0.0,0.0,0.0,0.0,0.0,0.0,0.0,0.0,0.0,0.0,0.0,0.0,0.0,0.0,0.0,0.0,0.0,0.0,0.0,0.0,0.0,0.0,0.0,0.0,0.0,0.0,0.0,0.0,0.0,0.0,0.0,0.0,0.0,0.0,0.0,0.0,0.0,0.0,0.0,0.0,0.0,0.0,0.0,0.0,0.0,0.0,0.0,0.0,0.0,0.0,0.0,0.0,0.0,0.0,0.0,0.0,0.0,0.0,0.0,0.0,0.0,0.0,0.0,0.0,0.0,0.0,0.0,0.0,0.0,0.0,0.0,0.0,0.0,0.0,0.0,0.0,0.0,0.0,0.0,0.0,0.0,0.0,0.0,0.0,0.0,0.0,0.0,0.0,0.0,0.0,0.0,0.0,0.0,0.0,0.0,0.0,0.0,0.0,0.0,0.0,0.0,0.0,0.0,0.0,0.0,0.0,0.0,0.0,0.0,0.0,0.0,0.0,0.0,0.0,0.0,0.0,0.0,0.0,0.0,0.0,0.0,0.0,0.0,0.0,0.0,0.0,0.0,0.0,0.0,0.0,0.0,0.0,0.0,0.0,0.0,0.0,0.0,0.0,0.0,0.0,0.0,0.0,0.0,0.0,0.0,0.0,0.0,0.0,0.0,0.0,0.0,0.0,0.0,0.0,0.0,0.0,0.0,0.0,0.0,0.0,0.0,0.0,0.0,0.0,0.0,0.0,0.0,0.0,0.0,0.0,0.0,0.0,0.0,0.0,0.0,0.0,0.0,0.0,0.0,0.0,0.0,0.0,0.0,0.0,0.0,0.0,0.0,0.0,0.0,0.0,0.0,0.0,0.0,0.0,0.0,0.0,0.0,0.0,0.0,0.0,0.0,0.0,0.0,0.0,0.0,0.0,0.0,0.0,0.0,0.0,0.0,0.0,0.0,0.0,0.0,0.0,0.0,0.0,0.0,0.0,0.0,0.0,0.0,0.0,0.0,0.0,0.0,0.0,0.0,0.0,0.0,0.0,0.0,0.0,0.0,0.0,0.0,0.0,0.0,0.0,0.0,0.0,0.0,0.0,0.0,0.0,0.0,0.0,0.0,0.0,0.0,0.0,0.0,0.0,0.0,0.0,0.0,0.0,0.0,0.0,0.0,0.0,0.0,0.0,0.0,0.0,0.0,0.0,0.0,0.0,0.0,0.0,0.0,0.0,0.0,0.0,0.0,0.0,0.0,0.0,0.0,0.0,0.0,0.0,0.0,0.0,0.0,0.0,0.0,0.0,0.0,0.0,0.0,0.0,0.0,0.0,0.0,0.0,0.0,0.0,0.0,0.0,0.0,0.0,0.0,0.0,0.0,0.0,0.0,0.0,0.0,0.0,0.0,0.0,0.0,0.0,0.0,0.0,0.0,0.0,0.0,0.0,0.0,0.0,0.0,0.0,0.0,0.0,0.0,0.0,0.0,0.0,0.0,0.0,0.0,0.0,0.0,0.0,0.0,0.0,0.0,0.0,0.0,0.0,0.0,0.0,0.0,0.0,0.0,0.0,0.0,0.0,0.0,0.0,0.0,0.0,0.0,0.0,0.0,0.0,0.0,0.0,0.0,0.0,0.0,0.0,0.0,0.0,0.0,0.0,0.0,0.0,0.0,0.0,0.0,0.0,0.0,0.0,0.0,0.0,0.0,0.0,0.0,0.0,0.0,0.0,0.0,0.0,0.0,0.0,0.0,0.0,0.0,0.0,0.0,0.0,0.0,0.0,0.0,0.0,0.0,0.0,0.0,0.0,0.0,0.0,0.0,0.0,0.0,0.0,0.0,0.0,0.0,0.0,0.0,0.0,0.0,0.0,0.0,0.0,0.0,0.0,0.0,0.0,0.0,0.0,0.0,0.0,0.0,0.0,0.0,0.0,0.0,0.0,0.0,0.0,0.0,0.0,0.0,0.0,0.0,0.0,0.0,0.0,0.0,0.0,0.0,0.0,0.0,0.0,0.0,0.0,0.0,0.0,0.0,0.0,0.0,0.0,0.0,0.0,0.0,0.0,0.0,0.0,0.0,0.0,0.0,0.0,0.0,0.0,0.0,0.0,0.0,0.0,0.0,0.0,0.0,0.0,0.0,0.0,0.0,0.0,0.0,0.0,0.0,0.0,0.0,0.0,0.0,0.0,0.0,0.0,0.0,0.0,0.0,0.0,0.0,0.0,0.0,0.0,0.0,0.0,0.0,0.0,0.0,0.0,0.0,0.0,0.0,0.0,0.0,0.0,0.0,0.0,0.0,0.0,0.0,0.0,0.0,0.0,0.0,0.0,0.0,0.0,0.0,0.0,0.0,0.0,0.0,0.0,0.0,0.0,0.0,0.0,0.0,0.0,0.0,0.0,0.0,0.0,0.0,0.0,0.0,0.0,0.0,0.0,0.0,0.0,0.0,0.0,0.0,0.0,0.0,0.0,0.0,0.0,0.0,0.0,0.0,0.0,0.0,0.0,0.0,0.0,0.0,0.0,0.0,0.0,0.0,0.0,0.0,0.0,0.0,0.0,0.0,0.0,0.0,0.0,0.0,0.0,0.0,0.0,0.0,0.0,0.0,0.0,0.0,0.0,0.0,0.0,0.0,0.0,0.0,0.0,0.0,0.0,0.0,0.0,0.0,0.0,0.0,0.0,0.0,0.0,0.0,0.0,0.0,0.0,0.0,0.0,0.0,0.0,0.0,0.0,0.0,0.0,0.0,0.0,0.0,0.0,0.0,0.0,0.0,0.0,0.0,0.0,0.0,0.0,0.0,0.0,0.0,0.0,0.0,0.0,0.0,0.0,0.0,0.0,0.0,0.0,0.0,0.0,0.0,0.0,0.0,0.0,0.0,0.0,0.0,0.0,0.0,0.0,0.0,0.0,0.0,0.0,0.0,0.0,0.0,0.0,0.0,0.0,0.0,0.0,0.0,0.0,0.0,0.0,0.0,0.0,0.0,0.0,0.0,0.0,0.0,0.0,0.0,0.0,0.0,0.0,0.0,0.0,0.0,0.0,0.0,0.0,0.0,0.0,0.0,0.0,0.0,0.0,0.0,0.0,0.0,0.0,0.0,0.0,0.0,0.0,0.0,0.0,0.0,0.0,0.0,0.0,0.0,0.0,0.0,0.0,0.0,0.0,0.0,0.0,0.0,0.0,0.0,0.0,0.0,0.0,0.0,0.0,0.0,0.0,0.0,0.0,0.0,0.0,0.0,0.0,0.0,0.0,0.0,0.0,0.0,0.0,0.0,0.0,0.0,0.0,0.0,0.0,0.0,0.3786,0.0,0.0,0.0,0.0,0.0,0.0,0.0,0.0,0.0,0.0,0.0,0.0,0.0,0.0,0.0,0.0,0.0,0.0,0.0,0.0,0.0,0.0,0.0,0.0,0.0,0.0,0.0,0.0,0.0,0.0,0.0,0.0,0.0,0.0,0.0,0.0,0.0,0.0,0.0,0.0,0.0,0.0,0.0,0.0,0.0,0.0,0.0,0.0,0.0,0.0,0.0,0.0,0.0,0.0,0.0,0.0,0.0,0.0,0.0,0.0,0.0,0.0,0.0,0.0,0.0,0.0,0.0,0.0,0.0,0.0,0.0,0.0,0.0,0.0,0.0,0.0,0.0,0.0,0.0,0.0,0.0,0.0,0.0,0.0,0.0,0.0,0.0,0.0,0.0,0.0,0.0,0.0,0.0,0.0,0.0,0.0,0.0,0.0,0.0,0.0,0.0,0.0,0.0,0.0,0.0,0.0,0.0,0.0,0.0,0.0,0.2698,0.2969,0.3029,0.3156,0.3386,0.0,0.0,0.0,0.0,0.0,0.0,0.0,0.0,0.0,0.0,0.0,0.0,0.0,0.0,0.0,0.0,0.0,0.0,0.0,0.0,0.0,0.0,0.0,0.0,0.0,0.0,0.0,0.0,0.0,0.0,0.0,0.0,0.0,0.0,0.0,0.0,0.0,0.0,0.0,0.0,0.0,0.0,0.0,0.0,0.0,0.0,0.0,0.0,0.0,0.0,0.0,0.0,0.0,0.0,0.0,0.0,0.0,0.0,0.0,0.0,0.0,0.0,0.0,0.0,0.0,0.0,0.0,0.0,0.0,0.0,0.0,0.0,0.0,0.0,0.0,0.0,0.0,0.0,0.0,0.0,0.0,0.0,0.0,0.0,0.0,0.0,0.0,0.0,0.0,0.0,0.0,0.0,0.0,0.0,0.0,0.0,0.0,0.0,0.0,0.0,0.0,0.0,0.0,0.0,0.0,0.0,0.0,0.0,0.0,0.0,0.0,0.0,0.2387,0.2817,0.3101,0.0,0.0,0.0,0.0,0.0,0.0,0.0,0.0,0.0,0.0,0.0,0.0,0.0,0.0,0.0,0.0,0.0,0.0,0.0,0.0,0.0,0.0,0.0,0.0,0.0,0.0,0.0,0.0,0.0,0.0,0.0,0.0,0.0,0.0,0.0,0.0,0.0,0.0,0.0,0.0,0.0,0.0,0.0,0.0,0.0,0.0,0.0,0.0,0.0,0.0,0.0,0.0,0.0,0.0,0.0,0.0,0.0,0.0,0.0,0.0,0.0,0.0,0.0,0.0,0.0,0.0,0.0,0.0,0.0,0.0,0.0,0.0,0.0,0.0,0.0,0.0,0.0,0.0,0.0,0.0,0.0,0.0,0.0,0.0,0.0,0.0,0.0,0.0,0.0,0.0,0.0,0.0,0.0,0.0,0.0,0.0,0.0,0.0,0.0,0.0,0.0,0.0,0.0,0.0,0.0,0.0,0.0,0.0,0.0,0.0,0.0566,0.0577,0.1946,0.0,0.3078,0.0,0.0,0.0,0.0,0.0,0.0,0.0,0.0,0.0,0.0,0.0,0.0,0.0,0.0,0.0,0.0,0.0,0.0,0.0,0.0,0.0,0.0,0.0,0.0,0.0,0.0,0.0,0.0,0.0,0.0,0.0,0.0,0.0,0.0,0.0,0.0,0.0,0.0,0.0,0.0,0.0,0.0,0.0,0.0,0.0,0.0,0.0,0.0,0.0,0.0,0.0,0.0,0.0,0.0,0.0,0.0,0.0,0.0,0.0,0.0,0.0,0.0,0.0,0.0,0.0,0.0,0.0,0.0,0.0,0.0,0.0,0.0,0.0,0.0,0.0,0.0,0.0,0.0,0.0,0.0,0.0,0.0,0.0,0.0,0.0,0.0,0.0,0.0,0.0,0.0,0.0,0.0,0.0,0.0,0.0,0.0,0.0,0.0,0.0,0.0,0.0,0.0,0.0,0.0,0.0,0.0,0.0,0.0,0.0,0.0,-0.03,-0.0358,0.0936,0.1707,0.0,0.0,0.0,0.0,0.0,0.0,0.0,0.0,0.0,0.0,0.0,0.0,0.0,0.0,0.0,0.0,0.0,0.0,0.0,0.0,0.0,0.0,0.0,0.0,0.0,0.0,0.0,0.0,0.0,0.0,0.0,0.0,0.0,0.0,0.0,0.0,0.0,0.0,0.0,0.0,0.0,0.0,0.0,0.0,0.0,0.0,0.0,0.0,0.0,0.0,0.0,0.0,0.0,0.0,0.0,0.0,0.0,0.0,0.0,0.0,0.0,0.0,0.0,0.0,0.0,0.0,0.0,0.0,0.0,0.0,0.0,0.0,0.0,0.0,0.0,0.0,0.0,0.0,0.0,0.0,0.0,0.0,0.0,0.0,0.0,0.0,0.0,0.0,0.0,0.0,0.0,0.0,0.0,0.0,0.0,0.0,0.0,0.0,0.0,0.0,0.0,0.0,0.0,0.0,0.0,0.0,0.0,0.0,0.0,0.0,-0.114,0.0,-0.0727,0.0233,0.0851,0.1033,0.0,0.0,0.0,0.0,0.0,0.0,0.0,0.0,0.0,0.0,0.0,0.0,0.0,0.0,0.0,0.0,0.0,0.0,0.0,0.0,0.0,0.0,0.0,0.0,0.0,0.0,0.0,0.0,0.0,0.0,0.0,0.0,0.0,0.0,0.0,0.0,0.0,0.0,0.0,0.0,0.0,0.0,0.0,0.0,0.0,0.0,0.0,0.0,0.0,0.0,0.0,0.0,0.0,0.0,0.0,0.0,0.0,0.0,0.0,0.0,0.0,0.0,0.0,0.0,0.0,0.0,0.0,0.0,0.0,0.0,0.0,0.0,0.0,0.0,0.0,0.0,0.0,0.0,0.0,0.0,0.0,0.0,0.0,0.0,0.0,0.0,0.0,0.0,0.0,0.0,0.0,0.0,0.0,0.0,0.0,0.0,0.0,0.0,0.0,0.0,0.0,0.0,0.0,0.0,0.0,0.0,0.0,0.0,0.0,-0.2047,-0.1321,-0.0475,0.0116,0.058,0.0,0.0,0.0,0.0,0.0,0.0,0.0,0.0,0.0,0.0,0.0,0.0,0.0,0.0,0.0,0.0,0.0,0.0,0.0,0.0,0.0,0.0,0.0,0.0,0.0,0.0,0.0,0.0,0.0,0.0,0.0,0.0,0.0,0.0,0.0,0.0,0.0,0.0,0.0,0.0,0.0,0.0,0.0,0.0,0.0,0.0,0.0,0.0,0.0,0.0,0.0,0.0,0.0,0.0,0.0,0.0,0.0,0.0,0.0,0.0,0.0,0.0,0.0,0.0,0.0,0.0,0.0,0.0,0.0,0.0,0.0,0.0,0.0,0.0,0.0,0.0,0.0,0.0,0.0,0.0,0.0,0.0,0.0,0.0,0.0,0.0,0.0,0.0,0.0,0.0,0.0,0.0,0.0,0.0,0.0,0.0,0.0,0.0,0.0,0.0,0.0,0.0,0.0,0.0,0.0,0.0,0.0,0.0,0.0,-0.2106,-0.191,-0.1602,-0.1165,-0.0697,-0.0389,0.0,0.0,0.0,0.0,0.0,0.0,0.0,0.0,0.0,0.0,0.0,0.0,0.0,0.0,0.0,0.0,0.0,0.0,0.0,0.0,0.0,0.0,0.0,0.0,0.0,0.0,0.0,0.0,0.0,0.0,0.0,0.0,0.0,0.0,0.0,0.0,0.0,0.0,0.0,0.0,0.0,0.0,0.0,0.0,0.0,0.0,0.0,0.0,0.0,0.0,0.0,0.0,0.0,0.0,0.0,0.0,0.0,0.0,0.0,0.0,0.0,0.0,0.0,0.0,0.0,0.0,0.0,0.0,0.0,0.0,0.0,0.0,0.0,0.0,0.0,0.0,0.0,0.0,0.0,0.0,0.0,0.0,0.0,0.0,0.0,0.0,0.0,0.0,0.0,0.0,0.0,0.0,0.0,0.0,0.0,0.0,0.0,0.0,0.0,0.0,0.0,0.0,0.0,0.0,0.0,0.0,0.0,0.0,0.0,-0.1928,0.0,-0.2128,0.0,-0.1458,-0.1143,0.0,0.0,0.0,0.0,0.0,0.0,0.0,0.0,0.0,0.0,0.0,0.0,0.0,0.0,0.0,0.0,0.0,0.0,0.0,0.0,0.0,0.0,0.0,0.0,0.0,0.0,0.0,0.0,0.0,0.0,0.0,0.0,0.0,0.0,0.0,0.0,0.0,0.0,0.0,0.0,0.0,0.0,0.0,0.0,0.0,0.0,0.0,0.0,0.0,0.0,0.0,0.0,0.0,0.0,0.0,0.0,0.0,0.0,0.0,0.0,0.0,0.0,0.0,0.0,0.0,0.0,0.0,0.0,0.0,0.0,0.0,0.0,0.0,0.0,0.0,0.0,0.0,0.0,0.0,0.0,0.0,0.0,0.0,0.0,0.0,0.0,0.0,0.0,0.0,0.0,0.0,0.0,0.0,0.0,0.0,0.0,0.0,0.0,0.0,0.0,0.0,0.0,0.0,0.0,0.0,0.0,0.0,0.0,-0.1594,-0.2158,-0.2697,-0.2823,-0.2686,-0.2051,-0.1614,0.0,0.0,0.0,0.0,0.0,0.0,0.0,0.0,0.0,0.0,0.0,0.0,0.0,0.0,0.0,0.0,0.0,0.0,0.0,0.0,0.0,0.0,0.0,0.0,0.0,0.0,0.0,0.0,0.0,0.0,0.0,0.0,0.0,0.0,0.0,0.0,0.0,0.0,0.0,0.0,0.0,0.0,0.0,0.0,0.0,0.0,0.0,0.0,0.0,0.0,0.0,0.0,0.0,0.0,0.0,0.0,0.0,0.0,0.0,0.0,0.0,0.0,0.0,0.0,0.0,0.0,0.0,0.0,0.0,0.0,0.0,0.0,0.0,0.0,0.0,0.0,0.0,0.0,0.0,0.0,0.0,0.0,0.0,0.0,0.0,0.0,0.0,0.0,0.0,0.0,0.0,0.0,0.0,0.0,0.0,0.0,0.0,0.0,0.0,0.0,0.0,0.0,0.0,0.0,0.0,0.0,0.0,0.0,0.0,-0.0964,-0.1138,-0.1553,-0.2156,-0.1551,-0.152,0.0,0.0,0.0,0.0,0.0,0.0,0.0,0.0,0.0,0.0,0.0,0.0,0.0,0.0,0.0,0.0,0.0,0.0,0.0,0.0,0.0,0.0,0.0,0.0,0.0,0.0,0.0,0.0,0.0,0.0,0.0,0.0,0.0,0.0,0.0,0.0,0.0,0.0,0.0,0.0,0.0,0.0,0.0,0.0,0.0,0.0,0.0,0.0,0.0,0.0,0.0,0.0,0.0,0.0,0.0,0.0,0.0,0.0,0.0,0.0,0.0,0.0,0.0,0.0,0.0,0.0,0.0,0.0,0.0,0.0,0.0,0.0,0.0,0.0,0.0,0.0,0.0,0.0,0.0,0.0,0.0,0.0,0.0,0.0,0.0,0.0,0.0,0.0,0.0,0.0,0.0,0.0,0.0,0.0,0.0,0.0,0.0,0.0,0.0,0.0,0.0,0.0,0.0,0.0,0.0,0.0,0.0,0.0,0.0,-0.1095,-0.097,-0.1293,-0.2049,-0.1579,-0.1688,-0.2457,0.0,0.0,0.0,0.0,0.0,0.0,0.0,0.0,0.0,0.0,0.0,0.0,0.0,0.0,0.0,0.0,0.0,0.0,0.0,0.0,0.0,0.0,0.0,0.0,0.0,0.0,0.0,0.0,0.0,0.0,0.0,0.0,0.0,0.0,0.0,0.0,0.0,0.0,0.0,0.0,0.0,0.0,0.0,0.0,0.0,0.0,0.0,0.0,0.0,0.0,0.0,0.0,0.0,0.0,0.0,0.0,0.0,0.0,0.0,0.0,0.0,0.0,0.0,0.0,0.0,0.0,0.0,0.0,0.0,0.0,0.0,0.0,0.0,0.0,0.0,0.0,0.0,0.0,0.0,0.0,0.0,0.0,0.0,0.0,0.0,0.0,0.0,0.0,0.0,0.0,0.0,0.0,0.0,0.0,0.0,0.0,0.0,0.0,0.0,0.0,0.0,0.0,0.0,0.0,0.0,0.0,0.0,0.0,-0.2229,-0.1988,-0.1999,-0.2267,-0.2116,-0.2093,0.0,0.0,0.0,0.0,0.0,0.0,0.0,0.0,0.0,0.0,0.0,0.0,0.0,0.0,0.0,0.0,0.0,0.0,0.0,0.0,0.0,0.0,0.0,0.0,0.0,0.0,0.0,0.0,0.0,0.0,0.0,0.0,0.0,0.0,0.0,0.0,0.0,0.0,0.0,0.0,0.0,0.0,0.0,0.0,0.0,0.0,0.0,0.0,0.0,0.0,0.0,0.0,0.0,0.0,0.0,0.0,0.0,0.0,0.0,0.0,0.0,0.0,0.0,0.0,0.0,0.0,0.0,0.0,0.0,0.0,0.0,0.0,0.0,0.0,0.0,0.0,0.0,0.0,0.0,0.0,0.0,0.0,0.0,0.0,0.0,0.0,0.0,0.0,0.0,0.0,0.0,0.0,0.0,0.0,0.0,0.0,0.0,0.0,0.0,0.0,0.0,0.0,0.0,0.0,0.0,0.0,0.0,0.0,0.0,-0.2569,-0.2487,-0.2651,-0.3058,-0.2612,-0.2493,0.0,0.0,0.0,0.0,0.0,0.0,0.0,0.0,0.0,0.0,0.0,0.0,0.0,0.0,0.0,0.0,0.0,0.0,0.0,0.0,0.0,0.0,0.0,0.0,0.0,0.0,0.0,0.0,0.0,0.0,0.0,0.0,0.0,0.0,0.0,0.0,0.0,0.0,0.0,0.0,0.0,0.0,0.0,0.0,0.0,0.0,0.0,0.0,0.0,0.0,0.0,0.0,0.0,0.0,0.0,0.0,0.0,0.0,0.0,0.0,0.0,0.0,0.0,0.0,0.0,0.0,0.0,0.0,0.0,0.0,0.0,0.0,0.0,0.0,0.0,0.0,0.0,0.0,0.0,0.0,0.0,0.0,0.0,0.0,0.0,0.0,0.0,0.0,0.0,0.0,0.0,0.0,0.0,0.0,0.0,0.0,0.0,0.0,0.0,0.0,0.0,0.0,0.0,0.0,0.0,0.0,0.0,0.0,-0.3331,-0.3542,-0.3611,-0.3749,-0.3963,-0.318,-0.2819,0.0,0.0,0.0,0.0,0.0,0.0,0.0,0.0,0.0,0.0,0.0,0.0,0.0,0.0,0.0,0.0,0.0,0.0,0.0,0.0,0.0,0.0,0.0,0.0,0.0,0.0,0.0,0.0,0.0,0.0,0.0,0.0,0.0,0.0,0.0,0.0,0.0,0.0,0.0,0.0,0.0,0.0,0.0,0.0,0.0,0.0,0.0,0.0,0.0,0.0,0.0,0.0,0.0,0.0,0.0,0.0,0.0,0.0,0.0,0.0,0.0,0.0,0.0,0.0,0.0,0.0,0.0,0.0,0.0,0.0,0.0,0.0,0.0,0.0,0.0,0.0,0.0,0.0,0.0,0.0,0.0,0.0,0.0,0.0,0.0,0.0,0.0,0.0,0.0,0.0,0.0,0.0,0.0,0.0,0.0,0.0,0.0,0.0,0.0,0.0,0.0,0.0,0.0,0.0,0.0,0.0,0.0,0.0,-0.4243,-0.4685,-0.4847,-0.4867,-0.4714,-0.3736,-0.315,0.0,0.0,0.0,0.0,0.0,0.0,0.0,0.0,0.0,0.0,0.0,0.0,0.0,0.0,0.0,0.0,0.0,0.0,0.0,0.0,0.0,0.0,0.0,0.0,0.0,0.0,0.0,0.0,0.0,0.0,0.0,0.0,0.0,0.0,0.0,0.0,0.0,0.0,0.0,0.0,0.0,0.0,0.0,0.0,0.0,0.0,0.0,0.0,0.0,0.0,0.0,0.0,0.0,0.0,0.0,0.0,0.0,0.0,0.0,0.0,0.0,0.0,0.0,0.0,0.0,0.0,0.0,0.0,0.0,0.0,0.0,0.0,0.0,0.0,0.0,0.0,0.0,0.0,0.0,0.0,0.0,0.0,0.0,0.0,0.0,0.0,0.0,0.0,0.0,0.0,0.0,0.0,0.0,0.0,0.0,0.0,0.0,0.0,0.0,0.0,0.0,0.0,0.0,0.0,0.0,0.0,0.0,0.0,-0.4274,-0.4539,-0.4887,-0.4985,-0.4844,-0.4186,-0.3441,0.0,0.0,0.0,0.0,0.0,0.0,0.0,0.0,0.0,0.0,0.0,0.0,0.0,0.0,0.0,0.0,0.0,0.0,0.0,0.0,0.0,0.0,0.0,0.0,0.0,0.0,0.0,0.0,0.0,0.0,0.0,0.0,0.0,0.0,0.0,0.0,0.0,0.0,0.0,0.0,0.0,0.0,0.0,0.0,0.0,0.0,0.0,0.0,0.2557,0.0,0.0,0.0,0.0,0.0,0.0,0.0,0.0,0.0,0.0,0.0,0.0,0.0,0.0,0.0,0.0,0.0,0.0,0.0,0.0,0.0,0.0,0.0,0.0,0.0,0.0,0.0,0.0,0.0,0.0,0.0,0.0,0.0,0.0,0.0,0.0,0.0,0.0,0.0,0.0,0.0,0.0,0.0,0.0,0.0,0.0,0.0,0.0,0.0,0.0,0.0,0.0,0.0,0.0,0.0,0.0,0.0,0.0,0.0,-0.4324,-0.4597,-0.4802,-0.4887,-0.4766,-0.4001,-0.3307,0.0,0.0,0.0,0.0,0.0,0.0,0.0,0.0,0.0,0.0,0.0,0.0,0.0,0.0,0.0,0.0,0.0,0.0,0.0,0.0,0.0,0.0,0.0,0.0,0.0,0.0,0.0,0.0,0.0,0.0,0.0,0.0,0.0,0.0,0.0,0.0,0.0,0.0,0.0,0.0,0.0,0.0,0.0,0.0,0.0,0.0,0.0,0.0,0.0,0.0,0.0,0.0,0.0,0.0,0.0,0.0,0.0,0.0,0.0,0.0,0.0,0.0,0.0,0.0,0.0,0.0,0.0,0.0,0.0,0.0,0.0,0.0,0.0,0.0,0.0,0.0,0.0,0.0,0.0,0.0,0.0,0.0,0.0,0.0,0.0,0.0,0.0,0.0,0.0,0.0,0.0,0.0,0.0,0.0,0.0,0.0,0.0,0.0,0.0,0.0,0.0,0.0,0.0,0.0,0.0,0.0,0.0,-0.3892,-0.4341,-0.4677,-0.4694,-0.4709,-0.465,-0.3632,-0.2997,-0.2766,0.0,0.0,0.0,0.0,0.0,0.0,0.0,0.0,0.0,0.0,0.0,0.0,0.0,0.0,0.0,0.0,0.0,0.0,0.0,0.0,0.0,0.0,0.0,0.0,0.0,0.0,0.0,0.0,0.0,0.0,0.0,0.0,0.0,0.0,0.0,0.0,0.0,0.0,0.1135,0.1326,0.0,0.0,0.0,0.0,0.0,0.0,0.0,0.0,0.1129,0.0,0.0,0.0,0.0,0.0,0.0,0.0,0.0,0.0,0.0,0.0,0.0,0.0,0.0,0.0,0.0,0.0,0.0,0.0,0.0,0.0,0.0,0.0,0.0,0.0,0.0,0.0,0.0,0.0,0.0,0.0,0.0,0.0,0.0,0.0,0.0,0.0,0.0,0.0,0.0,0.0,0.0,0.0,0.0,0.0,0.0,0.0,0.0,0.0,0.0,0.0,0.0,0.0,0.0,0.0,0.0,-0.3707,-0.392,-0.426,-0.4677,-0.4694,-0.4658,-0.4525,-0.3611,-0.2794,-0.2164,0.0,0.0,0.0,0.0,0.0,0.0,0.0,0.0,0.0,0.0,0.0,0.0,0.0,0.0,0.0,0.0,0.0,0.0,0.0,0.0,0.0,0.0,0.0,0.0,0.0,0.0,0.0,0.0,0.0,0.0,0.0,0.0,0.0,0.0,0.0,0.0,0.0,0.0,0.0,0.0074,0.0157,0.0,0.0,0.0,0.0,0.0,0.0,0.0,0.0,0.0288,0.0,0.0,0.0,0.0,0.0,0.0,0.0,0.0,0.0,0.0,0.0,0.0,0.0,0.0,0.0,0.0,0.0,0.0,0.0,0.0,0.0,0.0,0.0,0.0,0.0,0.0,0.0,0.0,0.0,0.0,0.0,0.0,0.0,0.0,0.0,0.0,0.0,0.0,0.0,0.0,0.0,0.0,0.0,0.0,0.0,0.0,0.0,0.0,0.0,0.0,0.0,0.0,0.0,0.0,0.0,-0.3649,-0.3514,-0.3591,-0.3928,-0.3599,-0.3373,-0.3282,-0.249,-0.1895,0.0,0.0,0.0,0.0,0.0,0.0,0.0,0.0,0.0,0.0,0.0,0.0,0.0,0.0,0.0,0.0,0.0,0.0,0.0,0.0,0.0,0.0,0.0,0.0,0.0,0.0,0.0,0.0,0.0,0.0,0.0,0.0,0.0,0.0,0.0,0.0,0.0,0.0,0.0,0.0,-0.079,-0.0859,-0.0434,0.0,0.0,0.0,0.0,0.0,0.0,-0.0072,0.0027,0.0,0.0,0.0,0.0,0.0,0.0,0.0,0.0,0.0,0.0,0.0,0.0,0.0,0.0,0.0,0.0,0.0,0.0,0.0,0.0,0.0,0.0,0.0,0.0,0.0,0.0,0.0,0.0,0.0,0.0,0.0,0.0,0.0,0.0,0.0,0.0,0.0,0.0,0.0,0.0,0.0,0.0,0.0,0.0,0.0,0.0,0.0,0.0,0.0,0.0,0.0,0.0,0.0,0.0,0.0,-0.3561,-0.3119,-0.302,-0.3274,-0.2575,-0.2199,-0.2148,-0.1494,-0.1088,0.0,0.0,0.0,0.0,0.0,0.0,0.0,0.0,0.0,0.0,0.0,0.0,0.0,0.0,0.0,0.0,0.0,0.0,0.0,0.0,0.0,0.0,0.0,0.0,0.0,0.0,0.0,0.0,0.0,0.0,0.0,0.0,0.0,0.0,0.0,0.0,0.0,0.0,0.0,0.0,0.0,-0.1955,-0.1573,-0.1132,0.0,0.0,0.0,0.0,-0.0356,-0.0648,0.0,0.0,0.0,0.0,0.0,0.0,0.0,0.0,0.0,0.0,0.0,0.0,0.0,0.0,0.0,0.0,0.0,0.0,0.0,0.0,0.0,0.0,0.0,0.0,0.0,0.0,0.0,0.0,0.0,0.0,0.0,0.0,0.0,0.0,0.0,0.0,0.0,0.0,0.0,0.0,0.0,0.0,0.0,0.0,0.0,0.0,0.0,0.0,0.0,0.0,0.0,0.0,0.0,0.0,0.0,0.0,-0.3554,-0.3034,-0.2943,-0.3322,-0.2626,-0.2148,-0.2024,-0.1427,-0.1036,0.0,0.0,0.0,0.0,0.0,0.0,0.0,0.0,0.0,0.0,0.0,0.0,0.0,0.0,0.0,0.0,0.0,0.0,0.0,0.0,0.0,0.0,0.0,0.0,0.0,0.0,0.0,0.0,0.0,0.0,0.0,0.0,0.0,0.0,0.0,0.0,0.0,0.0,0.0,0.0,0.0,-0.3645,-0.2973,-0.2621,-0.2306,0.0,0.0,0.0371,-0.1356,-0.1636,0.0,0.0,0.0,0.0,0.0,0.0,0.0,0.0,0.0,0.0,0.0,0.0,0.0,0.0,0.0,0.0,0.0,0.0,0.0,0.0,0.0,0.0,0.0,0.0,0.0,0.0,0.0,0.0,0.0,0.0,0.0,0.0,0.0,0.0,0.0,0.0,0.0,0.0,0.0,0.0,0.0,0.0,0.0,0.0,0.0,0.0,0.0,0.0,0.0,0.0,0.0,0.0,0.0,0.0,0.0,-0.2401,-0.2922,-0.2115,-0.1801,-0.2054,-0.1363,-0.0932,-0.0857,-0.0618,-0.0452,0.0,0.0,0.0,0.0,0.0,0.0,0.0,0.0,0.0,0.0,0.0,0.0,0.0,0.0,0.0,0.0,0.0,0.0,0.0,0.0,0.0,0.0,0.0,0.0,0.0,0.0,0.0,0.0,0.0,0.0,0.0,0.0,0.0,0.0,0.0,0.0,0.0,0.0,0.0,0.0,0.0,0.0,-0.3749,-0.3328,0.0,0.0,0.0,-0.0919,-0.1685,0.0,0.0,0.0,0.0,0.0,0.0,0.0,0.0,0.0,0.0,0.0,0.0,0.0,0.0,0.0,0.0,0.0,0.0,0.0,0.0,0.0,0.0,0.0,0.0,0.0,0.0,0.0,0.0,0.0,0.0,0.0,0.0,0.0,0.0,0.0,0.0,0.0,0.0,0.0,0.0,0.0,0.0,0.0,0.0,0.0,0.0,0.0,0.0,0.0,0.0,0.0,0.0,0.0,0.0,0.0,0.0,0.0,-0.2301,-0.1377,-0.097,-0.1074,-0.0377,0.0,0.0,0.0,0.0,0.0,0.0,0.0,0.0,0.0,0.0,0.0,0.0,0.0,0.0,0.0,0.0,0.0,0.0,0.0,0.0,0.0,0.0,0.0,0.0,0.0,0.0,0.0,0.0,0.0,0.0,0.0107,0.0,0.0,0.0,0.0,0.0,0.0,0.0,0.0,0.0,0.0,0.0,0.0,0.0,0.0,-0.4436,-0.452,-0.4204,-0.4027,0.0,0.0,-0.219,-0.2393,-0.2701,-0.2431,0.0,0.0,0.0,0.0,0.0,0.0,0.0,0.0,0.0,0.0,0.0,0.0,0.0,0.0,0.0,0.0,0.0,0.0,0.0,0.0,0.0,0.0,0.0,0.0,0.0,0.0,0.0,0.0,0.0,0.0,0.0,0.0,0.0,0.0,0.0,0.0,0.0,0.0,0.0,0.0,0.0,0.0,0.0,0.0,0.0,0.0,0.0,0.0,0.0,0.0,0.0,0.0,0.0,0.0,0.0,-0.1816,-0.1235,-0.0959,-0.1063,-0.0381,0.0,0.0,0.0,0.0,0.0,0.0,0.0,0.0,0.0,0.0,0.0,0.0,0.0,0.0,0.0,0.0,0.0,0.0,0.0,0.0,0.0,0.0,0.0,0.0,0.0,0.0,0.0,0.0,0.0,0.0,0.0,0.0,0.0,0.0,0.0,0.0,0.0,0.0,0.0,0.0,0.0,0.0,0.0,0.0,0.0,-0.5542,-0.5443,-0.5595,-0.5783,0.0,0.0,-0.3246,-0.3939,-0.3754,-0.307,-0.1736,0.0,0.0,0.0,0.0,0.0,0.0,0.0,0.0,0.0,0.0,0.0,0.0,0.0,0.0,0.0,0.0,0.0,0.0,0.0,0.0,0.0,0.0,0.0,0.0,0.0,0.0,0.0,0.0,0.0,0.0,0.0,0.0,0.0,0.0,0.0,0.0,0.0,0.0,0.0,0.0,0.0,0.0,0.0,0.0,0.0,0.0,0.0,0.0,0.0,0.0,0.0,0.0,0.0,-0.0867,-0.1115,-0.0611,-0.0366,-0.0415,-0.015,0.0,0.0,0.0281,0.045,0.0,0.0,0.0,0.0,0.0,0.0,0.0,0.0,0.0,0.0,0.0,0.0,0.0,0.0,0.0,0.0,0.0,0.0,0.0,0.0,0.0,0.0,0.0,0.0,0.0,0.0,0.0,0.0,0.0,0.0,0.0,0.0,0.0,0.0,0.0,0.0,0.0,0.0,0.0,0.0,0.0,-0.5626,-0.5724,-0.5839,0.0,0.0,-0.5074,-0.4285,-0.4485,-0.3996,-0.3206,-0.2093,-0.1404,0.0,0.0,0.0,0.0,0.0,0.0,0.0,0.0,0.0,0.0,0.0,0.0,0.0,0.0,0.0,0.0,0.0,0.0,0.0,0.0,0.0,0.0,0.0,0.0,0.0,0.0,0.0,0.0,0.0,0.0,0.0,0.0,0.0,0.0,0.0,0.0,0.0,0.0,0.0,0.0,0.0,0.0,0.0,0.0,0.0,0.0,0.0,0.0,0.0,0.0,0.0,0.0,-0.0197,-0.0223,0.0087,0.0351,0.0538,0.0535,0.0536,0.0538,0.0819,0.0969,0.0,0.0,0.0,0.0,0.0,0.0,0.0,0.0,0.0,0.0,0.0,0.0,0.0,0.0,0.0,0.0,0.0,0.0,0.0,0.0,0.0,0.0,0.0,0.0,0.0,0.0,0.0,0.0,0.0,0.0,0.0,0.0,0.0,0.0,0.0,0.0,0.0,0.0,0.0,0.0,0.0,-0.5464,-0.5795,-0.5789,-0.5817,-0.6155,-0.5812,-0.5336,-0.4773,-0.4078,-0.3315,-0.2492,0.0,0.0,0.0,0.0,0.0,0.0,0.0,0.0,0.0,0.0,0.0,0.0,0.0,0.0,0.0,0.0,0.0,0.0,0.0,0.0,0.0,0.0,0.0,0.0,0.0,0.0,0.0,0.0,0.0,0.0,0.1285,0.0,0.0,0.0,0.0,0.0,0.0,0.0,0.0,0.0,0.0,0.0,0.0,0.0,0.0,0.0,0.0,0.0,0.0,0.0,0.0,0.0,0.0,0.0535,0.0856,0.0856,0.1141,0.1722,0.1745,0.1723,0.1719,0.1644,0.1589,0.1579,0.0,0.0,0.0,0.0,0.0,0.0,0.0,0.0,0.0,0.0,0.0,0.0,0.0,0.0,0.0,0.0,0.0,0.0,0.0,0.0,0.0,0.0,0.0,0.0,0.0,0.0,0.0068,0.0,0.0,0.0,0.0,0.0,0.0,0.0,0.0,0.0,0.0,0.0,0.0,-0.4719,-0.5096,-0.5636,-0.5502,-0.5535,-0.6093,-0.6586,-0.6404,-0.4944,-0.4071,-0.3464,0.0,0.0,0.0,0.0,0.0,0.0,0.0,0.0,0.0,0.0,0.0,0.0,0.0,0.0,0.0,0.0,0.0,0.0,0.0,0.0,0.0,0.0,0.0,0.0,0.0,0.0,0.0,0.237,0.198,0.0,0.0,0.0,0.0,0.0,0.0,0.0,0.0,0.0,0.0,0.0,0.1638,0.1638,0.0,0.0,0.0,0.0,0.0,0.0,0.0,0.0,0.0,0.0,0.0,0.0,0.1029,0.1336,0.1353,0.1459,0.165,0.1675,0.1607,0.1474,0.1733,0.1964,0.2185,0.0,0.0,0.0,0.0,0.0,0.0,0.0,0.0,0.0,0.0,0.0,0.0,0.0,0.0,0.0,0.0,0.0,0.0,0.0,0.0,0.0,0.0,0.0,0.0,0.0,0.0661,0.0,0.0,0.0,0.0,0.0,0.0,0.0,0.0,0.0,0.0,0.0,-0.3433,-0.3814,-0.4454,-0.5025,-0.5387,-0.5364,-0.5367,0.0,0.0,0.0,0.0,0.0,0.0,0.0,0.0,0.0,0.0,0.0,0.0,0.0,0.0,-0.091,-0.0625,-0.0727,-0.0858,-0.0857,0.0,0.0,0.0,0.0,0.0,0.0,0.0,0.0,0.0,0.0,0.0,0.0,0.0,0.0,0.3398,0.0,0.2987,0.0,0.0,0.0,0.0,0.0,0.0,0.0,0.0,0.3011,0.3008,0.2869,0.2869,0.2863,0.0,0.2368,0.1927,0.0,0.0,0.0,0.0,0.0,0.0,0.0,0.0,0.1457,0.1787,0.1819,0.1913,0.2125,0.2129,0.2076,0.1935,0.2178,0.2378,0.2493,0.2297,0.2015,0.0,0.0,0.0,0.0,0.0,0.0,0.0,0.0,0.0,0.0,0.0,0.0,0.0,0.0,0.0,0.0,0.0,0.0,0.0,0.0,0.0,0.0,0.0,0.0425,0.0,0.0,0.0,0.0,0.0,0.0,0.0,0.0,0.0,-0.255,-0.2832,-0.2931,-0.2982,-0.3473,-0.4033,-0.4604,0.0,0.0,0.0,0.0,0.0,0.0,0.0,-0.2857,-0.2424,-0.2236,-0.2083,-0.208,-0.1934,-0.1657,-0.1239,0.0,0.0,-0.166,-0.1438,-0.1292,-0.1718,-0.2087,-0.2268,-0.2144,-0.3033,-0.3632,0.0,0.0,0.0,0.0,0.0,0.0,0.0,0.0,0.4661,0.462,0.0,0.4433,0.0,0.0,0.0,0.0,0.0,0.4283,0.0,0.0,0.4892,0.5041,0.4896,0.4857,0.4885,0.4842,0.3709,0.3155,0.3082,0.1967,0.0,0.0,0.0,0.0,0.0,0.0,0.1856,0.2249,0.2285,0.2542,0.3107,0.3133,0.3126,0.3116,0.3008,0.2829,0.2587,0.2533,0.2311,0.1855,0.1803,0.0,0.0,0.0,0.0,0.0,0.0,0.0,0.0,0.0,0.0,0.0,0.0,0.0,0.0,0.0,0.0,0.0,0.0,0.0,0.0,0.0359,0.0,0.0,0.0,0.0,0.0,0.0,0.0,0.0,0.0,0.0,-0.2344,-0.2341,-0.2083,-0.1831,0.0,0.0,0.0,0.0,-0.307,-0.4168,-0.3943,-0.36,-0.3556,-0.3483,-0.2668,-0.0421,0.0,0.0,-0.298,-0.2766,-0.2211,-0.111,-0.0437,-0.0552,-0.2219,-0.1696,-0.1394,-0.2411,-0.2236,-0.2065,-0.2579,-0.3065,-0.349,0.6131,0.0,0.0,0.0,0.0,0.6464,0.6471,0.5952,0.5958,0.5539,0.4827,0.4781,0.0,0.0,0.0,0.0,0.0,0.0,0.4902,0.4952,0.5073,0.5122,0.5204,0.5199,0.5183,0.5152,0.4727,0.4389,0.4162,0.3731,0.2892,0.1699,0.0,0.0,0.0,0.0,0.3195,0.321,0.3473,0.3712,0.3877,0.3881,0.3854,0.3758,0.3716,0.3646,0.3559,0.3071,0.2727,0.2595,0.2083,0.0,0.0,0.0,0.0,0.0,0.0,0.0,0.0,0.0,0.0,0.0,0.0,0.0,0.0,0.0,0.0,0.0,0.0,0.0,0.0555,0.0376,0.0209,0.0,0.0,0.0,0.0,0.0,0.0,0.0,0.0,0.0,-0.0717,-0.1366,-0.168,0.0,0.0,-0.2073,-0.2827,-0.2428,-0.2339,-0.3092,-0.3413,0.0,0.0,-0.1588,-0.0801,-0.0109,-0.1225,-0.2019,-0.157,-0.1619,-0.154,-0.0974,-0.042,-0.0185,-0.067,-0.1597,-0.222,-0.2613,-0.255,-0.2495,-0.2679,-0.2821,-0.2653,0.7759,0.6434,0.6775,0.6958,0.7107,0.7701,0.7735,0.7368,0.7368,0.701,0.6395,0.6415,0.6224,0.5906,0.6325,0.0,0.0,0.0,0.6091,0.6212,0.6212,0.6236,0.6325,0.6325,0.6204,0.5963,0.5595,0.5272,0.4955,0.4585,0.3837,0.272,0.0,0.0,0.3111,0.356,0.378,0.3762,0.3993,0.4112,0.4129,0.4129,0.4025,0.3815,0.3805,0.3749,0.3645,0.3218,0.2887,0.2707,0.2216,0.1909,0.0,0.0,0.0,0.0,0.0,0.0,0.0,0.0,0.0,0.0,0.0,0.1125,0.0,0.0,0.0,0.0,0.0994,0.0957,0.0705,0.0727,0.0,0.0,0.0,0.0,0.0,0.0,0.0,0.0349,0.015,0.0,0.0,-0.056,-0.0915,-0.0737,-0.0939,-0.1319,-0.1895,0.0,-0.1652,-0.2251,-0.2655,-0.2635,-0.1919,-0.0784,-0.009,-0.0427,-0.0285,-0.06,-0.1208,-0.0753,-0.0247,-0.0034,0.0268,0.0419,0.0067,-0.0904,-0.1773,-0.2075,-0.2142,-0.2139,-0.215,-0.2139,-0.1858,0.9195,0.8778,0.8225,0.8113,0.8305,0.8343,0.8518,0.8756,0.8756,0.8716,0.8695,0.8695,0.8553,0.8269,0.7989,0.0,0.7552,0.752,0.7648,0.7953,0.7953,0.7961,0.7974,0.7953,0.7662,0.7064,0.6389,0.589,0.5547,0.4877,0.4393,0.4107,0.3981,0.3956,0.3984,0.394,0.3966,0.4053,0.4091,0.4107,0.4107,0.4086,0.392,0.3615,0.359,0.3456,0.3213,0.3175,0.2947,0.2515,0.2288,0.2063,0.1802,0.0,0.0,0.0,0.0,0.0,0.0,0.0,0.0,0.0,0.0,0.0,0.0,0.0,0.0,0.0,0.1194,0.0,0.1123,0.1248,0.0,0.0,0.0,0.166,0.1342,0.0885,0.0677,0.0798,0.0,0.0,0.0,0.0,0.0,0.0,0.0,-0.0224,-0.0828,-0.0873,-0.1051,-0.163,-0.1674,-0.1652,-0.1518,-0.0537,0.0045,-0.0447,0.0602,0.0888,-0.0772,-0.0041,0.1172,0.1364,0.1405,0.1138,0.0285,0.0034,-0.0218,-0.0953,-0.1013,-0.1051,-0.1216,-0.1143,-0.1011,1.029,0.9903,0.9763,0.9504,0.9236,0.9636,0.9613,0.9319,0.9328,0.9079,0.8695,0.8695,0.8887,0.9158,0.8697,0.8678,0.8972,0.8563,0.8423,0.8521,0.85,0.8492,0.8521,0.8513,0.8254,0.7772,0.754,0.6962,0.6128,0.5894,0.5507,0.5011,0.4969,0.4623,0.4037,0.4623,0.4796,0.4452,0.4816,0.4992,0.4985,0.4753,0.4578,0.4474,0.429,0.4153,0.4091,0.3639,0.3358,0.3218,0.2377,0.1859,0.1803,0.1721,0.0,0.0,0.0,0.0,0.0,0.0,0.0,0.0,0.0,0.1404,0.1133,0.0,0.1534,0.0,0.167,0.1789,0.1309,0.152,0.0,0.0,0.1606,0.1668,0.1344,0.1022,0.0677,0.024,0.0083,0.0,0.0,0.0,0.0,0.0,0.0,-0.0224,-0.0806,-0.0494,-0.0426,-0.0939,-0.0739,-0.0449,-0.0359,0.0581,0.1407,0.1541,0.1719,0.1582,0.1024,0.11,0.1536,0.2182,0.2361,0.2006,0.1156,0.0486,0.0268,0.0571,0.0872,0.0707,-0.0345,-0.0019,0.0575,1.0664,1.0322,1.0322,1.0118,0.9883,1.0186,1.0127,0.9863,0.9863,0.9686,0.9419,0.9428,0.9578,0.9843,0.9558,0.9448,0.9478,0.9179,0.9059,0.9059,0.905,0.9059,0.905,0.8847,0.8398,0.774,0.7699,0.7193,0.6355,0.6434,0.6273,0.5851,0.5843,0.5602,0.5134,0.5239,0.5166,0.4928,0.5166,0.528,0.5244,0.5078,0.4857,0.4622,0.4596,0.445,0.4188,0.3859,0.3612,0.3482,0.2891,0.2448,0.2226,0.2431,0.2344,0.0,0.0,0.0,0.0,0.0,0.0,0.0,0.0,0.0,0.0,0.0,0.2288,0.2153,0.2309,0.2253,0.1879,0.2044,0.2126,0.1938,0.2092,0.212,0.1951,0.1412,0.0941,0.0626,0.0468,0.0292,0.0067,0.0471,0.0739,0.0561,0.0695,0.0493,-0.0269,-0.0179,-0.0135,-0.0426,-0.0225,0.0224,0.0694,0.181,0.2479,0.221,0.239,0.2457,0.1917,0.2107,0.2433,0.2647,0.2679,0.2563,0.2006,0.1571,0.1423,0.1913,0.2249,0.1899,0.0771,0.0972,0.1481,1.0664,1.0303,1.0322,1.0322,1.0322,1.0322,1.0322,1.0322,1.0322,1.0322,1.0322,1.0322,1.0322,1.0322,1.0322,1.004,0.9617,0.9597,0.9597,0.9597,0.9543,0.9524,0.9486,0.9057,0.8378,0.7545,0.7519,0.7119,0.6424,0.6737,0.677,0.6511,0.6495,0.6495,0.6464,0.5812,0.5444,0.5467,0.5401,0.5349,0.529,0.5188,0.4934,0.4478,0.4644,0.4499,0.3988,0.3952,0.3841,0.3619,0.3535,0.3309,0.2912,0.3345,0.3361,0.0,0.2516,0.0,0.0,0.0,0.0,0.0,0.0,0.0,0.0,0.3002,0.314,0.3298,0.2936,0.2658,0.2597,0.2666,0.2679,0.2679,0.2679,0.2719,0.27,0.194,0.1387,0.1311,0.1124,0.0828,0.065,0.1297,0.1654,0.1432,0.1542,0.134,0.0493,0.0292,0.0269,0.0157,0.0045,0.0449,0.1763,0.2904,0.3239,0.2477,0.299,0.3284,0.2275,0.2898,0.3378,0.2856,0.2679,0.2679,0.2679,0.2646,0.2713,0.2901,0.2876,0.2517,0.1798,0.1736,0.1939,1.0654,1.0322,1.0322,1.0322,1.0322,1.0322,1.0322,1.0322,1.0322,1.0322,1.0322,1.0322,1.0322,1.0322,1.0322,1.0264,1.0157,1.0147,1.0166,1.0128,0.9762,0.958,0.9561,0.9158,0.8698,0.8213,0.8111,0.7668,0.6954,0.6908,0.677,0.6503,0.6495,0.6495,0.648,0.0,0.0,0.0,0.5967,0.5771,0.574,0.5192,0.4842,0.4729,0.4503,0.0,0.4232,0.4232,0.4203,0.4142,0.3734,0.0,0.0,0.0,0.0,0.0,0.0,0.0,0.0,0.0,0.0,0.0,0.3375,0.313,0.2934,0.3212,0.3545,0.3861,0.3183,0.2831,0.3099,0.2873,0.2679,0.2679,0.2696,0.2744,0.2817,0.236,0.1855,0.1351,0.1484,0.1988,0.2682,0.2322,0.1919,0.2101,0.1966,0.1741,0.1496,0.1407,0.1252,0.0827,0.0381,0.0874,0.2929,0.342,0.3685,0.3844,0.4037,0.3957,0.3439,0.3398,0.3395,0.2815,0.2679,0.2679,0.2679,0.2679,0.27,0.2774,0.238,0.1991,0.1805,0.2177,0.2673,1.0498,0.0,1.0563,1.0649,0.0,1.0649,1.0649,1.0611,1.04,1.0322,1.0322,1.0322,1.0322,1.0322,1.0322,1.0322,1.0322,1.0322,1.0322,1.0293,1.0059,0.9825,0.9601,0.9182,0.868,0.8124,0.8003,0.766,0.7121,0.7235,0.7219,0.7083,0.7098,0.7092,0.7107,0.7092,0.6889,0.6495,0.6291,0.6205,0.6178,0.5591,0.5228,0.5105,0.0,0.0,0.0,0.0,0.0,0.0,0.0,0.0,0.0,0.0,0.0,0.431,0.4043,0.3889,0.3886,0.3759,0.3794,0.4068,0.4126,0.4042,0.3787,0.4167,0.4482,0.4658,0.4256,0.3886,0.3658,0.3266,0.2986,0.299,0.2808,0.2744,0.2821,0.2484,0.2202,0.2206,0.22,0.2608,0.349,0.3129,0.2635,0.2566,0.2632,0.2566,0.2275,0.1984,0.1652,0.1385,0.1118,0.1521,0.3154,0.36,0.3796,0.4238,0.4387,0.4413,0.4465,0.4443,0.4103,0.3,0.2679,0.2679,0.2679,0.2679,0.256,0.2117,0.1763,0.1395,0.1132,0.1444,0.1978,1.0341,1.0467,1.084,1.1057,1.1151,1.1057,1.0989,1.0962,0.0,0.0,0.0,1.0322,1.0322,1.0322,1.0322,1.0341,1.0409,1.0322,1.0341,1.0409,1.0263,0.9941,0.9494,0.9075,0.8507,0.7802,0.7726,0.7539,0.7231,0.7554,0.7695,0.7695,0.7695,0.7695,0.7695,0.7695,0.733,0.6644,0.6606,0.6562,0.6484,0.6041,0.5666,0.5371,0.5191,0.5001,0.4784,0.4765,0.4774,0.4774,0.4565,0.4515,0.4684,0.4961,0.4981,0.4704,0.4535,0.4456,0.4436,0.4404,0.4422,0.4475,0.4808,0.4957,0.4819,0.5105,0.5309,0.5309,0.5309,0.5001,0.4296,0.3723,0.3421,0.3409,0.3039,0.2866,0.3014,0.2646,0.2592,0.3053,0.2974,0.3034,0.3512,0.3578,0.3442,0.3034,0.3239,0.3442,0.2921,0.2364,0.2075,0.2142,0.2142,0.2499,0.3328,0.3884,0.4078,0.4543,0.4696,0.4887,0.5281,0.5518,0.4827,0.3043,0.275,0.2699,0.2679,0.2679,0.2377,0.1471,0.1019,0.0703,0.0242,0.0138,0.0372,1.0525,1.0924,1.0981,1.1282,1.1645,1.1188,1.0989,1.0962,1.0495,1.0322,1.0322,1.0322,1.0322,1.0322,1.0322,1.0505,1.0867,1.0486,1.0525,1.0847,1.0069,0.9484,0.9082,0.8672,0.8217,0.7743,0.7686,0.7666,0.7627,0.7666,0.7695,0.7695,0.7695,0.7695,0.7695,0.7695,0.7477,0.7033,0.7028,0.6808,0.6418,0.6015,0.56,0.5175,0.5117,0.5078,0.5049,0.503,0.5049,0.5049,0.502,0.4991,0.5039,0.5078,0.5078,0.504,0.4991,0.4991,0.4981,0.4765,0.4812,0.5208,0.5553,0.56,0.5248,0.5266,0.5309,0.5309,0.5309,0.5246,0.5071,0.4361,0.3891,0.3858,0.3478,0.3343,0.3605,0.325,0.3093,0.3441,0.35,0.3458,0.3578,0.3619,0.3612,0.3508,0.3685,0.3597,0.3483,0.2965,0.2854,0.3217,0.3353,0.342,0.3751,0.4465,0.4935,0.5173,0.5551,0.576,0.5835,0.6182,0.5597,0.3383,0.2819,0.2693,0.2679,0.2679,0.2225,0.1336,0.015,-0.0708,-0.0635,-0.1389,-0.199,1.081,1.1075,1.1586,1.1963,1.2156,1.1909,1.1653,1.1442,1.1217,1.1124,1.1067,1.081,1.0687,1.0668,1.0409,1.0553,1.0981,1.0772,1.0973,1.1353,1.0687,1.0006,0.9376,0.8931,0.8369,0.7725,0.7695,0.7695,0.7695,0.7695,0.7695,0.7695,0.7695,0.7695,0.7676,0.7486,0.7267,0.7109,0.7113,0.6862,0.6394,0.6007,0.5694,0.5479,0.5254,0.5098,0.5098,0.5098,0.5098,0.5098,0.5098,0.5098,0.5098,0.5262,0.5291,0.5117,0.5233,0.5272,0.5098,0.4981,0.5111,0.5589,0.5749,0.5888,0.5952,0.5554,0.5309,0.5309,0.5309,0.5309,0.53,0.4714,0.4312,0.4318,0.3935,0.3783,0.3967,0.3843,0.3695,0.3612,0.3666,0.3692,0.3602,0.3785,0.4007,0.416,0.436,0.4508,0.45,0.4278,0.3928,0.3689,0.36,0.3884,0.4395,0.4918,0.5321,0.5491,0.574,0.6068,0.6289,0.6416,0.5161,0.3378,0.2751,0.269,0.2679,0.2679,0.1921,0.0183,-0.0635,-0.1266,-0.1733,-0.2693,-0.3365,1.1263,1.1431,1.2162,1.2508,1.2526,1.2615,1.2389,1.1993,1.2066,1.212,1.2029,1.1468,1.1177,1.1151,1.0802,1.0886,1.1282,1.1244,1.1449,1.1854,1.1274,1.0563,0.9835,0.9346,0.8654,0.7925,0.7831,0.7797,0.771,0.7695,0.7739,0.7827,0.7904,0.7951,0.7927,0.7514,0.7256,0.7152,0.7026,0.6756,0.627,0.6026,0.5861,0.571,0.5432,0.5262,0.5185,0.5195,0.5185,0.5195,0.5195,0.5204,0.5291,0.5472,0.55,0.5319,0.5358,0.532,0.5137,0.5098,0.5341,0.5884,0.5932,0.6162,0.6633,0.6191,0.5663,0.5388,0.5309,0.5309,0.5261,0.4985,0.4762,0.473,0.4377,0.4196,0.4319,0.4289,0.4109,0.3829,0.3886,0.3881,0.3808,0.4008,0.4307,0.458,0.4964,0.5174,0.5129,0.5093,0.4702,0.4281,0.3974,0.4388,0.5302,0.5511,0.5543,0.5647,0.5742,0.5927,0.6167,0.5636,0.4668,0.3212,0.2727,0.2699,0.2679,0.246,0.1401,-0.0567,-0.1634,-0.2247,-0.2987,-0.3735,-0.4476,1.1963,1.2336,1.2478,1.2508,1.2579,1.2943,1.2873,1.2514,1.2873,1.3077,1.2925,1.2138,1.1737,1.1719,1.1664,1.1872,1.2246,1.192,1.1963,1.2265,1.1369,1.0664,1.0198,0.9693,0.9042,0.8329,0.8233,0.8048,0.7768,0.7725,0.7889,0.8237,0.854,0.8679,0.8637,0.8154,0.7704,0.7289,0.6793,0.6329,0.5906,0.6061,0.5962,0.5546,0.5711,0.5717,0.5482,0.5464,0.5464,0.5464,0.5454,0.5576,0.5773,0.5689,0.5659,0.5771,0.5396,0.5108,0.5098,0.5098,0.5477,0.6241,0.6324,0.6687,0.7449,0.748,0.6846,0.5773,0.5356,0.5372,0.5309,0.5277,0.5239,0.5214,0.4874,0.4613,0.4757,0.4447,0.422,0.4342,0.4352,0.4266,0.4262,0.4419,0.45,0.4709,0.4954,0.5055,0.4832,0.4777,0.488,0.5039,0.5131,0.5365,0.5885,0.6102,0.5826,0.5508,0.5801,0.5757,0.5316,0.4977,0.4473,0.3203,0.2774,0.2699,0.251,0.2023,0.0851,-0.1016,-0.2478,-0.3735,-0.4317,-0.4724,-0.5269,1.233,1.2514,1.2791,1.2908,1.296,1.3129,1.3094,1.2943,1.3099,1.321,1.3163,1.2791,1.2461,1.2204,1.1909,1.2048,1.2473,1.23,1.2295,1.2379,1.1694,1.0965,1.0213,0.9662,0.9078,0.8611,0.8463,0.8404,0.8368,0.8368,0.8439,0.8592,0.8723,0.8789,0.8733,0.7995,0.7493,0.7281,0.6545,0.6037,0.5892,0.5961,0.5922,0.5767,0.5837,0.5854,0.5754,0.5736,0.5736,0.5736,0.5726,0.5782,0.5891,0.5898,0.5888,0.5902,0.5706,0.55,0.5349,0.5472,0.5796,0.6384,0.6551,0.694,0.7603,0.7695,0.7392,0.6822,0.6298,0.6006,0.6006,0.6006,0.5913,0.5719,0.5673,0.5573,0.5163,0.5385,0.5438,0.503,0.4911,0.5282,0.5923,0.5931,0.5804,0.5781,0.5763,0.5567,0.5465,0.5453,0.5516,0.5627,0.576,0.5843,0.5996,0.5799,0.5641,0.5617,0.5733,0.5524,0.4796,0.4395,0.3997,0.297,0.2845,0.2766,0.2679,0.1804,0.0667,-0.1281,-0.2596,-0.3653,-0.3811,-0.4606,-0.5359,1.2703,1.2738,1.3077,1.321,1.321,1.321,1.321,1.321,1.321,1.321,1.321,1.321,1.2926,1.2487,1.2248,1.2313,1.2463,1.248,1.2372,1.2139,1.1668,1.1033,1.0317,0.9721,0.9305,0.898,0.8839,0.8784,0.8816,0.8926,0.8967,0.8967,0.9062,0.9022,0.8789,0.7992,0.7484,0.7266,0.6512,0.609,0.6102,0.6102,0.6054,0.5988,0.6063,0.6063,0.5991,0.5982,0.5979,0.597,0.5979,0.6009,0.6102,0.6177,0.6177,0.609,0.6027,0.5881,0.5623,0.5791,0.6119,0.6575,0.6837,0.7168,0.7566,0.7695,0.7695,0.7608,0.7181,0.682,0.6829,0.6624,0.6358,0.6106,0.6336,0.6237,0.5757,0.6183,0.6237,0.5719,0.5519,0.5906,0.7025,0.6988,0.6655,0.6574,0.6477,0.6346,0.6314,0.6247,0.619,0.6067,0.6041,0.5845,0.5746,0.5534,0.5434,0.5491,0.5581,0.5342,0.4593,0.4258,0.3847,0.319,0.3034,0.2841,0.2646,0.1821,0.0751,-0.1399,-0.26,-0.2934,-0.3151,-0.413,-0.4606,1.3181,1.3163,1.321,1.321,1.321,1.321,1.321,1.321,1.321,1.321,1.321,1.3173,1.2893,1.2439,1.2779,1.2834,1.2443,1.2377,1.2077,1.16,1.1055,1.0728,1.0655,1.0128,0.9683,0.9394,0.9343,0.9157,0.8885,0.9183,0.9383,0.9383,0.961,0.9554,0.9044,0.8449,0.7937,0.7392,0.6821,0.6538,0.6535,0.6556,0.643,0.6248,0.6418,0.6418,0.6236,0.6192,0.6189,0.6201,0.6192,0.6301,0.653,0.6556,0.6543,0.6509,0.6327,0.6097,0.5918,0.5929,0.6297,0.7058,0.7234,0.7409,0.7741,0.7739,0.7695,0.7681,0.7608,0.7554,0.7574,0.7023,0.6594,0.648,0.6518,0.6518,0.6419,0.6488,0.6495,0.6381,0.6282,0.6547,0.7008,0.6913,0.6835,0.6736,0.6739,0.6738,0.6514,0.6464,0.644,0.6301,0.594,0.5363,0.5342,0.5333,0.532,0.5367,0.5358,0.518,0.4732,0.4258,0.3832,0.3539,0.3626,0.3385,0.2759,0.1871,0.0784,-0.0599,-0.1512,-0.1969,-0.2101,-0.3249,-0.3558,1.321,1.321,1.321,1.321,1.321,1.321,1.321,1.321,1.321,1.321,1.3135,1.2864,1.2588,1.2388,1.2225,1.2077,1.1904,1.1876,1.1588,1.1048,1.0795,1.0532,1.0182,0.9981,0.9854,0.975,0.9737,0.9646,0.9541,0.9647,0.9737,0.9663,0.9492,0.9277,0.8976,0.8187,0.7593,0.7359,0.6878,0.659,0.659,0.659,0.6543,0.6474,0.6543,0.6543,0.6462,0.6465,0.6453,0.6465,0.6462,0.65,0.6582,0.659,0.659,0.659,0.6496,0.6345,0.6159,0.6263,0.6608,0.7203,0.7474,0.7836,0.8176,0.8004,0.7695,0.771,0.771,0.786,0.8156,0.7724,0.7166,0.6969,0.7121,0.7077,0.6745,0.6918,0.7092,0.679,0.7189,0.7919,0.7917,0.7714,0.7384,0.7238,0.6917,0.6696,0.6553,0.651,0.657,0.648,0.6267,0.6068,0.6068,0.5592,0.5316,0.5316,0.5252,0.5023,0.4654,0.4804,0.4526,0.4124,0.4194,0.4037,0.3413,0.2805,0.1597,0.0832,-0.0083,-0.0627,-0.0876,-0.1685,-0.1689,1.321,1.321,1.321,1.321,1.321,1.321,1.321,1.3185,1.3027,1.2964,1.2835,1.2391,1.2049,1.1839,1.1475,1.1199,1.11,1.1226,1.0996,1.0482,1.0444,1.0256,0.9955,0.9893,0.9893,0.9893,0.9893,0.9893,0.9893,0.9893,0.9957,1.0021,0.9438,0.9045,0.8811,0.7925,0.7321,0.7106,0.6778,0.659,0.6599,0.6664,0.6698,0.6689,0.6698,0.6668,0.6599,0.659,0.659,0.659,0.659,0.659,0.659,0.659,0.659,0.659,0.659,0.6538,0.6416,0.6661,0.7069,0.7584,0.7967,0.8454,0.9038,0.8679,0.8453,0.841,0.841,0.8609,0.8609,0.834,0.7941,0.7709,0.7898,0.7845,0.735,0.7719,0.7642,0.7325,0.8213,0.8996,0.9064,0.8462,0.8103,0.7974,0.7506,0.7268,0.7248,0.7139,0.708,0.705,0.7008,0.682,0.676,0.6435,0.6052,0.5975,0.5601,0.5226,0.5061,0.5248,0.5207,0.482,0.458,0.4457,0.4118,0.3581,0.2949,0.2214,0.1557,0.0938,0.0561,0.0133,0.0182,1.3245,1.3267,1.321,1.3245,1.3254,1.3152,1.3173,1.311,1.2626,1.2425,1.2413,1.1839,1.1324,1.0858,1.0812,1.0459,1.0247,1.0575,1.0471,1.0006,0.9955,0.9969,0.9931,0.9944,0.997,0.9995,0.9944,0.9957,0.9995,1.0021,1.0135,1.0218,0.9593,0.9076,0.8713,0.7923,0.7187,0.6823,0.6689,0.6629,0.6625,0.6803,0.6894,0.6903,0.6911,0.6841,0.6629,0.6608,0.659,0.659,0.659,0.659,0.659,0.659,0.659,0.659,0.6599,0.6608,0.6653,0.7062,0.7608,0.8128,0.8739,0.918,0.9615,0.9712,0.9673,0.9646,0.9646,0.9556,0.8994,0.8789,0.8706,0.875,0.8651,0.8598,0.8654,0.8723,0.8512,0.807,0.8926,0.9777,0.9725,0.9185,0.872,0.8631,0.8526,0.8476,0.8406,0.8206,0.8251,0.8152,0.7778,0.7359,0.7373,0.7359,0.7059,0.6751,0.6213,0.5782,0.568,0.5765,0.5688,0.5367,0.5065,0.4938,0.4826,0.4339,0.4134,0.351,0.2956,0.2459,0.2085,0.1772,0.1824,1.3835,1.4003,1.3429,1.3391,1.355,1.2951,1.2852,1.3073,1.2237,1.2065,1.2162,1.1397,1.0871,1.0688,1.0546,1.0404,1.0261,1.0417,1.0277,0.9957,0.9905,1.0046,1.0223,1.0248,1.036,1.0545,1.0582,1.0582,1.057,1.0558,1.0655,1.0595,1.0046,0.9476,0.8978,0.8298,0.7654,0.709,0.7015,0.7015,0.7023,0.7058,0.7098,0.7128,0.7237,0.7213,0.7023,0.6744,0.6599,0.6608,0.659,0.659,0.6599,0.659,0.659,0.6616,0.6732,0.6744,0.6696,0.7256,0.7852,0.8302,0.8787,0.9327,0.9805,0.9893,0.9893,0.9893,0.9893,0.9764,0.9568,0.9251,0.9048,0.8819,0.8789,0.8844,0.8871,0.883,0.8717,0.8623,0.9317,0.9828,0.9828,0.9424,0.9264,0.9329,0.9103,0.8844,0.8803,0.8761,0.8648,0.8595,0.8156,0.7908,0.8017,0.8135,0.8068,0.7584,0.6996,0.6585,0.6457,0.6114,0.6052,0.6106,0.5797,0.5404,0.5309,0.5271,0.5122,0.4788,0.421,0.3856,0.3616,0.3453,0.3298,1.4065,1.4181,1.351,1.3357,1.352,1.2728,1.2701,1.2964,1.1811,1.1588,1.1816,1.1051,1.0596,1.0585,1.058,1.0569,1.0594,1.0581,1.0458,1.0273,1.011,1.0273,1.0544,1.0581,1.0691,1.0861,1.0897,1.0897,1.0897,1.0897,1.0944,1.0898,1.0131,0.9553,0.9155,0.8303,0.7571,0.7245,0.7201,0.7209,0.7225,0.7295,0.7342,0.7377,0.7476,0.7454,0.7318,0.7021,0.6815,0.6794,0.6689,0.6664,0.6803,0.6972,0.7009,0.6886,0.6931,0.6955,0.6913,0.7513,0.8125,0.8573,0.8978,0.9399,0.978,0.9893,0.9893,0.9893,0.9893,0.9893,0.9828,0.9659,0.9384,0.9237,0.9237,0.9224,0.9224,0.9224,0.9224,0.9304,0.9646,0.9841,0.9841,0.9776,0.9659,0.9777,0.9503,0.921,0.9183,0.9103,0.9062,0.8926,0.8578,0.8537,0.872,0.886,0.9021,0.8465,0.7805,0.7526,0.7345,0.6691,0.6373,0.7056,0.7056,0.6006,0.5765,0.6245,0.629,0.5859,0.5441,0.5181,0.489,0.4542,0.4408,1.4,1.3921,1.348,1.3302,1.3221,1.2652,1.26,1.2751,1.1416,1.1055,1.1342,1.0847,1.0487,1.0534,1.0789,1.0907,1.092,1.0907,1.0942,1.0859,1.0666,1.0653,1.0883,1.0966,1.1024,1.1038,1.1013,1.0989,1.1062,1.1062,1.1057,1.1055,1.0045,0.9274,0.9154,0.798,0.7435,0.7346,0.7287,0.7287,0.7295,0.7485,0.7598,0.7605,0.7627,0.7627,0.7568,0.7385,0.7217,0.7154,0.684,0.6845,0.7186,0.7628,0.762,0.7256,0.7241,0.7201,0.7317,0.7755,0.8369,0.8957,0.9276,0.9577,0.9969,1.0046,0.9995,0.9905,0.9893,0.9931,0.9982,0.9995,0.997,0.9944,0.9828,0.9803,0.9906,0.9893,0.9764,0.9816,0.9905,0.9931,0.997,0.9931,1.0008,1.0008,0.9983,0.997,0.9919,0.9777,0.9542,0.9357,0.9185,0.9252,0.9466,0.9688,0.9829,0.9571,0.8912,0.8568,0.8181,0.7482,0.7332,0.7962,0.8114,0.7041,0.6579,0.7148,0.7325,0.7002,0.6689,0.6419,0.6029,0.5595,0.5128,1.4983,1.5224,1.447,1.3938,1.3464,1.2645,1.2154,1.1913,1.0959,1.0834,1.1135,1.0929,1.0763,1.0813,1.1069,1.1196,1.1196,1.1196,1.1358,1.1479,1.1205,1.1113,1.1256,1.146,1.1549,1.1538,1.1505,1.156,1.156,1.1527,1.1315,1.0939,1.0489,0.9819,0.9096,0.8587,0.8188,0.7798,0.7709,0.7702,0.7717,0.7753,0.7805,0.7819,0.7812,0.782,0.7812,0.7761,0.7538,0.7233,0.7114,0.7088,0.7248,0.7657,0.7834,0.7702,0.7553,0.7402,0.7383,0.7871,0.852,0.907,0.9466,1.0031,1.0577,1.0485,1.0261,1.0008,0.9905,1.0135,1.0522,1.062,1.062,1.0583,1.0223,1.0046,1.0173,1.0059,0.9893,0.9931,1.0336,1.0385,1.0236,1.0323,1.0582,1.0606,1.057,1.057,1.0459,1.0496,1.0298,1.0248,1.0147,1.0135,1.0248,1.0484,1.0594,1.0544,1.0121,0.9663,0.9122,0.842,0.8701,0.9279,0.9133,0.8322,0.8118,0.8319,0.821,0.8033,0.7838,0.7511,0.6866,0.6349,0.5658,1.4834,1.5007,1.4049,1.3476,1.3119,1.2346,1.1973,1.1805,1.1016,1.0904,1.1278,1.1157,1.1071,1.1106,1.1378,1.1501,1.1527,1.1501,1.1615,1.1736,1.159,1.1512,1.1571,1.1736,1.1816,1.1816,1.1816,1.1805,1.1794,1.1816,1.1446,1.0862,1.0529,0.9884,0.8972,0.8589,0.8312,0.7974,0.7956,0.7983,0.799,0.799,0.7983,0.7969,0.7941,0.7906,0.7906,0.7899,0.7717,0.747,0.744,0.7493,0.7515,0.7724,0.7906,0.7907,0.779,0.7635,0.7618,0.7952,0.8429,0.8965,0.9449,0.9986,1.0512,1.0682,1.0559,1.0411,1.0544,1.0881,1.1106,1.1073,1.092,1.0825,1.0545,1.0422,1.0593,1.0459,1.0336,1.0458,1.0821,1.1175,1.0712,1.0871,1.1013,1.1094,1.0885,1.0861,1.0825,1.0956,1.1013,1.0904,1.0763,1.0643,1.0748,1.0973,1.1083,1.1057,1.0845,1.0482,0.9932,0.928,0.9437,0.9764,0.9841,0.9777,0.9357,0.9089,0.9037,0.8892,0.8785,0.8419,0.7751,0.7318,0.6597,1.4068,1.3997,1.3039,1.2568,1.2458,1.199,1.1937,1.2047,1.1326,1.1171,1.1499,1.1435,1.14,1.1397,1.1725,1.1844,1.1897,1.1914,1.1908,1.195,1.1918,1.1903,1.1924,1.1876,1.1886,1.1891,1.1848,1.1854,1.1886,1.1876,1.1408,1.0791,1.0212,0.9555,0.8818,0.8251,0.7958,0.7956,0.803,0.8104,0.8131,0.8138,0.8138,0.8133,0.8066,0.7984,0.7949,0.792,0.7841,0.7665,0.7797,0.7834,0.7885,0.7914,0.7963,0.797,0.7956,0.7913,0.7899,0.7922,0.8229,0.8846,0.9212,0.9715,1.0364,1.073,1.0817,1.0989,1.1482,1.1648,1.1725,1.1358,1.1199,1.1207,1.1127,1.1062,1.1048,1.0966,1.0932,1.1071,1.1557,1.1811,1.1681,1.1482,1.1299,1.176,1.1531,1.1408,1.1408,1.1487,1.1487,1.1386,1.1207,1.1015,1.1196,1.1442,1.1479,1.1468,1.1267,1.094,1.0543,1.0084,0.997,1.0059,1.0422,1.0285,0.979,0.9659,0.9725,0.9726,0.9598,0.9138,0.8612,0.837,0.784,1.386,1.3847,1.3622,1.3076,1.2397,1.2213,1.1825,1.1296,1.1268,1.1342,1.1434,1.1604,1.1811,1.1988,1.2086,1.222,1.2376,1.237,1.242,1.2426,1.2435,1.2435,1.2376,1.2231,1.2133,1.2133,1.2123,1.2123,1.2107,1.1969,1.1448,1.0415,1.0214,0.9664,0.844,0.8203,0.8072,0.807,0.8104,0.8205,0.8312,0.8319,0.8319,0.8306,0.8289,0.8194,0.8077,0.8056,0.8036,0.8003,0.7941,0.7949,0.7957,0.8144,0.8272,0.8249,0.814,0.8056,0.8044,0.8021,0.8213,0.8888,0.9164,0.9569,1.0778,1.0738,1.098,1.1384,1.1736,1.1935,1.2092,1.1854,1.1807,1.1957,1.1962,1.1956,1.2009,1.1431,1.1287,1.1803,1.2189,1.2276,1.1933,1.2138,1.2154,1.234,1.224,1.2061,1.1994,1.1968,1.1886,1.1757,1.1738,1.1601,1.1777,1.1989,1.203,1.1967,1.1721,1.1426,1.1031,1.0724,1.0531,1.0748,1.1161,1.082,1.0297,1.0372,1.047,1.0433,1.0409,1.0071,0.974,0.9469,0.9085,1.3331,1.3301,1.3002,1.255,1.2111,1.2059,1.1857,1.1578,1.1656,1.1803,1.1926,1.2107,1.2271,1.2366,1.2386,1.2475,1.2572,1.261,1.2601,1.2591,1.2601,1.2601,1.2639,1.2588,1.252,1.2422,1.2376,1.2376,1.2329,1.1995,1.1317,1.0331,1.0129,0.9359,0.8418,0.8247,0.824,0.8273,0.8338,0.845,0.853,0.8536,0.8457,0.8406,0.8393,0.8341,0.8238,0.824,0.8231,0.822,0.8169,0.8054,0.7985,0.8232,0.846,0.8581,0.8377,0.8267,0.8223,0.8198,0.8318,0.8779,0.9266,0.9991,1.0732,1.0925,1.1291,1.1719,1.2009,1.2266,1.2416,1.2326,1.237,1.2475,1.2465,1.2481,1.242,1.1846,1.1546,1.223,1.2677,1.2762,1.2753,1.2696,1.2753,1.2808,1.2617,1.2431,1.2128,1.2103,1.2151,1.2124,1.2188,1.2256,1.241,1.2546,1.2642,1.2504,1.2246,1.1924,1.1568,1.1273,1.1022,1.1352,1.1673,1.1352,1.0959,1.1078,1.1127,1.1147,1.1103,1.1003,1.0775,1.037,0.9957,1.2685,1.2609,1.204,1.1826,1.1859,1.1869,1.2033,1.222,1.2251,1.2326,1.2562,1.261,1.2562,1.2649,1.2649,1.2677,1.2734,1.2753,1.2808,1.2825,1.2825,1.2825,1.2843,1.2908,1.2933,1.2734,1.2677,1.2674,1.2479,1.1921,1.1297,1.0551,0.9874,0.9244,0.8628,0.8454,0.846,0.8473,0.8573,0.8677,0.8712,0.8718,0.863,0.8551,0.852,0.8504,0.845,0.8431,0.8438,0.8448,0.8406,0.8269,0.8196,0.8296,0.8581,0.8869,0.86,0.8457,0.8425,0.8409,0.8453,0.8586,0.955,1.0423,1.0813,1.1184,1.153,1.2015,1.2376,1.2677,1.2665,1.2553,1.261,1.2715,1.2722,1.2677,1.2623,1.2306,1.2316,1.2426,1.2908,1.3122,1.3104,1.3043,1.3166,1.3192,1.2976,1.2735,1.2432,1.2185,1.2181,1.2437,1.2542,1.2708,1.288,1.2909,1.3034,1.2864,1.2639,1.2376,1.2061,1.1899,1.1745,1.1884,1.2004,1.1745,1.1516,1.1442,1.152,1.1736,1.1659,1.1404,1.1282,1.119,1.0798,1.2175,1.1965,1.1835,1.1933,1.2123,1.2143,1.2276,1.2504,1.2533,1.2553,1.261,1.262,1.2769,1.288,1.2933,1.3042,1.3157,1.3166,1.3192,1.3208,1.3208,1.32,1.3208,1.3226,1.3277,1.3234,1.3076,1.2933,1.2769,1.2203,1.1368,1.0761,1.0097,0.939,0.884,0.8651,0.864,0.8634,0.8711,0.876,0.8812,0.8835,0.8829,0.8766,0.876,0.8719,0.8675,0.8657,0.8651,0.8638,0.8498,0.8544,0.862,0.8743,0.8824,0.8835,0.8754,0.8634,0.8628,0.8504,0.8847,0.9339,0.9774,1.0506,1.114,1.1301,1.1712,1.2345,1.2871,1.3138,1.2867,1.2769,1.288,1.3034,1.3069,1.3007,1.3148,1.3105,1.2937,1.2946,1.3218,1.3396,1.3312,1.3278,1.3329,1.3202,1.2916,1.2807,1.2657,1.2314,1.2071,1.2455,1.2899,1.3092,1.3311,1.3295,1.3295,1.3097,1.2909,1.2762,1.2527,1.2504,1.2504,1.2553,1.2533,1.239,1.2154,1.1905,1.1972,1.2189,1.1998,1.1779,1.1743,1.1695,1.1538,1.2336,1.2215,1.2215,1.2286,1.2402,1.2396,1.2553,1.2778,1.2806,1.288,1.298,1.3016,1.3077,1.3182,1.32,1.3294,1.3371,1.3396,1.3396,1.3396,1.3396,1.3396,1.3396,1.3396,1.3396,1.3363,1.3269,1.32,1.3091,1.1989,1.1348,1.0803,0.9986,0.92,0.8907,0.8806,0.8806,0.8806,0.8812,0.884,0.8886,0.8919,0.8919,0.8919,0.8919,0.8863,0.8835,0.8806,0.8806,0.8789,0.8724,0.876,0.8846,0.8919,0.8919,0.8886,0.884,0.88,0.8806,0.8718,0.9052,0.9782,1.0117,1.0869,1.1773,1.214,1.2282,1.2813,1.3148,1.3337,1.3165,1.3051,1.3173,1.3286,1.3277,1.332,1.3453,1.3509,1.3444,1.3361,1.3578,1.3619,1.3421,1.3404,1.3446,1.3225,1.2904,1.2782,1.2749,1.2432,1.2079,1.2795,1.3309,1.3488,1.3677,1.3682,1.3581,1.3378,1.321,1.3063,1.2955,1.2917,1.2979,1.3042,1.2997,1.2871,1.2724,1.2469,1.2566,1.2633,1.2594,1.2517,1.235,1.22,1.2009,1.2649,1.261,1.261,1.262,1.2684,1.2668,1.2834,1.3033,1.3076,1.3182,1.3379,1.3388,1.3371,1.3396,1.3379,1.3396,1.3446,1.3438,1.3404,1.3446,1.3413,1.3396,1.3396,1.3396,1.3396,1.3396,1.3438,1.3336,1.2822,1.1801,1.114,1.0494,0.9472,0.8919,0.8908,0.8875,0.8919,0.8908,0.893,0.8941,0.8936,0.8908,0.8919,0.8919,0.8919,0.8919,0.8903,0.893,0.8913,0.8897,0.8897,0.8908,0.8914,0.8919,0.8919,0.8919,0.8919,0.8919,0.8925,0.9151,0.952,1.0262,1.0937,1.1688,1.2374,1.2924,1.3286,1.3396,1.3396,1.3396,1.3354,1.3379,1.3379,1.3388,1.3405,1.3463,1.3572,1.3671,1.3746,1.378,1.3927,1.3831,1.3595,1.3597,1.3659,1.3451,1.3134,1.2556,1.2491,1.2366,1.2328,1.3207,1.3745,1.3899,1.4039,1.4107,1.3952,1.3716,1.3586,1.3459,1.337,1.3303,1.3354,1.3312,1.3286,1.3166,1.3086,1.3007,1.2998,1.3052,1.3226,1.3139,1.2778,1.2524,1.232,1.2806,1.261,1.261,1.2724,1.2933,1.2951,1.3095,1.3329,1.3329,1.3363,1.3396,1.3413,1.3421,1.3429,1.3438,1.3486,1.3526,1.3502,1.3494,1.3542,1.3462,1.3413,1.3413,1.3396,1.3438,1.3471,1.3557,1.3092,1.2574,1.1676,1.0846,1.0259,0.9633,0.8925,0.8947,0.8957,0.8919,0.8913,0.9015,0.9073,0.9057,0.8979,0.8941,0.893,0.893,0.8941,0.8968,0.9015,0.9031,0.8941,0.8913,0.8919,0.8919,0.8919,0.8919,0.8919,0.8919,0.8919,0.9015,0.9446,1.0104,1.0842,1.1652,1.2448,1.2997,1.3235,1.3396,1.3396,1.3396,1.3396,1.3396,1.3396,1.3396,1.3396,1.3405,1.3486,1.3609,1.378,1.3878,1.4105,1.4216,1.3995,1.3751,1.382,1.3846,1.3609,1.331,1.2787,1.2525,1.261,1.2268,1.301,1.3897,1.4143,1.4232,1.4332,1.4251,1.4011,1.3899,1.3815,1.3734,1.3646,1.3462,1.3429,1.3454,1.343,1.3278,1.3252,1.332,1.3354,1.3346,1.3217,1.3022,1.2832,1.2668,1.3548,1.3043,1.306,1.3113,1.3217,1.3234,1.3269,1.3379,1.3396,1.3396,1.3404,1.3494,1.3581,1.3652,1.368,1.3718,1.3746,1.3703,1.3642,1.3617,1.3556,1.35,1.3526,1.3526,1.3549,1.3598,1.3654,1.3341,1.2634,1.2186,1.164,1.0772,1.0112,0.9521,0.9243,0.9113,0.9131,0.9144,0.9179,0.9208,0.9194,0.9154,0.9136,0.9136,0.9109,0.9104,0.9124,0.9164,0.9189,0.9093,0.9017,0.8919,0.8941,0.9033,0.9146,0.9129,0.9129,0.9093,0.9112,0.9778,1.0543,1.1332,1.212,1.2832,1.3374,1.3479,1.3413,1.3396,1.3396,1.3405,1.3405,1.3396,1.3396,1.3396,1.3396,1.3549,1.3678,1.3842,1.4017,1.4259,1.4467,1.4271,1.413,1.4192,1.4235,1.4095,1.3912,1.3615,1.3521,1.369,1.3166,1.258,1.3521,1.4326,1.4381,1.4453,1.4435,1.4257,1.4129,1.4063,1.4056,1.3945,1.3771,1.368,1.3726,1.3627,1.3487,1.3388,1.3371,1.3388,1.3396,1.3286,1.3173,1.32,1.3086,1.4187,1.3519,1.3479,1.347,1.3519,1.351,1.3527,1.3527,1.3552,1.3535,1.3559,1.3642,1.3768,1.3853,1.3892,1.3899,1.3952,1.3934,1.3863,1.3758,1.3699,1.3686,1.3686,1.3701,1.3624,1.3609,1.3527,1.3287,1.2964,1.2555,1.2068,1.1492,1.0988,1.0498,0.9962,0.9691,0.9612,0.934,0.9303,0.9317,0.934,0.929,0.9293,0.9298,0.9307,0.9307,0.9307,0.9345,0.9349,0.9237,0.9218,0.9172,0.9126,0.9257,0.9345,0.9308,0.9288,0.9433,0.9723,1.031,1.0913,1.1641,1.2515,1.3299,1.3596,1.3597,1.3622,1.3736,1.3598,1.3527,1.3438,1.3438,1.3454,1.3429,1.3405,1.3589,1.3739,1.3805,1.4011,1.4344,1.4552,1.4729,1.4647,1.4677,1.4634,1.4529,1.4432,1.4301,1.4295,1.4324,1.3899,1.3108,1.3625,1.4416,1.4458,1.4488,1.4488,1.4464,1.4344,1.4282,1.4257,1.4232,1.4103,1.4045,1.4017,1.3878,1.3718,1.3559,1.3396,1.3396,1.3396,1.3396,1.3371,1.3396,1.3388,1.4536,1.3838,1.3678,1.3693,1.3824,1.3846,1.3856,1.3813,1.3842,1.3842,1.3859,1.3885,1.3888,1.3924,1.3983,1.4063,1.4175,1.3983,1.4011,1.4031,1.3983,1.3899,1.3885,1.3796,1.3563,1.3048,1.3152,1.3167,1.2853,1.2419,1.2065,1.1703,1.154,1.1561,1.1164,1.0568,0.9968,0.9619,0.9408,0.9421,0.9439,0.9394,0.934,0.9331,0.9321,0.9312,0.9304,0.9426,0.9465,0.9363,0.9452,0.9465,0.9394,0.9504,0.953,0.9461,0.939,0.9703,1.0309,1.0934,1.147,1.2025,1.283,1.3787,1.392,1.3896,1.4017,1.4225,1.4008,1.3741,1.362,1.3526,1.3549,1.3559,1.3551,1.3634,1.3701,1.3609,1.387,1.432,1.4558,1.4685,1.4817,1.4766,1.4771,1.4676,1.4614,1.4471,1.4311,1.4303,1.4248,1.395,1.4164,1.4476,1.4476,1.4488,1.4488,1.4488,1.4435,1.4429,1.4441,1.4387,1.4314,1.4326,1.427,1.4123,1.3983,1.3852,1.369,1.3487,1.3396,1.3396,1.3396,1.3396,1.3396,1.4648,1.4083,1.3986,1.3941,1.3888,1.3888,1.3888,1.3888,1.3888,1.3976,1.4096,1.4085,1.4156,1.4238,1.427,1.4319,1.4375,1.4314,1.4246,1.4182,1.4116,1.4078,1.4078,1.3984,1.3754,1.3208,1.3143,1.2842,1.2409,1.2144,1.2116,1.1978,1.1893,1.1869,1.16,1.1109,1.0363,0.9793,0.9571,0.9593,0.9597,0.9597,0.9542,0.956,0.9556,0.9556,0.9568,0.9601,0.9575,0.9571,0.9645,0.9625,0.9597,0.9653,0.9641,0.9607,0.9566,1.0054,1.0799,1.151,1.2199,1.3358,1.3956,1.4251,1.4207,1.4257,1.4307,1.4387,1.4368,1.4069,1.3906,1.3761,1.3678,1.3696,1.3734,1.3776,1.3739,1.3655,1.3642,1.4056,1.4326,1.4504,1.465,1.4766,1.478,1.478,1.4722,1.4656,1.4492,1.4357,1.43,1.4297,1.4438,1.4488,1.4488,1.4488,1.4488,1.4488,1.4488,1.4488,1.4488,1.4482,1.4447,1.4482,1.4488,1.435,1.4232,1.4143,1.3966,1.3698,1.3519,1.3396,1.3396,1.3413,1.3396,1.5001,1.4658,1.464,1.4424,1.4114,1.4089,1.4089,1.4089,1.4096,1.4149,1.4289,1.4295,1.4362,1.447,1.4482,1.4476,1.4476,1.4458,1.4393,1.4326,1.4295,1.4289,1.4289,1.4192,1.3956,1.3471,1.3248,1.2921,1.219,1.1888,1.1902,1.1958,1.1898,1.1778,1.186,1.1314,1.056,0.9943,0.9761,0.9765,0.9768,0.9732,0.9717,0.9706,0.9698,0.9675,0.9671,0.9679,0.9683,0.9679,0.9694,0.9694,0.9694,0.9698,0.9698,0.9776,0.9992,1.0406,1.1173,1.201,1.2952,1.4044,1.4354,1.4464,1.4488,1.4488,1.447,1.4476,1.447,1.4393,1.4156,1.4017,1.3881,1.3892,1.3906,1.3941,1.387,1.3791,1.3696,1.3764,1.404,1.4368,1.4519,1.4666,1.4751,1.4771,1.4747,1.4705,1.4629,1.4511,1.4443,1.4438,1.4469,1.4488,1.4488,1.4488,1.4488,1.4488,1.4488,1.4488,1.4488,1.4488,1.4488,1.4488,1.4488,1.4488,1.4435,1.4332,1.4121,1.3884,1.369,1.3494,1.3453,1.3462,1.3421,1.568,1.5668,1.5606,1.516,1.4465,1.447,1.4458,1.4429,1.4441,1.4447,1.4458,1.4464,1.447,1.4488,1.4488,1.4488,1.4488,1.4488,1.4488,1.4488,1.4457,1.4493,1.4511,1.4417,1.4119,1.3487,1.3274,1.2939,1.2124,1.1682,1.1713,1.1888,1.1795,1.1593,1.2074,1.1468,1.0696,1.0013,0.9913,0.9866,0.9847,0.9815,0.9795,0.9777,0.9761,0.9736,0.9736,0.9754,0.9758,0.9736,0.9721,0.9721,0.9725,0.9751,0.9743,0.9721,1.0423,1.1168,1.2021,1.2816,1.3682,1.4334,1.4488,1.4488,1.4488,1.4488,1.4488,1.4488,1.4488,1.4387,1.4313,1.4288,1.4162,1.4105,1.4118,1.4105,1.4063,1.3934,1.3845,1.3866,1.4056,1.4276,1.4405,1.4545,1.468,1.4717,1.4732,1.4717,1.4687,1.4614,1.4522,1.4567,1.4567,1.4488,1.4488,1.4488,1.4488,1.4488,1.4488,1.4488,1.4488,1.4488,1.4488,1.4488,1.4488,1.4488,1.4488,1.4476,1.4294,1.4107,1.3798,1.3609,1.3572,1.3517,1.3462,1.6181,1.571,1.5692,1.5233,1.4548,1.4488,1.4488,1.4488,1.4488,1.4488,1.4488,1.4488,1.4488,1.4488,1.4505,1.4511,1.4505,1.4493,1.4516,1.4624,1.463,1.4697,1.4722,1.4638,1.4321,1.3709,1.342,1.3108,1.2305,1.1942,1.1988,1.2151,1.2024,1.1772,1.1531,1.111,1.0725,1.0041,0.9893,0.9893,0.989,0.9869,0.9872,0.9875,0.9822,0.9803,0.9818,0.9815,0.9815,0.9808,0.9798,0.9795,0.9818,0.9838,0.9853,0.997,1.0584,1.164,1.2793,1.3784,1.4313,1.451,1.4516,1.4522,1.4488,1.4488,1.4488,1.4488,1.4488,1.4435,1.4441,1.4435,1.4368,1.4375,1.4381,1.4375,1.4301,1.4136,1.4042,1.4156,1.432,1.4356,1.4428,1.4482,1.4594,1.4627,1.4632,1.4682,1.4677,1.4614,1.455,1.464,1.4656,1.4556,1.4493,1.4561,1.4573,1.4567,1.4533,1.4488,1.4488,1.4505,1.4488,1.4488,1.4488,1.4488,1.4488,1.4488,1.4488,1.4338,1.4031,1.3824,1.3783,1.3655,1.3526,1.686,1.6145,1.6114,1.5466,1.4603,1.4488,1.4488,1.4488,1.4488,1.4488,1.4499,1.455,1.4578,1.4589,1.4622,1.4648,1.463,1.4654,1.4651,1.4766,1.4752,1.4809,1.4873,1.4871,1.4614,1.4107,1.3913,1.3614,1.2904,1.2802,1.2644,1.2493,1.2527,1.2251,1.1818,1.1445,1.1027,1.0491,1.032,0.9986,0.9978,0.9957,0.9936,0.9924,0.9907,0.9887,0.9893,0.9896,0.9899,0.989,0.9881,0.9872,0.9902,0.9902,1.0052,1.0391,1.1412,1.2551,1.3814,1.4376,1.4701,1.4682,1.4654,1.4594,1.4522,1.4488,1.4488,1.4488,1.4511,1.4499,1.4511,1.4505,1.4505,1.4505,1.4488,1.4476,1.4447,1.427,1.4245,1.4381,1.4411,1.4428,1.4446,1.447,1.4522,1.4511,1.4499,1.4592,1.4692,1.4635,1.4587,1.4661,1.4722,1.4635,1.4632,1.47,1.4695,1.4654,1.4627,1.46,1.4539,1.4561,1.4528,1.4488,1.4493,1.4493,1.4488,1.4488,1.4516,1.4476,1.4295,1.4136,1.4024,1.387,1.3711,1.7656,1.7007,1.6897,1.6005,1.4724,1.4581,1.4522,1.4505,1.4516,1.4522,1.4528,1.4666,1.4702,1.4732,1.4822,1.485,1.4845,1.4868,1.4872,1.4881,1.4871,1.4911,1.4923,1.4936,1.4828,1.4875,1.473,1.4331,1.3698,1.3694,1.3353,1.2981,1.3163,1.3068,1.2784,1.2269,1.1774,1.135,1.0737,1.0444,1.038,1.0094,1.0035,0.998,0.9954,0.9928,0.9941,0.9938,0.9933,0.9924,0.9916,0.991,0.9902,0.9853,1.0424,1.1396,1.2778,1.3705,1.4529,1.4863,1.4913,1.4894,1.4894,1.4756,1.4643,1.4594,1.4624,1.4632,1.4668,1.4574,1.4526,1.4526,1.4521,1.4504,1.4499,1.4493,1.4488,1.4453,1.4447,1.4476,1.4476,1.4482,1.4493,1.4517,1.4573,1.4578,1.4598,1.4678,1.4742,1.4707,1.4666,1.4661,1.4707,1.4707,1.4742,1.4841,1.4813,1.4785,1.4794,1.4776,1.4702,1.4608,1.4554,1.4521,1.4511,1.4493,1.4488,1.4522,1.4573,1.4509,1.4502,1.4374,1.4264,1.4129,1.4001,1.8153,1.7931,1.7401,1.6571,1.5629,1.5029,1.4727,1.4674,1.4751,1.4776,1.4794,1.4818,1.4836,1.4845,1.4886,1.4908,1.4889,1.4898,1.4929,1.4957,1.4985,1.5029,1.5077,1.5087,1.5097,1.5094,1.5056,1.495,1.4763,1.4686,1.4675,1.4555,1.426,1.4368,1.4103,1.3675,1.3013,1.2295,1.1545,1.1151,1.0841,1.0558,1.0389,1.0279,1.0287,1.0247,1.0164,1.0128,1.0128,1.0092,1.006,1.0063,1.0041,1.0116,1.062,1.2635,1.3507,1.4078,1.4794,1.5047,1.5091,1.508,1.5087,1.5011,1.4863,1.4794,1.4845,1.4866,1.4873,1.4825,1.4685,1.4642,1.4632,1.463,1.4598,1.4578,1.4573,1.4573,1.4573,1.455,1.455,1.4561,1.4561,1.4632,1.4671,1.4677,1.4717,1.479,1.4812,1.4771,1.4799,1.4794,1.4799,1.484,1.4921,1.5019,1.4968,1.4928,1.4936,1.4928,1.4853,1.4762,1.4614,1.4552,1.4549,1.4528,1.4488,1.4571,1.4752,1.4776,1.4771,1.4635,1.4492,1.4344,1.4251,1.8727,1.8444,1.8014,1.7174,1.6068,1.5281,1.4892,1.4849,1.4872,1.4904,1.4889,1.4913,1.4933,1.496,1.4996,1.5019,1.5023,1.5053,1.5059,1.5068,1.5062,1.5105,1.518,1.5195,1.5183,1.5195,1.5195,1.5136,1.5207,1.5234,1.521,1.5175,1.5295,1.529,1.5055,1.4648,1.4303,1.3499,1.2761,1.2125,1.1694,1.141,1.1258,1.1042,1.104,1.0915,1.0643,1.0624,1.0617,1.0615,1.0617,1.0827,1.1113,1.1496,1.2188,1.3948,1.4318,1.4635,1.5031,1.5137,1.5183,1.5204,1.5237,1.5149,1.5099,1.5019,1.507,1.5107,1.5121,1.5082,1.4914,1.4771,1.4776,1.4799,1.4746,1.4685,1.468,1.468,1.4645,1.4624,1.4624,1.4635,1.4677,1.4747,1.4785,1.4809,1.4822,1.4875,1.4902,1.4887,1.495,1.5007,1.5004,1.5034,1.5094,1.5121,1.5084,1.5052,1.5078,1.5048,1.5008,1.4954,1.4865,1.4729,1.4614,1.4598,1.4622,1.484,1.4992,1.5011,1.4955,1.4813,1.4666,1.4515,1.4458,1.9322,1.8715,1.8574,1.7615,1.6218,1.5411,1.5021,1.501,1.4968,1.4934,1.4963,1.5,1.5021,1.5047,1.5107,1.5159,1.5156,1.5156,1.5149,1.5195,1.5182,1.5212,1.5212,1.5207,1.522,1.5204,1.5212,1.5251,1.5231,1.526,1.5293,1.5293,1.5299,1.5328,1.5281,1.5223,1.4963,1.4677,1.3822,1.3103,1.2841,1.2772,1.2786,1.2593,1.2463,1.228,1.1719,1.1526,1.1517,1.1522,1.1594,1.1905,1.2409,1.3171,1.4089,1.4682,1.4951,1.5038,1.5123,1.5186,1.5201,1.5248,1.5321,1.5318,1.5306,1.5175,1.5174,1.5183,1.5177,1.5635,1.5659,1.5418,1.5345,1.5323,1.5264,1.5053,1.4823,1.4799,1.4766,1.4762,1.484,1.4844,1.4834,1.4913,1.4888,1.4902,1.4967,1.5004,1.5004,1.5007,1.5046,1.5143,1.5127,1.5114,1.5156,1.5174,1.5183,1.5174,1.5187,1.5149,1.5084,1.5091,1.513,1.4957,1.4799,1.4771,1.4827,1.5,1.5104,1.5107,1.5068,1.4975,1.4859,1.4732,1.4687,1.9287,1.9521,1.8399,1.765,1.714,1.5754,1.5184,1.5162,1.5146,1.5146,1.5136,1.5133,1.5143,1.5146,1.5186,1.5204,1.5201,1.5224,1.5198,1.5229,1.5233,1.5255,1.5279,1.5272,1.527,1.5283,1.5297,1.5289,1.5278,1.5292,1.5335,1.5373,1.5368,1.5374,1.5371,1.5371,1.5342,1.5313,1.491,1.4146,1.3751,1.3102,1.2773,1.2845,1.2823,1.2859,1.2487,1.2405,1.2441,1.2455,1.2402,1.2523,1.2707,1.3543,1.4345,1.5,1.5238,1.5248,1.5229,1.5226,1.5281,1.5543,1.5674,1.5637,1.5524,1.5322,1.5223,1.5242,1.5525,1.61,1.6382,1.6113,1.5948,1.5923,1.5799,1.5409,1.502,1.4936,1.4885,1.4956,1.5038,1.5056,1.5037,1.5007,1.4985,1.5026,1.5117,1.5149,1.5124,1.513,1.5105,1.518,1.5183,1.518,1.5195,1.5195,1.5195,1.5195,1.5183,1.5171,1.5143,1.5143,1.5159,1.511,1.5008,1.4956,1.4952,1.5052,1.513,1.5171,1.5165,1.5085,1.5089,1.4996,1.4954,1.9718,1.996,1.8789,1.8049,1.7564,1.6676,1.5904,1.5352,1.5615,1.557,1.5256,1.5212,1.5195,1.5207,1.5226,1.5245,1.5231,1.526,1.5257,1.527,1.5274,1.5272,1.5305,1.5336,1.532,1.5322,1.5346,1.5342,1.5304,1.5334,1.5384,1.5416,1.542,1.541,1.541,1.541,1.541,1.5406,1.541,1.5078,1.457,1.4141,1.3926,1.3947,1.3922,1.3763,1.3378,1.3299,1.3307,1.3509,1.3666,1.3885,1.4062,1.4418,1.4807,1.5146,1.5294,1.5284,1.5257,1.5267,1.5438,1.5856,1.6201,1.6204,1.6823,1.6608,1.5909,1.5946,1.6586,1.7152,1.6964,1.6727,1.6863,1.6903,1.6383,1.586,1.5391,1.5059,1.5056,1.5073,1.5121,1.5127,1.5127,1.5124,1.5107,1.5111,1.5183,1.522,1.5204,1.5204,1.5196,1.5201,1.5204,1.5198,1.5195,1.5195,1.5195,1.5195,1.5195,1.5186,1.518,1.5186,1.518,1.5146,1.512,1.508,1.5097,1.5133,1.5168,1.5183,1.5189,1.518,1.5195,1.5195,1.5143,2.0265,2.0173,1.9357,1.8598,1.7928,1.7719,1.6903,1.5862,1.6198,1.6202,1.572,1.5395,1.5226,1.5226,1.526,1.5278,1.5278,1.5278,1.5281,1.5289,1.5317,1.532,1.535,1.538,1.5344,1.5342,1.5343,1.5342,1.5322,1.5373,1.54,1.5402,1.541,1.541,1.541,1.541,1.541,1.541,1.541,1.541,1.5371,1.541,1.5234,1.5285,1.5339,1.4943,1.4426,1.4182,1.4182,1.4364,1.4697,1.4868,1.4963,1.5048,1.5141,1.5358,1.5339,1.5322,1.5307,1.5279,1.5781,1.6305,1.6638,1.7131,1.775,1.7812,1.7109,1.7266,1.7891,1.8047,1.7852,1.7562,1.7743,1.7658,1.7003,1.6324,1.5805,1.528,1.518,1.5164,1.5188,1.5215,1.5207,1.5204,1.5218,1.5218,1.5215,1.5218,1.5234,1.5231,1.5226,1.5233,1.521,1.5218,1.5198,1.5207,1.521,1.5195,1.5195,1.5195,1.5195,1.5195,1.5195,1.5192,1.5171,1.5133,1.5159,1.518,1.5192,1.5204,1.5195,1.5195,1.5195,1.5195,1.5195,2.0288,2.0231,1.9373,1.8921,1.8722,1.8098,1.7611,1.7306,1.6786,1.6832,1.6851,1.585,1.5273,1.5311,1.5278,1.5303,1.5305,1.5303,1.5297,1.5296,1.5343,1.5368,1.5393,1.5402,1.5388,1.5371,1.5391,1.5391,1.5371,1.5391,1.541,1.541,1.541,1.541,1.541,1.541,1.541,1.541,1.541,1.541,1.541,1.541,1.541,1.541,1.539,1.5272,1.5154,1.5145,1.5129,1.5191,1.5254,1.5352,1.5371,1.5371,1.5391,1.5389,1.5381,1.5349,1.5319,1.5313,1.5789,1.6582,1.7041,1.7903,1.8633,1.9492,1.9141,1.9297,1.9707,1.9727,1.9453,1.875,1.8612,1.8233,1.7697,1.6918,1.6264,1.5627,1.5189,1.5218,1.5226,1.5236,1.5217,1.5241,1.5288,1.5265,1.5259,1.5261,1.5263,1.5255,1.5264,1.525,1.5231,1.5221,1.5195,1.5207,1.5212,1.5212,1.5201,1.5215,1.5215,1.5195,1.5198,1.5218,1.5212,1.518,1.5192,1.5195,1.5218,1.5224,1.5204,1.5195,1.5201,1.5199,1.522]}]]